<?xml version="1.0" encoding="UTF-8" standalone="no" ?>
<gpx xmlns="http://www.topografix.com/GPX/1/1" xmlns:xsi="http://www.w3.org/2001/XMLSchema-instance" xsi:schemaLocation="http://www.topografix.com/GPX/1/1 http://www.topografix.com/GPX/1/1/gpx.xsd" version="1.1" creator="VisuGPX - https://www.visugpx.com">
  <metadata>
    <name>Gorges du Houx 03/06/2021 </name>
    <desc><![CDATA[Randonnée au départ de la maison de l'ONF de la Faisanderie à Fontainebleau.

Un peu de dénivelé pour cette boucle qui nous emmène jusqu'à Franchard en passant par la petite mare aux pigeons et retour par la grotte du serment et le mont Aigu.]]></desc>
  </metadata>
  <trk>
    <name><![CDATA[03/06/2021 14:04:41]]></name>
    <trkseg>
      <trkpt lat="48.40467" lon="2.67789">
        <ele>78.400001525879</ele>
        <time>2021-06-03T12:04:41Z</time>
      </trkpt>
      <trkpt lat="48.40466" lon="2.67789">
        <ele>78.800003051758</ele>
        <time>2021-06-03T12:04:46Z</time>
      </trkpt>
      <trkpt lat="48.40466" lon="2.67789">
        <ele>78.800003051758</ele>
        <time>2021-06-03T12:04:51Z</time>
      </trkpt>
      <trkpt lat="48.40465" lon="2.6779">
        <ele>78.599998474121</ele>
        <time>2021-06-03T12:04:56Z</time>
      </trkpt>
      <trkpt lat="48.40465" lon="2.6779">
        <ele>78.599998474121</ele>
        <time>2021-06-03T12:05:01Z</time>
      </trkpt>
      <trkpt lat="48.40464" lon="2.6779">
        <ele>78.400001525879</ele>
        <time>2021-06-03T12:05:06Z</time>
      </trkpt>
      <trkpt lat="48.40464" lon="2.6779">
        <ele>78.400001525879</ele>
        <time>2021-06-03T12:05:11Z</time>
      </trkpt>
      <trkpt lat="48.40465" lon="2.67789">
        <ele>78.400001525879</ele>
        <time>2021-06-03T12:05:16Z</time>
      </trkpt>
      <trkpt lat="48.40466" lon="2.67789">
        <ele>78.599998474121</ele>
        <time>2021-06-03T12:05:21Z</time>
      </trkpt>
      <trkpt lat="48.40466" lon="2.6779">
        <ele>78.599998474121</ele>
        <time>2021-06-03T12:05:26Z</time>
      </trkpt>
      <trkpt lat="48.40467" lon="2.67791">
        <ele>78.599998474121</ele>
        <time>2021-06-03T12:05:31Z</time>
      </trkpt>
      <trkpt lat="48.40468" lon="2.67793">
        <ele>78.599998474121</ele>
        <time>2021-06-03T12:05:36Z</time>
      </trkpt>
      <trkpt lat="48.40469" lon="2.67793">
        <ele>78.400001525879</ele>
        <time>2021-06-03T12:05:41Z</time>
      </trkpt>
      <trkpt lat="48.40471" lon="2.67792">
        <ele>78.400001525879</ele>
        <time>2021-06-03T12:05:46Z</time>
      </trkpt>
      <trkpt lat="48.40471" lon="2.67792">
        <ele>78.199996948242</ele>
        <time>2021-06-03T12:05:51Z</time>
      </trkpt>
      <trkpt lat="48.40471" lon="2.67792">
        <ele>78.199996948242</ele>
        <time>2021-06-03T12:05:56Z</time>
      </trkpt>
      <trkpt lat="48.40473" lon="2.67792">
        <ele>78.400001525879</ele>
        <time>2021-06-03T12:06:01Z</time>
      </trkpt>
      <trkpt lat="48.40478" lon="2.67793">
        <ele>78.199996948242</ele>
        <time>2021-06-03T12:06:06Z</time>
      </trkpt>
      <trkpt lat="48.40482" lon="2.67793">
        <ele>78</ele>
        <time>2021-06-03T12:06:11Z</time>
      </trkpt>
      <trkpt lat="48.40486" lon="2.67789">
        <ele>78.199996948242</ele>
        <time>2021-06-03T12:06:16Z</time>
      </trkpt>
      <trkpt lat="48.4049" lon="2.67786">
        <ele>78.400001525879</ele>
        <time>2021-06-03T12:06:21Z</time>
      </trkpt>
      <trkpt lat="48.40495" lon="2.67782">
        <ele>78.599998474121</ele>
        <time>2021-06-03T12:06:26Z</time>
      </trkpt>
      <trkpt lat="48.40497" lon="2.67777">
        <ele>78.599998474121</ele>
        <time>2021-06-03T12:06:31Z</time>
      </trkpt>
      <trkpt lat="48.405" lon="2.67771">
        <ele>78.800003051758</ele>
        <time>2021-06-03T12:06:36Z</time>
      </trkpt>
      <trkpt lat="48.40501" lon="2.67765">
        <ele>78.599998474121</ele>
        <time>2021-06-03T12:06:41Z</time>
      </trkpt>
      <trkpt lat="48.40501" lon="2.67757">
        <ele>78.599998474121</ele>
        <time>2021-06-03T12:06:46Z</time>
      </trkpt>
      <trkpt lat="48.40501" lon="2.6775">
        <ele>78.599998474121</ele>
        <time>2021-06-03T12:06:51Z</time>
      </trkpt>
      <trkpt lat="48.40502" lon="2.67742">
        <ele>78.800003051758</ele>
        <time>2021-06-03T12:06:56Z</time>
      </trkpt>
      <trkpt lat="48.40503" lon="2.67734">
        <ele>78.800003051758</ele>
        <time>2021-06-03T12:07:01Z</time>
      </trkpt>
      <trkpt lat="48.40502" lon="2.67728">
        <ele>78.599998474121</ele>
        <time>2021-06-03T12:07:06Z</time>
      </trkpt>
      <trkpt lat="48.40502" lon="2.67719">
        <ele>78.599998474121</ele>
        <time>2021-06-03T12:07:11Z</time>
      </trkpt>
      <trkpt lat="48.40501" lon="2.67712">
        <ele>78.400001525879</ele>
        <time>2021-06-03T12:07:16Z</time>
      </trkpt>
      <trkpt lat="48.40501" lon="2.67704">
        <ele>78.400001525879</ele>
        <time>2021-06-03T12:07:21Z</time>
      </trkpt>
      <trkpt lat="48.40501" lon="2.67696">
        <ele>78.400001525879</ele>
        <time>2021-06-03T12:07:26Z</time>
      </trkpt>
      <trkpt lat="48.405" lon="2.67688">
        <ele>78.400001525879</ele>
        <time>2021-06-03T12:07:31Z</time>
      </trkpt>
      <trkpt lat="48.40501" lon="2.6768">
        <ele>78.599998474121</ele>
        <time>2021-06-03T12:07:36Z</time>
      </trkpt>
      <trkpt lat="48.40503" lon="2.67672">
        <ele>78.599998474121</ele>
        <time>2021-06-03T12:07:41Z</time>
      </trkpt>
      <trkpt lat="48.40503" lon="2.67663">
        <ele>78.800003051758</ele>
        <time>2021-06-03T12:07:46Z</time>
      </trkpt>
      <trkpt lat="48.40503" lon="2.67653">
        <ele>78.599998474121</ele>
        <time>2021-06-03T12:07:51Z</time>
      </trkpt>
      <trkpt lat="48.405" lon="2.67646">
        <ele>78.599998474121</ele>
        <time>2021-06-03T12:07:56Z</time>
      </trkpt>
      <trkpt lat="48.40497" lon="2.6764">
        <ele>78.599998474121</ele>
        <time>2021-06-03T12:08:01Z</time>
      </trkpt>
      <trkpt lat="48.40492" lon="2.67636">
        <ele>78.599998474121</ele>
        <time>2021-06-03T12:08:06Z</time>
      </trkpt>
      <trkpt lat="48.40486" lon="2.67632">
        <ele>78.400001525879</ele>
        <time>2021-06-03T12:08:11Z</time>
      </trkpt>
      <trkpt lat="48.4048" lon="2.67628">
        <ele>78.199996948242</ele>
        <time>2021-06-03T12:08:16Z</time>
      </trkpt>
      <trkpt lat="48.40476" lon="2.67625">
        <ele>78.199996948242</ele>
        <time>2021-06-03T12:08:21Z</time>
      </trkpt>
      <trkpt lat="48.40472" lon="2.6762">
        <ele>78</ele>
        <time>2021-06-03T12:08:26Z</time>
      </trkpt>
      <trkpt lat="48.40467" lon="2.67614">
        <ele>78</ele>
        <time>2021-06-03T12:08:31Z</time>
      </trkpt>
      <trkpt lat="48.40465" lon="2.67609">
        <ele>77.800003051758</ele>
        <time>2021-06-03T12:08:36Z</time>
      </trkpt>
      <trkpt lat="48.40463" lon="2.67602">
        <ele>77.599998474121</ele>
        <time>2021-06-03T12:08:41Z</time>
      </trkpt>
      <trkpt lat="48.4046" lon="2.67594">
        <ele>77.599998474121</ele>
        <time>2021-06-03T12:08:46Z</time>
      </trkpt>
      <trkpt lat="48.40457" lon="2.67586">
        <ele>77.599998474121</ele>
        <time>2021-06-03T12:08:51Z</time>
      </trkpt>
      <trkpt lat="48.40451" lon="2.6758">
        <ele>77.599998474121</ele>
        <time>2021-06-03T12:08:56Z</time>
      </trkpt>
      <trkpt lat="48.40446" lon="2.67576">
        <ele>77.599998474121</ele>
        <time>2021-06-03T12:09:01Z</time>
      </trkpt>
      <trkpt lat="48.4044" lon="2.67574">
        <ele>77.599998474121</ele>
        <time>2021-06-03T12:09:06Z</time>
      </trkpt>
      <trkpt lat="48.40435" lon="2.67571">
        <ele>77.400001525879</ele>
        <time>2021-06-03T12:09:11Z</time>
      </trkpt>
      <trkpt lat="48.40431" lon="2.67569">
        <ele>77.400001525879</ele>
        <time>2021-06-03T12:09:16Z</time>
      </trkpt>
      <trkpt lat="48.40428" lon="2.67562">
        <ele>77.400001525879</ele>
        <time>2021-06-03T12:09:21Z</time>
      </trkpt>
      <trkpt lat="48.40424" lon="2.67554">
        <ele>77.400001525879</ele>
        <time>2021-06-03T12:09:26Z</time>
      </trkpt>
      <trkpt lat="48.40421" lon="2.67548">
        <ele>77.400001525879</ele>
        <time>2021-06-03T12:09:31Z</time>
      </trkpt>
      <trkpt lat="48.40415" lon="2.67548">
        <ele>77.400001525879</ele>
        <time>2021-06-03T12:09:36Z</time>
      </trkpt>
      <trkpt lat="48.40411" lon="2.67552">
        <ele>77.400001525879</ele>
        <time>2021-06-03T12:09:41Z</time>
      </trkpt>
      <trkpt lat="48.40407" lon="2.67549">
        <ele>77.199996948242</ele>
        <time>2021-06-03T12:09:46Z</time>
      </trkpt>
      <trkpt lat="48.40405" lon="2.67545">
        <ele>77</ele>
        <time>2021-06-03T12:09:51Z</time>
      </trkpt>
      <trkpt lat="48.40403" lon="2.6754">
        <ele>76.800003051758</ele>
        <time>2021-06-03T12:09:56Z</time>
      </trkpt>
      <trkpt lat="48.404" lon="2.67533">
        <ele>76.800003051758</ele>
        <time>2021-06-03T12:10:01Z</time>
      </trkpt>
      <trkpt lat="48.40397" lon="2.67524">
        <ele>76.800003051758</ele>
        <time>2021-06-03T12:10:06Z</time>
      </trkpt>
      <trkpt lat="48.40393" lon="2.67516">
        <ele>76.800003051758</ele>
        <time>2021-06-03T12:10:11Z</time>
      </trkpt>
      <trkpt lat="48.40389" lon="2.67512">
        <ele>76.800003051758</ele>
        <time>2021-06-03T12:10:16Z</time>
      </trkpt>
      <trkpt lat="48.40385" lon="2.67504">
        <ele>76.800003051758</ele>
        <time>2021-06-03T12:10:21Z</time>
      </trkpt>
      <trkpt lat="48.4038" lon="2.67499">
        <ele>76.800003051758</ele>
        <time>2021-06-03T12:10:26Z</time>
      </trkpt>
      <trkpt lat="48.40375" lon="2.67496">
        <ele>76.800003051758</ele>
        <time>2021-06-03T12:10:31Z</time>
      </trkpt>
      <trkpt lat="48.40369" lon="2.67491">
        <ele>76.800003051758</ele>
        <time>2021-06-03T12:10:36Z</time>
      </trkpt>
      <trkpt lat="48.40363" lon="2.67486">
        <ele>76.800003051758</ele>
        <time>2021-06-03T12:10:41Z</time>
      </trkpt>
      <trkpt lat="48.40358" lon="2.67481">
        <ele>76.599998474121</ele>
        <time>2021-06-03T12:10:46Z</time>
      </trkpt>
      <trkpt lat="48.40354" lon="2.67474">
        <ele>76.400001525879</ele>
        <time>2021-06-03T12:10:51Z</time>
      </trkpt>
      <trkpt lat="48.40349" lon="2.67467">
        <ele>76.400001525879</ele>
        <time>2021-06-03T12:10:56Z</time>
      </trkpt>
      <trkpt lat="48.40345" lon="2.67461">
        <ele>76.400001525879</ele>
        <time>2021-06-03T12:11:01Z</time>
      </trkpt>
      <trkpt lat="48.4034" lon="2.67456">
        <ele>76.400001525879</ele>
        <time>2021-06-03T12:11:06Z</time>
      </trkpt>
      <trkpt lat="48.40336" lon="2.67451">
        <ele>76.400001525879</ele>
        <time>2021-06-03T12:11:11Z</time>
      </trkpt>
      <trkpt lat="48.40331" lon="2.67447">
        <ele>76.400001525879</ele>
        <time>2021-06-03T12:11:16Z</time>
      </trkpt>
      <trkpt lat="48.40326" lon="2.6744">
        <ele>76.199996948242</ele>
        <time>2021-06-03T12:11:21Z</time>
      </trkpt>
      <trkpt lat="48.40321" lon="2.67434">
        <ele>76.199996948242</ele>
        <time>2021-06-03T12:11:26Z</time>
      </trkpt>
      <trkpt lat="48.40317" lon="2.67427">
        <ele>76.199996948242</ele>
        <time>2021-06-03T12:11:31Z</time>
      </trkpt>
      <trkpt lat="48.40313" lon="2.67421">
        <ele>76</ele>
        <time>2021-06-03T12:11:36Z</time>
      </trkpt>
      <trkpt lat="48.4031" lon="2.67416">
        <ele>76</ele>
        <time>2021-06-03T12:11:41Z</time>
      </trkpt>
      <trkpt lat="48.40307" lon="2.6741">
        <ele>75.800003051758</ele>
        <time>2021-06-03T12:11:46Z</time>
      </trkpt>
      <trkpt lat="48.40302" lon="2.67405">
        <ele>75.800003051758</ele>
        <time>2021-06-03T12:11:51Z</time>
      </trkpt>
      <trkpt lat="48.40297" lon="2.67402">
        <ele>75.800003051758</ele>
        <time>2021-06-03T12:11:56Z</time>
      </trkpt>
      <trkpt lat="48.4029" lon="2.67398">
        <ele>75.800003051758</ele>
        <time>2021-06-03T12:12:01Z</time>
      </trkpt>
      <trkpt lat="48.40286" lon="2.67396">
        <ele>75.400001525879</ele>
        <time>2021-06-03T12:12:06Z</time>
      </trkpt>
      <trkpt lat="48.4028" lon="2.67396">
        <ele>75.400001525879</ele>
        <time>2021-06-03T12:12:11Z</time>
      </trkpt>
      <trkpt lat="48.40274" lon="2.67393">
        <ele>75.400001525879</ele>
        <time>2021-06-03T12:12:16Z</time>
      </trkpt>
      <trkpt lat="48.40269" lon="2.6739">
        <ele>75.199996948242</ele>
        <time>2021-06-03T12:12:21Z</time>
      </trkpt>
      <trkpt lat="48.40264" lon="2.67386">
        <ele>75.199996948242</ele>
        <time>2021-06-03T12:12:26Z</time>
      </trkpt>
      <trkpt lat="48.40256" lon="2.67382">
        <ele>75.199996948242</ele>
        <time>2021-06-03T12:12:31Z</time>
      </trkpt>
      <trkpt lat="48.40251" lon="2.6738">
        <ele>75.199996948242</ele>
        <time>2021-06-03T12:12:36Z</time>
      </trkpt>
      <trkpt lat="48.40246" lon="2.67378">
        <ele>75</ele>
        <time>2021-06-03T12:12:41Z</time>
      </trkpt>
      <trkpt lat="48.4024" lon="2.67377">
        <ele>75</ele>
        <time>2021-06-03T12:12:46Z</time>
      </trkpt>
      <trkpt lat="48.40232" lon="2.67374">
        <ele>75</ele>
        <time>2021-06-03T12:12:51Z</time>
      </trkpt>
      <trkpt lat="48.40226" lon="2.67373">
        <ele>75</ele>
        <time>2021-06-03T12:12:56Z</time>
      </trkpt>
      <trkpt lat="48.4022" lon="2.67371">
        <ele>75</ele>
        <time>2021-06-03T12:13:01Z</time>
      </trkpt>
      <trkpt lat="48.40214" lon="2.67368">
        <ele>74.800003051758</ele>
        <time>2021-06-03T12:13:06Z</time>
      </trkpt>
      <trkpt lat="48.40208" lon="2.67364">
        <ele>74.599998474121</ele>
        <time>2021-06-03T12:13:11Z</time>
      </trkpt>
      <trkpt lat="48.40204" lon="2.67361">
        <ele>74.599998474121</ele>
        <time>2021-06-03T12:13:16Z</time>
      </trkpt>
      <trkpt lat="48.40198" lon="2.67356">
        <ele>74.400001525879</ele>
        <time>2021-06-03T12:13:21Z</time>
      </trkpt>
      <trkpt lat="48.40193" lon="2.67352">
        <ele>74.400001525879</ele>
        <time>2021-06-03T12:13:26Z</time>
      </trkpt>
      <trkpt lat="48.40187" lon="2.6735">
        <ele>74.400001525879</ele>
        <time>2021-06-03T12:13:31Z</time>
      </trkpt>
      <trkpt lat="48.40182" lon="2.67346">
        <ele>74.599998474121</ele>
        <time>2021-06-03T12:13:36Z</time>
      </trkpt>
      <trkpt lat="48.40176" lon="2.67344">
        <ele>74.599998474121</ele>
        <time>2021-06-03T12:13:41Z</time>
      </trkpt>
      <trkpt lat="48.4017" lon="2.67344">
        <ele>74.599998474121</ele>
        <time>2021-06-03T12:13:46Z</time>
      </trkpt>
      <trkpt lat="48.40164" lon="2.67341">
        <ele>74.400001525879</ele>
        <time>2021-06-03T12:13:51Z</time>
      </trkpt>
      <trkpt lat="48.40159" lon="2.67338">
        <ele>74.400001525879</ele>
        <time>2021-06-03T12:13:56Z</time>
      </trkpt>
      <trkpt lat="48.40154" lon="2.67336">
        <ele>74.400001525879</ele>
        <time>2021-06-03T12:14:01Z</time>
      </trkpt>
      <trkpt lat="48.40149" lon="2.67334">
        <ele>74.599998474121</ele>
        <time>2021-06-03T12:14:06Z</time>
      </trkpt>
      <trkpt lat="48.40143" lon="2.67332">
        <ele>74.599998474121</ele>
        <time>2021-06-03T12:14:11Z</time>
      </trkpt>
      <trkpt lat="48.40138" lon="2.6733">
        <ele>74.800003051758</ele>
        <time>2021-06-03T12:14:16Z</time>
      </trkpt>
      <trkpt lat="48.40132" lon="2.67328">
        <ele>74.800003051758</ele>
        <time>2021-06-03T12:14:21Z</time>
      </trkpt>
      <trkpt lat="48.40126" lon="2.67324">
        <ele>74.800003051758</ele>
        <time>2021-06-03T12:14:26Z</time>
      </trkpt>
      <trkpt lat="48.40122" lon="2.67324">
        <ele>75</ele>
        <time>2021-06-03T12:14:31Z</time>
      </trkpt>
      <trkpt lat="48.40117" lon="2.67319">
        <ele>75</ele>
        <time>2021-06-03T12:14:36Z</time>
      </trkpt>
      <trkpt lat="48.40113" lon="2.67312">
        <ele>75</ele>
        <time>2021-06-03T12:14:41Z</time>
      </trkpt>
      <trkpt lat="48.40107" lon="2.67308">
        <ele>75.199996948242</ele>
        <time>2021-06-03T12:14:46Z</time>
      </trkpt>
      <trkpt lat="48.40101" lon="2.673">
        <ele>75</ele>
        <time>2021-06-03T12:14:51Z</time>
      </trkpt>
      <trkpt lat="48.40095" lon="2.67299">
        <ele>75</ele>
        <time>2021-06-03T12:14:56Z</time>
      </trkpt>
      <trkpt lat="48.40092" lon="2.67293">
        <ele>75</ele>
        <time>2021-06-03T12:15:01Z</time>
      </trkpt>
      <trkpt lat="48.40088" lon="2.67287">
        <ele>75</ele>
        <time>2021-06-03T12:15:06Z</time>
      </trkpt>
      <trkpt lat="48.40084" lon="2.67282">
        <ele>75.199996948242</ele>
        <time>2021-06-03T12:15:11Z</time>
      </trkpt>
      <trkpt lat="48.40079" lon="2.67278">
        <ele>75.199996948242</ele>
        <time>2021-06-03T12:15:16Z</time>
      </trkpt>
      <trkpt lat="48.40073" lon="2.67273">
        <ele>75.199996948242</ele>
        <time>2021-06-03T12:15:21Z</time>
      </trkpt>
      <trkpt lat="48.40068" lon="2.67269">
        <ele>75.199996948242</ele>
        <time>2021-06-03T12:15:26Z</time>
      </trkpt>
      <trkpt lat="48.40065" lon="2.67265">
        <ele>75</ele>
        <time>2021-06-03T12:15:31Z</time>
      </trkpt>
      <trkpt lat="48.40059" lon="2.67258">
        <ele>75</ele>
        <time>2021-06-03T12:15:36Z</time>
      </trkpt>
      <trkpt lat="48.40056" lon="2.67251">
        <ele>75</ele>
        <time>2021-06-03T12:15:41Z</time>
      </trkpt>
      <trkpt lat="48.4005" lon="2.67241">
        <ele>75.199996948242</ele>
        <time>2021-06-03T12:15:46Z</time>
      </trkpt>
      <trkpt lat="48.40046" lon="2.67235">
        <ele>75.199996948242</ele>
        <time>2021-06-03T12:15:51Z</time>
      </trkpt>
      <trkpt lat="48.40043" lon="2.67227">
        <ele>75.400001525879</ele>
        <time>2021-06-03T12:15:56Z</time>
      </trkpt>
      <trkpt lat="48.40039" lon="2.67218">
        <ele>75.400001525879</ele>
        <time>2021-06-03T12:16:01Z</time>
      </trkpt>
      <trkpt lat="48.40036" lon="2.6721">
        <ele>75.599998474121</ele>
        <time>2021-06-03T12:16:06Z</time>
      </trkpt>
      <trkpt lat="48.40033" lon="2.67204">
        <ele>75.599998474121</ele>
        <time>2021-06-03T12:16:11Z</time>
      </trkpt>
      <trkpt lat="48.40029" lon="2.67199">
        <ele>75.800003051758</ele>
        <time>2021-06-03T12:16:16Z</time>
      </trkpt>
      <trkpt lat="48.40025" lon="2.67199">
        <ele>75.599998474121</ele>
        <time>2021-06-03T12:16:21Z</time>
      </trkpt>
      <trkpt lat="48.4002" lon="2.67204">
        <ele>75.599998474121</ele>
        <time>2021-06-03T12:16:26Z</time>
      </trkpt>
      <trkpt lat="48.40015" lon="2.6721">
        <ele>75.599998474121</ele>
        <time>2021-06-03T12:16:31Z</time>
      </trkpt>
      <trkpt lat="48.4001" lon="2.67215">
        <ele>75.400001525879</ele>
        <time>2021-06-03T12:16:36Z</time>
      </trkpt>
      <trkpt lat="48.40005" lon="2.67221">
        <ele>75.199996948242</ele>
        <time>2021-06-03T12:16:41Z</time>
      </trkpt>
      <trkpt lat="48.4" lon="2.67224">
        <ele>75.199996948242</ele>
        <time>2021-06-03T12:16:46Z</time>
      </trkpt>
      <trkpt lat="48.39996" lon="2.67229">
        <ele>75.199996948242</ele>
        <time>2021-06-03T12:16:51Z</time>
      </trkpt>
      <trkpt lat="48.39993" lon="2.67233">
        <ele>75.400001525879</ele>
        <time>2021-06-03T12:16:56Z</time>
      </trkpt>
      <trkpt lat="48.39986" lon="2.67237">
        <ele>75.400001525879</ele>
        <time>2021-06-03T12:17:01Z</time>
      </trkpt>
      <trkpt lat="48.39981" lon="2.67242">
        <ele>75.400001525879</ele>
        <time>2021-06-03T12:17:06Z</time>
      </trkpt>
      <trkpt lat="48.39975" lon="2.67247">
        <ele>75.400001525879</ele>
        <time>2021-06-03T12:17:11Z</time>
      </trkpt>
      <trkpt lat="48.39971" lon="2.67251">
        <ele>75.400001525879</ele>
        <time>2021-06-03T12:17:16Z</time>
      </trkpt>
      <trkpt lat="48.39965" lon="2.67254">
        <ele>75.199996948242</ele>
        <time>2021-06-03T12:17:21Z</time>
      </trkpt>
      <trkpt lat="48.39959" lon="2.67262">
        <ele>75.199996948242</ele>
        <time>2021-06-03T12:17:26Z</time>
      </trkpt>
      <trkpt lat="48.39952" lon="2.67268">
        <ele>75</ele>
        <time>2021-06-03T12:17:31Z</time>
      </trkpt>
      <trkpt lat="48.39948" lon="2.67271">
        <ele>75</ele>
        <time>2021-06-03T12:17:36Z</time>
      </trkpt>
      <trkpt lat="48.39943" lon="2.67275">
        <ele>75</ele>
        <time>2021-06-03T12:17:41Z</time>
      </trkpt>
      <trkpt lat="48.39938" lon="2.67282">
        <ele>75</ele>
        <time>2021-06-03T12:17:46Z</time>
      </trkpt>
      <trkpt lat="48.39933" lon="2.67287">
        <ele>75</ele>
        <time>2021-06-03T12:17:51Z</time>
      </trkpt>
      <trkpt lat="48.39928" lon="2.6729">
        <ele>75</ele>
        <time>2021-06-03T12:17:56Z</time>
      </trkpt>
      <trkpt lat="48.39923" lon="2.67294">
        <ele>75</ele>
        <time>2021-06-03T12:18:01Z</time>
      </trkpt>
      <trkpt lat="48.39917" lon="2.673">
        <ele>75</ele>
        <time>2021-06-03T12:18:06Z</time>
      </trkpt>
      <trkpt lat="48.39913" lon="2.67306">
        <ele>75</ele>
        <time>2021-06-03T12:18:11Z</time>
      </trkpt>
      <trkpt lat="48.39907" lon="2.67311">
        <ele>75</ele>
        <time>2021-06-03T12:18:16Z</time>
      </trkpt>
      <trkpt lat="48.39902" lon="2.67316">
        <ele>74.800003051758</ele>
        <time>2021-06-03T12:18:21Z</time>
      </trkpt>
      <trkpt lat="48.39897" lon="2.6732">
        <ele>74.800003051758</ele>
        <time>2021-06-03T12:18:26Z</time>
      </trkpt>
      <trkpt lat="48.39891" lon="2.67325">
        <ele>74.800003051758</ele>
        <time>2021-06-03T12:18:31Z</time>
      </trkpt>
      <trkpt lat="48.39886" lon="2.6733">
        <ele>74.800003051758</ele>
        <time>2021-06-03T12:18:36Z</time>
      </trkpt>
      <trkpt lat="48.39881" lon="2.67333">
        <ele>75</ele>
        <time>2021-06-03T12:18:41Z</time>
      </trkpt>
      <trkpt lat="48.39876" lon="2.67337">
        <ele>75.400001525879</ele>
        <time>2021-06-03T12:18:46Z</time>
      </trkpt>
      <trkpt lat="48.39871" lon="2.67341">
        <ele>75.599998474121</ele>
        <time>2021-06-03T12:18:51Z</time>
      </trkpt>
      <trkpt lat="48.39867" lon="2.67345">
        <ele>75.599998474121</ele>
        <time>2021-06-03T12:18:56Z</time>
      </trkpt>
      <trkpt lat="48.39863" lon="2.67349">
        <ele>75.599998474121</ele>
        <time>2021-06-03T12:19:01Z</time>
      </trkpt>
      <trkpt lat="48.39858" lon="2.67352">
        <ele>75.400001525879</ele>
        <time>2021-06-03T12:19:06Z</time>
      </trkpt>
      <trkpt lat="48.39852" lon="2.67357">
        <ele>75</ele>
        <time>2021-06-03T12:19:11Z</time>
      </trkpt>
      <trkpt lat="48.39847" lon="2.6736">
        <ele>75</ele>
        <time>2021-06-03T12:19:16Z</time>
      </trkpt>
      <trkpt lat="48.39842" lon="2.67364">
        <ele>75</ele>
        <time>2021-06-03T12:19:21Z</time>
      </trkpt>
      <trkpt lat="48.39838" lon="2.67369">
        <ele>75</ele>
        <time>2021-06-03T12:19:26Z</time>
      </trkpt>
      <trkpt lat="48.39832" lon="2.67374">
        <ele>75</ele>
        <time>2021-06-03T12:19:31Z</time>
      </trkpt>
      <trkpt lat="48.39828" lon="2.67379">
        <ele>75</ele>
        <time>2021-06-03T12:19:36Z</time>
      </trkpt>
      <trkpt lat="48.39823" lon="2.67385">
        <ele>75</ele>
        <time>2021-06-03T12:19:41Z</time>
      </trkpt>
      <trkpt lat="48.39819" lon="2.67393">
        <ele>75</ele>
        <time>2021-06-03T12:19:46Z</time>
      </trkpt>
      <trkpt lat="48.39816" lon="2.67401">
        <ele>75</ele>
        <time>2021-06-03T12:19:51Z</time>
      </trkpt>
      <trkpt lat="48.39814" lon="2.67407">
        <ele>74.800003051758</ele>
        <time>2021-06-03T12:19:56Z</time>
      </trkpt>
      <trkpt lat="48.39811" lon="2.67417">
        <ele>74.800003051758</ele>
        <time>2021-06-03T12:20:01Z</time>
      </trkpt>
      <trkpt lat="48.39808" lon="2.67422">
        <ele>74.800003051758</ele>
        <time>2021-06-03T12:20:06Z</time>
      </trkpt>
      <trkpt lat="48.39802" lon="2.67425">
        <ele>74.800003051758</ele>
        <time>2021-06-03T12:20:11Z</time>
      </trkpt>
      <trkpt lat="48.39796" lon="2.67423">
        <ele>75</ele>
        <time>2021-06-03T12:20:16Z</time>
      </trkpt>
      <trkpt lat="48.3979" lon="2.67421">
        <ele>75</ele>
        <time>2021-06-03T12:20:21Z</time>
      </trkpt>
      <trkpt lat="48.39784" lon="2.67419">
        <ele>75</ele>
        <time>2021-06-03T12:20:26Z</time>
      </trkpt>
      <trkpt lat="48.39778" lon="2.6742">
        <ele>75</ele>
        <time>2021-06-03T12:20:31Z</time>
      </trkpt>
      <trkpt lat="48.39774" lon="2.67415">
        <ele>75</ele>
        <time>2021-06-03T12:20:36Z</time>
      </trkpt>
      <trkpt lat="48.39769" lon="2.67413">
        <ele>75</ele>
        <time>2021-06-03T12:20:41Z</time>
      </trkpt>
      <trkpt lat="48.39763" lon="2.67411">
        <ele>75.199996948242</ele>
        <time>2021-06-03T12:20:46Z</time>
      </trkpt>
      <trkpt lat="48.39757" lon="2.67409">
        <ele>75.400001525879</ele>
        <time>2021-06-03T12:20:51Z</time>
      </trkpt>
      <trkpt lat="48.39751" lon="2.67408">
        <ele>75.599998474121</ele>
        <time>2021-06-03T12:20:56Z</time>
      </trkpt>
      <trkpt lat="48.39745" lon="2.67406">
        <ele>75.800003051758</ele>
        <time>2021-06-03T12:21:01Z</time>
      </trkpt>
      <trkpt lat="48.39738" lon="2.67406">
        <ele>76</ele>
        <time>2021-06-03T12:21:06Z</time>
      </trkpt>
      <trkpt lat="48.39733" lon="2.67403">
        <ele>76.400001525879</ele>
        <time>2021-06-03T12:21:11Z</time>
      </trkpt>
      <trkpt lat="48.39727" lon="2.67399">
        <ele>77</ele>
        <time>2021-06-03T12:21:16Z</time>
      </trkpt>
      <trkpt lat="48.39721" lon="2.67399">
        <ele>77.400001525879</ele>
        <time>2021-06-03T12:21:21Z</time>
      </trkpt>
      <trkpt lat="48.39717" lon="2.67397">
        <ele>77.800003051758</ele>
        <time>2021-06-03T12:21:26Z</time>
      </trkpt>
      <trkpt lat="48.3971" lon="2.67396">
        <ele>78.199996948242</ele>
        <time>2021-06-03T12:21:31Z</time>
      </trkpt>
      <trkpt lat="48.39703" lon="2.67393">
        <ele>78.800003051758</ele>
        <time>2021-06-03T12:21:36Z</time>
      </trkpt>
      <trkpt lat="48.39697" lon="2.6739">
        <ele>79.199996948242</ele>
        <time>2021-06-03T12:21:41Z</time>
      </trkpt>
      <trkpt lat="48.39693" lon="2.67388">
        <ele>79.800003051758</ele>
        <time>2021-06-03T12:21:46Z</time>
      </trkpt>
      <trkpt lat="48.39689" lon="2.67386">
        <ele>80.800003051758</ele>
        <time>2021-06-03T12:21:51Z</time>
      </trkpt>
      <trkpt lat="48.39683" lon="2.67384">
        <ele>81.400001525879</ele>
        <time>2021-06-03T12:21:56Z</time>
      </trkpt>
      <trkpt lat="48.39679" lon="2.67382">
        <ele>82.400001525879</ele>
        <time>2021-06-03T12:22:01Z</time>
      </trkpt>
      <trkpt lat="48.39674" lon="2.67379">
        <ele>83.199996948242</ele>
        <time>2021-06-03T12:22:06Z</time>
      </trkpt>
      <trkpt lat="48.39668" lon="2.67377">
        <ele>84.199996948242</ele>
        <time>2021-06-03T12:22:11Z</time>
      </trkpt>
      <trkpt lat="48.39663" lon="2.67375">
        <ele>84.800003051758</ele>
        <time>2021-06-03T12:22:16Z</time>
      </trkpt>
      <trkpt lat="48.39657" lon="2.67374">
        <ele>85.599998474121</ele>
        <time>2021-06-03T12:22:21Z</time>
      </trkpt>
      <trkpt lat="48.39652" lon="2.67372">
        <ele>86.400001525879</ele>
        <time>2021-06-03T12:22:26Z</time>
      </trkpt>
      <trkpt lat="48.39646" lon="2.67368">
        <ele>87</ele>
        <time>2021-06-03T12:22:31Z</time>
      </trkpt>
      <trkpt lat="48.39641" lon="2.67365">
        <ele>87.599998474121</ele>
        <time>2021-06-03T12:22:36Z</time>
      </trkpt>
      <trkpt lat="48.39635" lon="2.67364">
        <ele>88.199996948242</ele>
        <time>2021-06-03T12:22:41Z</time>
      </trkpt>
      <trkpt lat="48.39629" lon="2.67364">
        <ele>88.400001525879</ele>
        <time>2021-06-03T12:22:46Z</time>
      </trkpt>
      <trkpt lat="48.39627" lon="2.67362">
        <ele>88.800003051758</ele>
        <time>2021-06-03T12:22:51Z</time>
      </trkpt>
      <trkpt lat="48.39622" lon="2.67359">
        <ele>88.800003051758</ele>
        <time>2021-06-03T12:22:56Z</time>
      </trkpt>
      <trkpt lat="48.39619" lon="2.67355">
        <ele>89.199996948242</ele>
        <time>2021-06-03T12:23:01Z</time>
      </trkpt>
      <trkpt lat="48.39616" lon="2.67351">
        <ele>89.199996948242</ele>
        <time>2021-06-03T12:23:06Z</time>
      </trkpt>
      <trkpt lat="48.39615" lon="2.67347">
        <ele>89</ele>
        <time>2021-06-03T12:23:11Z</time>
      </trkpt>
      <trkpt lat="48.39612" lon="2.67343">
        <ele>88.800003051758</ele>
        <time>2021-06-03T12:23:16Z</time>
      </trkpt>
      <trkpt lat="48.3961" lon="2.67338">
        <ele>88.599998474121</ele>
        <time>2021-06-03T12:23:21Z</time>
      </trkpt>
      <trkpt lat="48.39608" lon="2.6733">
        <ele>88.400001525879</ele>
        <time>2021-06-03T12:23:26Z</time>
      </trkpt>
      <trkpt lat="48.39605" lon="2.67324">
        <ele>88.199996948242</ele>
        <time>2021-06-03T12:23:31Z</time>
      </trkpt>
      <trkpt lat="48.39602" lon="2.67319">
        <ele>87.800003051758</ele>
        <time>2021-06-03T12:23:36Z</time>
      </trkpt>
      <trkpt lat="48.39599" lon="2.67312">
        <ele>87.599998474121</ele>
        <time>2021-06-03T12:23:41Z</time>
      </trkpt>
      <trkpt lat="48.39597" lon="2.67306">
        <ele>87.199996948242</ele>
        <time>2021-06-03T12:23:46Z</time>
      </trkpt>
      <trkpt lat="48.39595" lon="2.67301">
        <ele>87</ele>
        <time>2021-06-03T12:23:51Z</time>
      </trkpt>
      <trkpt lat="48.39593" lon="2.67293">
        <ele>86.800003051758</ele>
        <time>2021-06-03T12:23:56Z</time>
      </trkpt>
      <trkpt lat="48.3959" lon="2.67287">
        <ele>86.599998474121</ele>
        <time>2021-06-03T12:24:01Z</time>
      </trkpt>
      <trkpt lat="48.39587" lon="2.6728">
        <ele>86.400001525879</ele>
        <time>2021-06-03T12:24:06Z</time>
      </trkpt>
      <trkpt lat="48.39584" lon="2.67274">
        <ele>86</ele>
        <time>2021-06-03T12:24:11Z</time>
      </trkpt>
      <trkpt lat="48.39582" lon="2.67268">
        <ele>85.800003051758</ele>
        <time>2021-06-03T12:24:16Z</time>
      </trkpt>
      <trkpt lat="48.39578" lon="2.67259">
        <ele>85.599998474121</ele>
        <time>2021-06-03T12:24:21Z</time>
      </trkpt>
      <trkpt lat="48.39576" lon="2.67252">
        <ele>85.599998474121</ele>
        <time>2021-06-03T12:24:26Z</time>
      </trkpt>
      <trkpt lat="48.39573" lon="2.67244">
        <ele>85.400001525879</ele>
        <time>2021-06-03T12:24:31Z</time>
      </trkpt>
      <trkpt lat="48.3957" lon="2.67236">
        <ele>85.400001525879</ele>
        <time>2021-06-03T12:24:36Z</time>
      </trkpt>
      <trkpt lat="48.39567" lon="2.67228">
        <ele>85.199996948242</ele>
        <time>2021-06-03T12:24:41Z</time>
      </trkpt>
      <trkpt lat="48.39565" lon="2.67222">
        <ele>85</ele>
        <time>2021-06-03T12:24:46Z</time>
      </trkpt>
      <trkpt lat="48.39564" lon="2.67215">
        <ele>84.599998474121</ele>
        <time>2021-06-03T12:24:51Z</time>
      </trkpt>
      <trkpt lat="48.39561" lon="2.67208">
        <ele>84.199996948242</ele>
        <time>2021-06-03T12:24:56Z</time>
      </trkpt>
      <trkpt lat="48.39557" lon="2.67201">
        <ele>83.800003051758</ele>
        <time>2021-06-03T12:25:01Z</time>
      </trkpt>
      <trkpt lat="48.39552" lon="2.67192">
        <ele>83.599998474121</ele>
        <time>2021-06-03T12:25:06Z</time>
      </trkpt>
      <trkpt lat="48.39549" lon="2.67187">
        <ele>83</ele>
        <time>2021-06-03T12:25:11Z</time>
      </trkpt>
      <trkpt lat="48.39546" lon="2.6718">
        <ele>82.199996948242</ele>
        <time>2021-06-03T12:25:16Z</time>
      </trkpt>
      <trkpt lat="48.39544" lon="2.67175">
        <ele>81.800003051758</ele>
        <time>2021-06-03T12:25:21Z</time>
      </trkpt>
      <trkpt lat="48.39542" lon="2.67169">
        <ele>81.400001525879</ele>
        <time>2021-06-03T12:25:26Z</time>
      </trkpt>
      <trkpt lat="48.39538" lon="2.67163">
        <ele>80.599998474121</ele>
        <time>2021-06-03T12:25:31Z</time>
      </trkpt>
      <trkpt lat="48.39535" lon="2.67155">
        <ele>80.199996948242</ele>
        <time>2021-06-03T12:25:36Z</time>
      </trkpt>
      <trkpt lat="48.39535" lon="2.67148">
        <ele>79.800003051758</ele>
        <time>2021-06-03T12:25:41Z</time>
      </trkpt>
      <trkpt lat="48.39537" lon="2.67139">
        <ele>79.599998474121</ele>
        <time>2021-06-03T12:25:46Z</time>
      </trkpt>
      <trkpt lat="48.39537" lon="2.67129">
        <ele>79.199996948242</ele>
        <time>2021-06-03T12:25:51Z</time>
      </trkpt>
      <trkpt lat="48.39536" lon="2.67118">
        <ele>79.199996948242</ele>
        <time>2021-06-03T12:25:56Z</time>
      </trkpt>
      <trkpt lat="48.39535" lon="2.6711">
        <ele>79.199996948242</ele>
        <time>2021-06-03T12:26:01Z</time>
      </trkpt>
      <trkpt lat="48.39534" lon="2.671">
        <ele>79.400001525879</ele>
        <time>2021-06-03T12:26:06Z</time>
      </trkpt>
      <trkpt lat="48.39534" lon="2.67092">
        <ele>79.400001525879</ele>
        <time>2021-06-03T12:26:11Z</time>
      </trkpt>
      <trkpt lat="48.39534" lon="2.67083">
        <ele>79.400001525879</ele>
        <time>2021-06-03T12:26:16Z</time>
      </trkpt>
      <trkpt lat="48.39535" lon="2.67075">
        <ele>79.599998474121</ele>
        <time>2021-06-03T12:26:21Z</time>
      </trkpt>
      <trkpt lat="48.39537" lon="2.67068">
        <ele>79.800003051758</ele>
        <time>2021-06-03T12:26:26Z</time>
      </trkpt>
      <trkpt lat="48.39539" lon="2.67059">
        <ele>80</ele>
        <time>2021-06-03T12:26:31Z</time>
      </trkpt>
      <trkpt lat="48.39539" lon="2.67049">
        <ele>80.199996948242</ele>
        <time>2021-06-03T12:26:36Z</time>
      </trkpt>
      <trkpt lat="48.3954" lon="2.6704">
        <ele>80.599998474121</ele>
        <time>2021-06-03T12:26:41Z</time>
      </trkpt>
      <trkpt lat="48.39541" lon="2.67032">
        <ele>80.599998474121</ele>
        <time>2021-06-03T12:26:46Z</time>
      </trkpt>
      <trkpt lat="48.39542" lon="2.67024">
        <ele>80.599998474121</ele>
        <time>2021-06-03T12:26:51Z</time>
      </trkpt>
      <trkpt lat="48.39543" lon="2.67017">
        <ele>80.599998474121</ele>
        <time>2021-06-03T12:26:56Z</time>
      </trkpt>
      <trkpt lat="48.39545" lon="2.67009">
        <ele>80.599998474121</ele>
        <time>2021-06-03T12:27:01Z</time>
      </trkpt>
      <trkpt lat="48.39545" lon="2.67">
        <ele>80.599998474121</ele>
        <time>2021-06-03T12:27:06Z</time>
      </trkpt>
      <trkpt lat="48.39545" lon="2.6699">
        <ele>80.400001525879</ele>
        <time>2021-06-03T12:27:11Z</time>
      </trkpt>
      <trkpt lat="48.39547" lon="2.66984">
        <ele>80.400001525879</ele>
        <time>2021-06-03T12:27:16Z</time>
      </trkpt>
      <trkpt lat="48.39548" lon="2.66978">
        <ele>80.599998474121</ele>
        <time>2021-06-03T12:27:21Z</time>
      </trkpt>
      <trkpt lat="48.39549" lon="2.66968">
        <ele>80.800003051758</ele>
        <time>2021-06-03T12:27:26Z</time>
      </trkpt>
      <trkpt lat="48.39551" lon="2.66958">
        <ele>81</ele>
        <time>2021-06-03T12:27:31Z</time>
      </trkpt>
      <trkpt lat="48.39552" lon="2.6695">
        <ele>81</ele>
        <time>2021-06-03T12:27:36Z</time>
      </trkpt>
      <trkpt lat="48.39552" lon="2.66943">
        <ele>81.199996948242</ele>
        <time>2021-06-03T12:27:41Z</time>
      </trkpt>
      <trkpt lat="48.39552" lon="2.66935">
        <ele>81.400001525879</ele>
        <time>2021-06-03T12:27:46Z</time>
      </trkpt>
      <trkpt lat="48.3955" lon="2.66926">
        <ele>81.599998474121</ele>
        <time>2021-06-03T12:27:51Z</time>
      </trkpt>
      <trkpt lat="48.3955" lon="2.66919">
        <ele>81.800003051758</ele>
        <time>2021-06-03T12:27:56Z</time>
      </trkpt>
      <trkpt lat="48.39549" lon="2.66912">
        <ele>82.199996948242</ele>
        <time>2021-06-03T12:28:01Z</time>
      </trkpt>
      <trkpt lat="48.39549" lon="2.66905">
        <ele>82.599998474121</ele>
        <time>2021-06-03T12:28:06Z</time>
      </trkpt>
      <trkpt lat="48.39549" lon="2.66898">
        <ele>83</ele>
        <time>2021-06-03T12:28:11Z</time>
      </trkpt>
      <trkpt lat="48.39548" lon="2.66888">
        <ele>83.400001525879</ele>
        <time>2021-06-03T12:28:16Z</time>
      </trkpt>
      <trkpt lat="48.39549" lon="2.6688">
        <ele>83.599998474121</ele>
        <time>2021-06-03T12:28:21Z</time>
      </trkpt>
      <trkpt lat="48.3955" lon="2.6687">
        <ele>83.800003051758</ele>
        <time>2021-06-03T12:28:26Z</time>
      </trkpt>
      <trkpt lat="48.39552" lon="2.66863">
        <ele>84</ele>
        <time>2021-06-03T12:28:31Z</time>
      </trkpt>
      <trkpt lat="48.39552" lon="2.66855">
        <ele>84.199996948242</ele>
        <time>2021-06-03T12:28:36Z</time>
      </trkpt>
      <trkpt lat="48.39554" lon="2.66847">
        <ele>84.199996948242</ele>
        <time>2021-06-03T12:28:41Z</time>
      </trkpt>
      <trkpt lat="48.39556" lon="2.66838">
        <ele>84.199996948242</ele>
        <time>2021-06-03T12:28:46Z</time>
      </trkpt>
      <trkpt lat="48.39558" lon="2.66831">
        <ele>84.199996948242</ele>
        <time>2021-06-03T12:28:51Z</time>
      </trkpt>
      <trkpt lat="48.39558" lon="2.66822">
        <ele>84</ele>
        <time>2021-06-03T12:28:56Z</time>
      </trkpt>
      <trkpt lat="48.39558" lon="2.66815">
        <ele>84</ele>
        <time>2021-06-03T12:29:01Z</time>
      </trkpt>
      <trkpt lat="48.39559" lon="2.66809">
        <ele>83.800003051758</ele>
        <time>2021-06-03T12:29:06Z</time>
      </trkpt>
      <trkpt lat="48.39559" lon="2.668">
        <ele>83.800003051758</ele>
        <time>2021-06-03T12:29:11Z</time>
      </trkpt>
      <trkpt lat="48.39562" lon="2.66791">
        <ele>83.599998474121</ele>
        <time>2021-06-03T12:29:16Z</time>
      </trkpt>
      <trkpt lat="48.39562" lon="2.66781">
        <ele>83.599998474121</ele>
        <time>2021-06-03T12:29:21Z</time>
      </trkpt>
      <trkpt lat="48.39563" lon="2.66772">
        <ele>83.400001525879</ele>
        <time>2021-06-03T12:29:26Z</time>
      </trkpt>
      <trkpt lat="48.39566" lon="2.66763">
        <ele>83.400001525879</ele>
        <time>2021-06-03T12:29:31Z</time>
      </trkpt>
      <trkpt lat="48.39567" lon="2.66755">
        <ele>83.400001525879</ele>
        <time>2021-06-03T12:29:36Z</time>
      </trkpt>
      <trkpt lat="48.39569" lon="2.66749">
        <ele>83.199996948242</ele>
        <time>2021-06-03T12:29:41Z</time>
      </trkpt>
      <trkpt lat="48.39571" lon="2.66741">
        <ele>83.199996948242</ele>
        <time>2021-06-03T12:29:46Z</time>
      </trkpt>
      <trkpt lat="48.39572" lon="2.66732">
        <ele>83.199996948242</ele>
        <time>2021-06-03T12:29:51Z</time>
      </trkpt>
      <trkpt lat="48.39573" lon="2.66723">
        <ele>83.199996948242</ele>
        <time>2021-06-03T12:29:56Z</time>
      </trkpt>
      <trkpt lat="48.39574" lon="2.66715">
        <ele>83.199996948242</ele>
        <time>2021-06-03T12:30:01Z</time>
      </trkpt>
      <trkpt lat="48.39574" lon="2.66707">
        <ele>83.400001525879</ele>
        <time>2021-06-03T12:30:06Z</time>
      </trkpt>
      <trkpt lat="48.39575" lon="2.66699">
        <ele>83.199996948242</ele>
        <time>2021-06-03T12:30:11Z</time>
      </trkpt>
      <trkpt lat="48.39576" lon="2.66691">
        <ele>83.199996948242</ele>
        <time>2021-06-03T12:30:16Z</time>
      </trkpt>
      <trkpt lat="48.39577" lon="2.66683">
        <ele>83.199996948242</ele>
        <time>2021-06-03T12:30:21Z</time>
      </trkpt>
      <trkpt lat="48.39579" lon="2.66678">
        <ele>83.199996948242</ele>
        <time>2021-06-03T12:30:26Z</time>
      </trkpt>
      <trkpt lat="48.3958" lon="2.66668">
        <ele>83</ele>
        <time>2021-06-03T12:30:31Z</time>
      </trkpt>
      <trkpt lat="48.3958" lon="2.66657">
        <ele>83</ele>
        <time>2021-06-03T12:30:36Z</time>
      </trkpt>
      <trkpt lat="48.39579" lon="2.66649">
        <ele>82.800003051758</ele>
        <time>2021-06-03T12:30:41Z</time>
      </trkpt>
      <trkpt lat="48.39576" lon="2.66639">
        <ele>82.800003051758</ele>
        <time>2021-06-03T12:30:46Z</time>
      </trkpt>
      <trkpt lat="48.39577" lon="2.66632">
        <ele>82.599998474121</ele>
        <time>2021-06-03T12:30:51Z</time>
      </trkpt>
      <trkpt lat="48.39579" lon="2.66624">
        <ele>82.800003051758</ele>
        <time>2021-06-03T12:30:56Z</time>
      </trkpt>
      <trkpt lat="48.39582" lon="2.66616">
        <ele>83</ele>
        <time>2021-06-03T12:31:02Z</time>
      </trkpt>
      <trkpt lat="48.39581" lon="2.66606">
        <ele>82.800003051758</ele>
        <time>2021-06-03T12:31:07Z</time>
      </trkpt>
      <trkpt lat="48.3958" lon="2.66594">
        <ele>82.599998474121</ele>
        <time>2021-06-03T12:31:12Z</time>
      </trkpt>
      <trkpt lat="48.39579" lon="2.66584">
        <ele>82.800003051758</ele>
        <time>2021-06-03T12:31:17Z</time>
      </trkpt>
      <trkpt lat="48.39579" lon="2.66579">
        <ele>82.800003051758</ele>
        <time>2021-06-03T12:31:22Z</time>
      </trkpt>
      <trkpt lat="48.39578" lon="2.66571">
        <ele>82.800003051758</ele>
        <time>2021-06-03T12:31:27Z</time>
      </trkpt>
      <trkpt lat="48.3958" lon="2.66562">
        <ele>82.800003051758</ele>
        <time>2021-06-03T12:31:32Z</time>
      </trkpt>
      <trkpt lat="48.39579" lon="2.66554">
        <ele>83</ele>
        <time>2021-06-03T12:31:37Z</time>
      </trkpt>
      <trkpt lat="48.39578" lon="2.66544">
        <ele>82.800003051758</ele>
        <time>2021-06-03T12:31:42Z</time>
      </trkpt>
      <trkpt lat="48.39579" lon="2.66537">
        <ele>82.800003051758</ele>
        <time>2021-06-03T12:31:47Z</time>
      </trkpt>
      <trkpt lat="48.39579" lon="2.66531">
        <ele>82.800003051758</ele>
        <time>2021-06-03T12:31:52Z</time>
      </trkpt>
      <trkpt lat="48.3958" lon="2.66524">
        <ele>82.800003051758</ele>
        <time>2021-06-03T12:31:57Z</time>
      </trkpt>
      <trkpt lat="48.3958" lon="2.66515">
        <ele>82.599998474121</ele>
        <time>2021-06-03T12:32:02Z</time>
      </trkpt>
      <trkpt lat="48.3958" lon="2.66505">
        <ele>82.800003051758</ele>
        <time>2021-06-03T12:32:07Z</time>
      </trkpt>
      <trkpt lat="48.39582" lon="2.66498">
        <ele>82.800003051758</ele>
        <time>2021-06-03T12:32:12Z</time>
      </trkpt>
      <trkpt lat="48.39582" lon="2.66489">
        <ele>82.800003051758</ele>
        <time>2021-06-03T12:32:17Z</time>
      </trkpt>
      <trkpt lat="48.39583" lon="2.66481">
        <ele>83</ele>
        <time>2021-06-03T12:32:22Z</time>
      </trkpt>
      <trkpt lat="48.39583" lon="2.66472">
        <ele>83.199996948242</ele>
        <time>2021-06-03T12:32:27Z</time>
      </trkpt>
      <trkpt lat="48.39584" lon="2.66464">
        <ele>83.400001525879</ele>
        <time>2021-06-03T12:32:32Z</time>
      </trkpt>
      <trkpt lat="48.39585" lon="2.66454">
        <ele>83.599998474121</ele>
        <time>2021-06-03T12:32:37Z</time>
      </trkpt>
      <trkpt lat="48.39586" lon="2.66444">
        <ele>83.800003051758</ele>
        <time>2021-06-03T12:32:42Z</time>
      </trkpt>
      <trkpt lat="48.39586" lon="2.66434">
        <ele>84</ele>
        <time>2021-06-03T12:32:47Z</time>
      </trkpt>
      <trkpt lat="48.39587" lon="2.66427">
        <ele>84.199996948242</ele>
        <time>2021-06-03T12:32:52Z</time>
      </trkpt>
      <trkpt lat="48.39589" lon="2.66418">
        <ele>84.400001525879</ele>
        <time>2021-06-03T12:32:57Z</time>
      </trkpt>
      <trkpt lat="48.39591" lon="2.66408">
        <ele>84.599998474121</ele>
        <time>2021-06-03T12:33:02Z</time>
      </trkpt>
      <trkpt lat="48.39593" lon="2.66401">
        <ele>84.800003051758</ele>
        <time>2021-06-03T12:33:07Z</time>
      </trkpt>
      <trkpt lat="48.39595" lon="2.66396">
        <ele>85.199996948242</ele>
        <time>2021-06-03T12:33:12Z</time>
      </trkpt>
      <trkpt lat="48.39599" lon="2.66391">
        <ele>85.599998474121</ele>
        <time>2021-06-03T12:33:17Z</time>
      </trkpt>
      <trkpt lat="48.39601" lon="2.66384">
        <ele>86</ele>
        <time>2021-06-03T12:33:22Z</time>
      </trkpt>
      <trkpt lat="48.39603" lon="2.66376">
        <ele>86.400001525879</ele>
        <time>2021-06-03T12:33:27Z</time>
      </trkpt>
      <trkpt lat="48.39606" lon="2.66368">
        <ele>86.599998474121</ele>
        <time>2021-06-03T12:33:32Z</time>
      </trkpt>
      <trkpt lat="48.3961" lon="2.66361">
        <ele>87</ele>
        <time>2021-06-03T12:33:37Z</time>
      </trkpt>
      <trkpt lat="48.39613" lon="2.66356">
        <ele>87.400001525879</ele>
        <time>2021-06-03T12:33:42Z</time>
      </trkpt>
      <trkpt lat="48.39615" lon="2.66351">
        <ele>87.400001525879</ele>
        <time>2021-06-03T12:33:47Z</time>
      </trkpt>
      <trkpt lat="48.39615" lon="2.66344">
        <ele>87.199996948242</ele>
        <time>2021-06-03T12:33:52Z</time>
      </trkpt>
      <trkpt lat="48.39614" lon="2.66339">
        <ele>87</ele>
        <time>2021-06-03T12:33:57Z</time>
      </trkpt>
      <trkpt lat="48.39613" lon="2.66335">
        <ele>87</ele>
        <time>2021-06-03T12:34:02Z</time>
      </trkpt>
      <trkpt lat="48.3961" lon="2.66327">
        <ele>86.599998474121</ele>
        <time>2021-06-03T12:34:07Z</time>
      </trkpt>
      <trkpt lat="48.39609" lon="2.66323">
        <ele>86.400001525879</ele>
        <time>2021-06-03T12:34:12Z</time>
      </trkpt>
      <trkpt lat="48.39607" lon="2.66316">
        <ele>86.199996948242</ele>
        <time>2021-06-03T12:34:17Z</time>
      </trkpt>
      <trkpt lat="48.39606" lon="2.66309">
        <ele>86</ele>
        <time>2021-06-03T12:34:22Z</time>
      </trkpt>
      <trkpt lat="48.39606" lon="2.663">
        <ele>85.800003051758</ele>
        <time>2021-06-03T12:34:27Z</time>
      </trkpt>
      <trkpt lat="48.39602" lon="2.6629">
        <ele>85.400001525879</ele>
        <time>2021-06-03T12:34:32Z</time>
      </trkpt>
      <trkpt lat="48.396" lon="2.66283">
        <ele>85</ele>
        <time>2021-06-03T12:34:37Z</time>
      </trkpt>
      <trkpt lat="48.39599" lon="2.66276">
        <ele>85</ele>
        <time>2021-06-03T12:34:42Z</time>
      </trkpt>
      <trkpt lat="48.39599" lon="2.6627">
        <ele>84.800003051758</ele>
        <time>2021-06-03T12:34:47Z</time>
      </trkpt>
      <trkpt lat="48.39599" lon="2.66261">
        <ele>84.599998474121</ele>
        <time>2021-06-03T12:34:52Z</time>
      </trkpt>
      <trkpt lat="48.39599" lon="2.66252">
        <ele>84.400001525879</ele>
        <time>2021-06-03T12:34:57Z</time>
      </trkpt>
      <trkpt lat="48.39598" lon="2.66244">
        <ele>84.199996948242</ele>
        <time>2021-06-03T12:35:02Z</time>
      </trkpt>
      <trkpt lat="48.39598" lon="2.66237">
        <ele>84.199996948242</ele>
        <time>2021-06-03T12:35:07Z</time>
      </trkpt>
      <trkpt lat="48.39597" lon="2.66231">
        <ele>84</ele>
        <time>2021-06-03T12:35:12Z</time>
      </trkpt>
      <trkpt lat="48.39597" lon="2.66228">
        <ele>84</ele>
        <time>2021-06-03T12:35:17Z</time>
      </trkpt>
      <trkpt lat="48.39593" lon="2.66217">
        <ele>83.599998474121</ele>
        <time>2021-06-03T12:35:22Z</time>
      </trkpt>
      <trkpt lat="48.39592" lon="2.66208">
        <ele>83.400001525879</ele>
        <time>2021-06-03T12:35:27Z</time>
      </trkpt>
      <trkpt lat="48.39591" lon="2.66199">
        <ele>83.199996948242</ele>
        <time>2021-06-03T12:35:32Z</time>
      </trkpt>
      <trkpt lat="48.39593" lon="2.66189">
        <ele>83</ele>
        <time>2021-06-03T12:35:37Z</time>
      </trkpt>
      <trkpt lat="48.39591" lon="2.6618">
        <ele>82.800003051758</ele>
        <time>2021-06-03T12:35:42Z</time>
      </trkpt>
      <trkpt lat="48.39589" lon="2.66171">
        <ele>82.800003051758</ele>
        <time>2021-06-03T12:35:47Z</time>
      </trkpt>
      <trkpt lat="48.39589" lon="2.66163">
        <ele>82.800003051758</ele>
        <time>2021-06-03T12:35:52Z</time>
      </trkpt>
      <trkpt lat="48.39589" lon="2.66153">
        <ele>82.800003051758</ele>
        <time>2021-06-03T12:35:57Z</time>
      </trkpt>
      <trkpt lat="48.39591" lon="2.66146">
        <ele>82.599998474121</ele>
        <time>2021-06-03T12:36:02Z</time>
      </trkpt>
      <trkpt lat="48.39592" lon="2.66139">
        <ele>82.599998474121</ele>
        <time>2021-06-03T12:36:07Z</time>
      </trkpt>
      <trkpt lat="48.39594" lon="2.6613">
        <ele>82.599998474121</ele>
        <time>2021-06-03T12:36:12Z</time>
      </trkpt>
      <trkpt lat="48.39595" lon="2.6612">
        <ele>82.800003051758</ele>
        <time>2021-06-03T12:36:17Z</time>
      </trkpt>
      <trkpt lat="48.39597" lon="2.66113">
        <ele>82.800003051758</ele>
        <time>2021-06-03T12:36:22Z</time>
      </trkpt>
      <trkpt lat="48.39599" lon="2.66104">
        <ele>83.199996948242</ele>
        <time>2021-06-03T12:36:27Z</time>
      </trkpt>
      <trkpt lat="48.396" lon="2.66095">
        <ele>83.400001525879</ele>
        <time>2021-06-03T12:36:32Z</time>
      </trkpt>
      <trkpt lat="48.396" lon="2.66086">
        <ele>83.599998474121</ele>
        <time>2021-06-03T12:36:37Z</time>
      </trkpt>
      <trkpt lat="48.39602" lon="2.66077">
        <ele>83.599998474121</ele>
        <time>2021-06-03T12:36:42Z</time>
      </trkpt>
      <trkpt lat="48.39603" lon="2.66068">
        <ele>83.599998474121</ele>
        <time>2021-06-03T12:36:47Z</time>
      </trkpt>
      <trkpt lat="48.39606" lon="2.66059">
        <ele>83.599998474121</ele>
        <time>2021-06-03T12:36:52Z</time>
      </trkpt>
      <trkpt lat="48.39609" lon="2.66052">
        <ele>83.400001525879</ele>
        <time>2021-06-03T12:36:57Z</time>
      </trkpt>
      <trkpt lat="48.39611" lon="2.66046">
        <ele>83</ele>
        <time>2021-06-03T12:37:02Z</time>
      </trkpt>
      <trkpt lat="48.39614" lon="2.66039">
        <ele>83</ele>
        <time>2021-06-03T12:37:07Z</time>
      </trkpt>
      <trkpt lat="48.39615" lon="2.66033">
        <ele>82.800003051758</ele>
        <time>2021-06-03T12:37:12Z</time>
      </trkpt>
      <trkpt lat="48.39617" lon="2.66025">
        <ele>82.800003051758</ele>
        <time>2021-06-03T12:37:17Z</time>
      </trkpt>
      <trkpt lat="48.3962" lon="2.66017">
        <ele>82.599998474121</ele>
        <time>2021-06-03T12:37:22Z</time>
      </trkpt>
      <trkpt lat="48.39621" lon="2.66008">
        <ele>82.400001525879</ele>
        <time>2021-06-03T12:37:27Z</time>
      </trkpt>
      <trkpt lat="48.39622" lon="2.65998">
        <ele>82.400001525879</ele>
        <time>2021-06-03T12:37:32Z</time>
      </trkpt>
      <trkpt lat="48.39624" lon="2.65989">
        <ele>82.400001525879</ele>
        <time>2021-06-03T12:37:37Z</time>
      </trkpt>
      <trkpt lat="48.39625" lon="2.65979">
        <ele>82.400001525879</ele>
        <time>2021-06-03T12:37:42Z</time>
      </trkpt>
      <trkpt lat="48.39627" lon="2.65972">
        <ele>82.199996948242</ele>
        <time>2021-06-03T12:37:47Z</time>
      </trkpt>
      <trkpt lat="48.3963" lon="2.65967">
        <ele>82.400001525879</ele>
        <time>2021-06-03T12:37:52Z</time>
      </trkpt>
      <trkpt lat="48.39633" lon="2.6596">
        <ele>82.199996948242</ele>
        <time>2021-06-03T12:37:57Z</time>
      </trkpt>
      <trkpt lat="48.39634" lon="2.65955">
        <ele>82.199996948242</ele>
        <time>2021-06-03T12:38:02Z</time>
      </trkpt>
      <trkpt lat="48.39636" lon="2.65946">
        <ele>82.199996948242</ele>
        <time>2021-06-03T12:38:07Z</time>
      </trkpt>
      <trkpt lat="48.39637" lon="2.65937">
        <ele>82</ele>
        <time>2021-06-03T12:38:12Z</time>
      </trkpt>
      <trkpt lat="48.39639" lon="2.6593">
        <ele>81.800003051758</ele>
        <time>2021-06-03T12:38:17Z</time>
      </trkpt>
      <trkpt lat="48.39642" lon="2.65923">
        <ele>81.800003051758</ele>
        <time>2021-06-03T12:38:22Z</time>
      </trkpt>
      <trkpt lat="48.39645" lon="2.65913">
        <ele>81.599998474121</ele>
        <time>2021-06-03T12:38:27Z</time>
      </trkpt>
      <trkpt lat="48.39649" lon="2.65905">
        <ele>81.800003051758</ele>
        <time>2021-06-03T12:38:32Z</time>
      </trkpt>
      <trkpt lat="48.39652" lon="2.65899">
        <ele>81.800003051758</ele>
        <time>2021-06-03T12:38:37Z</time>
      </trkpt>
      <trkpt lat="48.39657" lon="2.65892">
        <ele>81.800003051758</ele>
        <time>2021-06-03T12:38:42Z</time>
      </trkpt>
      <trkpt lat="48.39662" lon="2.65885">
        <ele>81.800003051758</ele>
        <time>2021-06-03T12:38:47Z</time>
      </trkpt>
      <trkpt lat="48.39665" lon="2.65879">
        <ele>82</ele>
        <time>2021-06-03T12:38:52Z</time>
      </trkpt>
      <trkpt lat="48.39668" lon="2.65874">
        <ele>82.199996948242</ele>
        <time>2021-06-03T12:38:57Z</time>
      </trkpt>
      <trkpt lat="48.39674" lon="2.6587">
        <ele>82.199996948242</ele>
        <time>2021-06-03T12:39:02Z</time>
      </trkpt>
      <trkpt lat="48.39678" lon="2.65863">
        <ele>82.599998474121</ele>
        <time>2021-06-03T12:39:07Z</time>
      </trkpt>
      <trkpt lat="48.39681" lon="2.65856">
        <ele>82.800003051758</ele>
        <time>2021-06-03T12:39:12Z</time>
      </trkpt>
      <trkpt lat="48.39685" lon="2.65851">
        <ele>83.199996948242</ele>
        <time>2021-06-03T12:39:17Z</time>
      </trkpt>
      <trkpt lat="48.39689" lon="2.65846">
        <ele>83.599998474121</ele>
        <time>2021-06-03T12:39:22Z</time>
      </trkpt>
      <trkpt lat="48.39694" lon="2.65842">
        <ele>83.800003051758</ele>
        <time>2021-06-03T12:39:27Z</time>
      </trkpt>
      <trkpt lat="48.39698" lon="2.65838">
        <ele>84.199996948242</ele>
        <time>2021-06-03T12:39:32Z</time>
      </trkpt>
      <trkpt lat="48.39702" lon="2.65833">
        <ele>84.599998474121</ele>
        <time>2021-06-03T12:39:37Z</time>
      </trkpt>
      <trkpt lat="48.39708" lon="2.65831">
        <ele>85</ele>
        <time>2021-06-03T12:39:42Z</time>
      </trkpt>
      <trkpt lat="48.39713" lon="2.65826">
        <ele>85.400001525879</ele>
        <time>2021-06-03T12:39:47Z</time>
      </trkpt>
      <trkpt lat="48.39717" lon="2.65823">
        <ele>86</ele>
        <time>2021-06-03T12:39:52Z</time>
      </trkpt>
      <trkpt lat="48.39721" lon="2.6582">
        <ele>86.400001525879</ele>
        <time>2021-06-03T12:39:57Z</time>
      </trkpt>
      <trkpt lat="48.39726" lon="2.65817">
        <ele>86.800003051758</ele>
        <time>2021-06-03T12:40:02Z</time>
      </trkpt>
      <trkpt lat="48.39731" lon="2.65815">
        <ele>87.400001525879</ele>
        <time>2021-06-03T12:40:07Z</time>
      </trkpt>
      <trkpt lat="48.39736" lon="2.65811">
        <ele>88</ele>
        <time>2021-06-03T12:40:12Z</time>
      </trkpt>
      <trkpt lat="48.39741" lon="2.65807">
        <ele>88</ele>
        <time>2021-06-03T12:40:17Z</time>
      </trkpt>
      <trkpt lat="48.39746" lon="2.65805">
        <ele>87.800003051758</ele>
        <time>2021-06-03T12:40:22Z</time>
      </trkpt>
      <trkpt lat="48.39751" lon="2.65802">
        <ele>87.400001525879</ele>
        <time>2021-06-03T12:40:27Z</time>
      </trkpt>
      <trkpt lat="48.39756" lon="2.658">
        <ele>87.199996948242</ele>
        <time>2021-06-03T12:40:32Z</time>
      </trkpt>
      <trkpt lat="48.3976" lon="2.65795">
        <ele>86.800003051758</ele>
        <time>2021-06-03T12:40:37Z</time>
      </trkpt>
      <trkpt lat="48.39766" lon="2.65791">
        <ele>86.599998474121</ele>
        <time>2021-06-03T12:40:42Z</time>
      </trkpt>
      <trkpt lat="48.39771" lon="2.65787">
        <ele>86.599998474121</ele>
        <time>2021-06-03T12:40:47Z</time>
      </trkpt>
      <trkpt lat="48.39774" lon="2.65781">
        <ele>86.199996948242</ele>
        <time>2021-06-03T12:40:52Z</time>
      </trkpt>
      <trkpt lat="48.39777" lon="2.65775">
        <ele>85.800003051758</ele>
        <time>2021-06-03T12:40:57Z</time>
      </trkpt>
      <trkpt lat="48.39782" lon="2.65769">
        <ele>85.599998474121</ele>
        <time>2021-06-03T12:41:02Z</time>
      </trkpt>
      <trkpt lat="48.39786" lon="2.65764">
        <ele>85.599998474121</ele>
        <time>2021-06-03T12:41:07Z</time>
      </trkpt>
      <trkpt lat="48.39789" lon="2.65759">
        <ele>85.599998474121</ele>
        <time>2021-06-03T12:41:12Z</time>
      </trkpt>
      <trkpt lat="48.39794" lon="2.65751">
        <ele>85.800003051758</ele>
        <time>2021-06-03T12:41:17Z</time>
      </trkpt>
      <trkpt lat="48.39799" lon="2.65747">
        <ele>85.800003051758</ele>
        <time>2021-06-03T12:41:22Z</time>
      </trkpt>
      <trkpt lat="48.39804" lon="2.65743">
        <ele>85.800003051758</ele>
        <time>2021-06-03T12:41:27Z</time>
      </trkpt>
      <trkpt lat="48.39807" lon="2.65738">
        <ele>85.599998474121</ele>
        <time>2021-06-03T12:41:32Z</time>
      </trkpt>
      <trkpt lat="48.39812" lon="2.65734">
        <ele>85.400001525879</ele>
        <time>2021-06-03T12:41:37Z</time>
      </trkpt>
      <trkpt lat="48.39816" lon="2.65729">
        <ele>85.199996948242</ele>
        <time>2021-06-03T12:41:42Z</time>
      </trkpt>
      <trkpt lat="48.39821" lon="2.65724">
        <ele>85</ele>
        <time>2021-06-03T12:41:47Z</time>
      </trkpt>
      <trkpt lat="48.39826" lon="2.65722">
        <ele>84.800003051758</ele>
        <time>2021-06-03T12:41:52Z</time>
      </trkpt>
      <trkpt lat="48.3983" lon="2.65717">
        <ele>84.599998474121</ele>
        <time>2021-06-03T12:41:57Z</time>
      </trkpt>
      <trkpt lat="48.39836" lon="2.65714">
        <ele>84.400001525879</ele>
        <time>2021-06-03T12:42:02Z</time>
      </trkpt>
      <trkpt lat="48.3984" lon="2.65713">
        <ele>84.400001525879</ele>
        <time>2021-06-03T12:42:07Z</time>
      </trkpt>
      <trkpt lat="48.39841" lon="2.65712">
        <ele>84.400001525879</ele>
        <time>2021-06-03T12:42:12Z</time>
      </trkpt>
      <trkpt lat="48.39841" lon="2.65712">
        <ele>84.400001525879</ele>
        <time>2021-06-03T12:42:17Z</time>
      </trkpt>
      <trkpt lat="48.3984" lon="2.6571">
        <ele>84.400001525879</ele>
        <time>2021-06-03T12:42:22Z</time>
      </trkpt>
      <trkpt lat="48.3984" lon="2.65709">
        <ele>84.400001525879</ele>
        <time>2021-06-03T12:42:26Z</time>
      </trkpt>
      <trkpt lat="48.39839" lon="2.65707">
        <ele>84.400001525879</ele>
        <time>2021-06-03T12:42:31Z</time>
      </trkpt>
      <trkpt lat="48.39838" lon="2.65706">
        <ele>84.400001525879</ele>
        <time>2021-06-03T12:42:36Z</time>
      </trkpt>
      <trkpt lat="48.39837" lon="2.65704">
        <ele>84.400001525879</ele>
        <time>2021-06-03T12:42:41Z</time>
      </trkpt>
      <trkpt lat="48.39835" lon="2.65701">
        <ele>84.400001525879</ele>
        <time>2021-06-03T12:42:46Z</time>
      </trkpt>
      <trkpt lat="48.39832" lon="2.65701">
        <ele>84.400001525879</ele>
        <time>2021-06-03T12:42:51Z</time>
      </trkpt>
      <trkpt lat="48.3983" lon="2.65701">
        <ele>84.400001525879</ele>
        <time>2021-06-03T12:42:56Z</time>
      </trkpt>
      <trkpt lat="48.39829" lon="2.65701">
        <ele>84.400001525879</ele>
        <time>2021-06-03T12:43:01Z</time>
      </trkpt>
      <trkpt lat="48.39829" lon="2.657">
        <ele>84.400001525879</ele>
        <time>2021-06-03T12:43:06Z</time>
      </trkpt>
      <trkpt lat="48.39828" lon="2.65699">
        <ele>84.400001525879</ele>
        <time>2021-06-03T12:43:11Z</time>
      </trkpt>
      <trkpt lat="48.39828" lon="2.65703">
        <ele>84.400001525879</ele>
        <time>2021-06-03T12:43:16Z</time>
      </trkpt>
      <trkpt lat="48.39827" lon="2.65704">
        <ele>84.400001525879</ele>
        <time>2021-06-03T12:43:21Z</time>
      </trkpt>
      <trkpt lat="48.39828" lon="2.65704">
        <ele>84.400001525879</ele>
        <time>2021-06-03T12:43:26Z</time>
      </trkpt>
      <trkpt lat="48.39828" lon="2.65705">
        <ele>84.400001525879</ele>
        <time>2021-06-03T12:43:31Z</time>
      </trkpt>
      <trkpt lat="48.39831" lon="2.65708">
        <ele>84.400001525879</ele>
        <time>2021-06-03T12:43:36Z</time>
      </trkpt>
      <trkpt lat="48.39831" lon="2.6571">
        <ele>84.400001525879</ele>
        <time>2021-06-03T12:43:41Z</time>
      </trkpt>
      <trkpt lat="48.39833" lon="2.65711">
        <ele>84.400001525879</ele>
        <time>2021-06-03T12:43:46Z</time>
      </trkpt>
      <trkpt lat="48.39835" lon="2.65713">
        <ele>84.400001525879</ele>
        <time>2021-06-03T12:43:51Z</time>
      </trkpt>
      <trkpt lat="48.39835" lon="2.65715">
        <ele>84.400001525879</ele>
        <time>2021-06-03T12:43:56Z</time>
      </trkpt>
      <trkpt lat="48.39837" lon="2.65718">
        <ele>84.400001525879</ele>
        <time>2021-06-03T12:44:01Z</time>
      </trkpt>
      <trkpt lat="48.39837" lon="2.65719">
        <ele>84.400001525879</ele>
        <time>2021-06-03T12:44:06Z</time>
      </trkpt>
      <trkpt lat="48.39838" lon="2.65721">
        <ele>84.400001525879</ele>
        <time>2021-06-03T12:44:11Z</time>
      </trkpt>
      <trkpt lat="48.39837" lon="2.65722">
        <ele>84.400001525879</ele>
        <time>2021-06-03T12:44:16Z</time>
      </trkpt>
      <trkpt lat="48.39836" lon="2.65721">
        <ele>84.400001525879</ele>
        <time>2021-06-03T12:44:21Z</time>
      </trkpt>
      <trkpt lat="48.39836" lon="2.6572">
        <ele>84.400001525879</ele>
        <time>2021-06-03T12:44:26Z</time>
      </trkpt>
      <trkpt lat="48.39838" lon="2.6572">
        <ele>84.400001525879</ele>
        <time>2021-06-03T12:44:31Z</time>
      </trkpt>
      <trkpt lat="48.39839" lon="2.6572">
        <ele>84.400001525879</ele>
        <time>2021-06-03T12:44:36Z</time>
      </trkpt>
      <trkpt lat="48.3984" lon="2.6572">
        <ele>84.400001525879</ele>
        <time>2021-06-03T12:44:41Z</time>
      </trkpt>
      <trkpt lat="48.39842" lon="2.6572">
        <ele>84.400001525879</ele>
        <time>2021-06-03T12:44:46Z</time>
      </trkpt>
      <trkpt lat="48.39842" lon="2.6572">
        <ele>84.400001525879</ele>
        <time>2021-06-03T12:44:51Z</time>
      </trkpt>
      <trkpt lat="48.39842" lon="2.6572">
        <ele>84.400001525879</ele>
        <time>2021-06-03T12:44:56Z</time>
      </trkpt>
      <trkpt lat="48.39841" lon="2.65719">
        <ele>84.400001525879</ele>
        <time>2021-06-03T12:45:01Z</time>
      </trkpt>
      <trkpt lat="48.39841" lon="2.65719">
        <ele>84.400001525879</ele>
        <time>2021-06-03T12:45:06Z</time>
      </trkpt>
      <trkpt lat="48.39841" lon="2.65718">
        <ele>84.400001525879</ele>
        <time>2021-06-03T12:45:11Z</time>
      </trkpt>
      <trkpt lat="48.39841" lon="2.65717">
        <ele>84.400001525879</ele>
        <time>2021-06-03T12:45:16Z</time>
      </trkpt>
      <trkpt lat="48.3984" lon="2.65714">
        <ele>84.400001525879</ele>
        <time>2021-06-03T12:45:21Z</time>
      </trkpt>
      <trkpt lat="48.39839" lon="2.65712">
        <ele>84.400001525879</ele>
        <time>2021-06-03T12:45:26Z</time>
      </trkpt>
      <trkpt lat="48.39838" lon="2.65712">
        <ele>84.400001525879</ele>
        <time>2021-06-03T12:45:31Z</time>
      </trkpt>
      <trkpt lat="48.39838" lon="2.65712">
        <ele>84.400001525879</ele>
        <time>2021-06-03T12:45:36Z</time>
      </trkpt>
      <trkpt lat="48.39838" lon="2.65711">
        <ele>84.400001525879</ele>
        <time>2021-06-03T12:45:41Z</time>
      </trkpt>
      <trkpt lat="48.39838" lon="2.65712">
        <ele>84.400001525879</ele>
        <time>2021-06-03T12:45:46Z</time>
      </trkpt>
      <trkpt lat="48.39838" lon="2.65714">
        <ele>84.400001525879</ele>
        <time>2021-06-03T12:45:51Z</time>
      </trkpt>
      <trkpt lat="48.39838" lon="2.65714">
        <ele>84.400001525879</ele>
        <time>2021-06-03T12:45:56Z</time>
      </trkpt>
      <trkpt lat="48.39838" lon="2.65714">
        <ele>84.400001525879</ele>
        <time>2021-06-03T12:46:01Z</time>
      </trkpt>
      <trkpt lat="48.39838" lon="2.65713">
        <ele>84.400001525879</ele>
        <time>2021-06-03T12:46:06Z</time>
      </trkpt>
      <trkpt lat="48.39838" lon="2.65711">
        <ele>84.400001525879</ele>
        <time>2021-06-03T12:46:11Z</time>
      </trkpt>
      <trkpt lat="48.39838" lon="2.65709">
        <ele>84.400001525879</ele>
        <time>2021-06-03T12:46:16Z</time>
      </trkpt>
      <trkpt lat="48.39837" lon="2.65709">
        <ele>84.400001525879</ele>
        <time>2021-06-03T12:46:21Z</time>
      </trkpt>
      <trkpt lat="48.39837" lon="2.6571">
        <ele>84.400001525879</ele>
        <time>2021-06-03T12:46:26Z</time>
      </trkpt>
      <trkpt lat="48.39838" lon="2.65713">
        <ele>84.400001525879</ele>
        <time>2021-06-03T12:46:31Z</time>
      </trkpt>
      <trkpt lat="48.39839" lon="2.65713">
        <ele>84.400001525879</ele>
        <time>2021-06-03T12:46:36Z</time>
      </trkpt>
      <trkpt lat="48.39838" lon="2.65713">
        <ele>84.400001525879</ele>
        <time>2021-06-03T12:46:41Z</time>
      </trkpt>
      <trkpt lat="48.39838" lon="2.65714">
        <ele>84.400001525879</ele>
        <time>2021-06-03T12:46:46Z</time>
      </trkpt>
      <trkpt lat="48.39838" lon="2.65716">
        <ele>84.400001525879</ele>
        <time>2021-06-03T12:46:51Z</time>
      </trkpt>
      <trkpt lat="48.39838" lon="2.65715">
        <ele>84.400001525879</ele>
        <time>2021-06-03T12:46:56Z</time>
      </trkpt>
      <trkpt lat="48.39838" lon="2.65715">
        <ele>84.400001525879</ele>
        <time>2021-06-03T12:47:01Z</time>
      </trkpt>
      <trkpt lat="48.39837" lon="2.65715">
        <ele>84.400001525879</ele>
        <time>2021-06-03T12:47:06Z</time>
      </trkpt>
      <trkpt lat="48.39838" lon="2.65715">
        <ele>84.400001525879</ele>
        <time>2021-06-03T12:47:11Z</time>
      </trkpt>
      <trkpt lat="48.39839" lon="2.65715">
        <ele>84.400001525879</ele>
        <time>2021-06-03T12:47:16Z</time>
      </trkpt>
      <trkpt lat="48.39841" lon="2.65715">
        <ele>84.400001525879</ele>
        <time>2021-06-03T12:47:21Z</time>
      </trkpt>
      <trkpt lat="48.39841" lon="2.65714">
        <ele>84.400001525879</ele>
        <time>2021-06-03T12:47:26Z</time>
      </trkpt>
      <trkpt lat="48.39841" lon="2.65714">
        <ele>84.400001525879</ele>
        <time>2021-06-03T12:47:31Z</time>
      </trkpt>
      <trkpt lat="48.39841" lon="2.65714">
        <ele>84.400001525879</ele>
        <time>2021-06-03T12:47:36Z</time>
      </trkpt>
      <trkpt lat="48.39842" lon="2.65714">
        <ele>84.400001525879</ele>
        <time>2021-06-03T12:47:41Z</time>
      </trkpt>
      <trkpt lat="48.39842" lon="2.65712">
        <ele>84.400001525879</ele>
        <time>2021-06-03T12:47:46Z</time>
      </trkpt>
      <trkpt lat="48.39841" lon="2.65707">
        <ele>84.400001525879</ele>
        <time>2021-06-03T12:47:51Z</time>
      </trkpt>
      <trkpt lat="48.39843" lon="2.657">
        <ele>84.400001525879</ele>
        <time>2021-06-03T12:47:56Z</time>
      </trkpt>
      <trkpt lat="48.39846" lon="2.65694">
        <ele>84.400001525879</ele>
        <time>2021-06-03T12:48:01Z</time>
      </trkpt>
      <trkpt lat="48.39848" lon="2.65686">
        <ele>84.400001525879</ele>
        <time>2021-06-03T12:48:06Z</time>
      </trkpt>
      <trkpt lat="48.3985" lon="2.65681">
        <ele>82.400001525879</ele>
        <time>2021-06-03T12:48:11Z</time>
      </trkpt>
      <trkpt lat="48.39852" lon="2.65675">
        <ele>82</ele>
        <time>2021-06-03T12:48:16Z</time>
      </trkpt>
      <trkpt lat="48.39855" lon="2.65667">
        <ele>82</ele>
        <time>2021-06-03T12:48:21Z</time>
      </trkpt>
      <trkpt lat="48.39857" lon="2.65661">
        <ele>82.199996948242</ele>
        <time>2021-06-03T12:48:26Z</time>
      </trkpt>
      <trkpt lat="48.39859" lon="2.65654">
        <ele>82.400001525879</ele>
        <time>2021-06-03T12:48:31Z</time>
      </trkpt>
      <trkpt lat="48.39862" lon="2.65646">
        <ele>82.599998474121</ele>
        <time>2021-06-03T12:48:36Z</time>
      </trkpt>
      <trkpt lat="48.39864" lon="2.6564">
        <ele>82.800003051758</ele>
        <time>2021-06-03T12:48:41Z</time>
      </trkpt>
      <trkpt lat="48.39866" lon="2.65633">
        <ele>83</ele>
        <time>2021-06-03T12:48:46Z</time>
      </trkpt>
      <trkpt lat="48.39869" lon="2.65625">
        <ele>83.400001525879</ele>
        <time>2021-06-03T12:48:51Z</time>
      </trkpt>
      <trkpt lat="48.39871" lon="2.65616">
        <ele>83.599998474121</ele>
        <time>2021-06-03T12:48:56Z</time>
      </trkpt>
      <trkpt lat="48.39871" lon="2.65609">
        <ele>84</ele>
        <time>2021-06-03T12:49:01Z</time>
      </trkpt>
      <trkpt lat="48.39871" lon="2.65599">
        <ele>84.199996948242</ele>
        <time>2021-06-03T12:49:06Z</time>
      </trkpt>
      <trkpt lat="48.39873" lon="2.6559">
        <ele>84.400001525879</ele>
        <time>2021-06-03T12:49:11Z</time>
      </trkpt>
      <trkpt lat="48.39875" lon="2.65584">
        <ele>84.800003051758</ele>
        <time>2021-06-03T12:49:16Z</time>
      </trkpt>
      <trkpt lat="48.39877" lon="2.65577">
        <ele>85.199996948242</ele>
        <time>2021-06-03T12:49:21Z</time>
      </trkpt>
      <trkpt lat="48.39879" lon="2.65569">
        <ele>85.400001525879</ele>
        <time>2021-06-03T12:49:26Z</time>
      </trkpt>
      <trkpt lat="48.39881" lon="2.65562">
        <ele>85.800003051758</ele>
        <time>2021-06-03T12:49:31Z</time>
      </trkpt>
      <trkpt lat="48.39885" lon="2.65554">
        <ele>86.199996948242</ele>
        <time>2021-06-03T12:49:36Z</time>
      </trkpt>
      <trkpt lat="48.39887" lon="2.65548">
        <ele>86.599998474121</ele>
        <time>2021-06-03T12:49:41Z</time>
      </trkpt>
      <trkpt lat="48.39889" lon="2.65542">
        <ele>87.199996948242</ele>
        <time>2021-06-03T12:49:46Z</time>
      </trkpt>
      <trkpt lat="48.39891" lon="2.65536">
        <ele>87.599998474121</ele>
        <time>2021-06-03T12:49:51Z</time>
      </trkpt>
      <trkpt lat="48.39893" lon="2.65526">
        <ele>88.199996948242</ele>
        <time>2021-06-03T12:49:56Z</time>
      </trkpt>
      <trkpt lat="48.39895" lon="2.65518">
        <ele>88.800003051758</ele>
        <time>2021-06-03T12:50:01Z</time>
      </trkpt>
      <trkpt lat="48.39897" lon="2.65513">
        <ele>89.199996948242</ele>
        <time>2021-06-03T12:50:06Z</time>
      </trkpt>
      <trkpt lat="48.39899" lon="2.6551">
        <ele>89.800003051758</ele>
        <time>2021-06-03T12:50:11Z</time>
      </trkpt>
      <trkpt lat="48.39902" lon="2.65506">
        <ele>90.400001525879</ele>
        <time>2021-06-03T12:50:16Z</time>
      </trkpt>
      <trkpt lat="48.39904" lon="2.65501">
        <ele>90.800003051758</ele>
        <time>2021-06-03T12:50:21Z</time>
      </trkpt>
      <trkpt lat="48.39906" lon="2.65492">
        <ele>91.400001525879</ele>
        <time>2021-06-03T12:50:26Z</time>
      </trkpt>
      <trkpt lat="48.39908" lon="2.65482">
        <ele>92</ele>
        <time>2021-06-03T12:50:31Z</time>
      </trkpt>
      <trkpt lat="48.39909" lon="2.65473">
        <ele>92.599998474121</ele>
        <time>2021-06-03T12:50:36Z</time>
      </trkpt>
      <trkpt lat="48.3991" lon="2.65466">
        <ele>93.199996948242</ele>
        <time>2021-06-03T12:50:41Z</time>
      </trkpt>
      <trkpt lat="48.39911" lon="2.6546">
        <ele>94</ele>
        <time>2021-06-03T12:50:46Z</time>
      </trkpt>
      <trkpt lat="48.39912" lon="2.65453">
        <ele>94.800003051758</ele>
        <time>2021-06-03T12:50:51Z</time>
      </trkpt>
      <trkpt lat="48.39912" lon="2.65448">
        <ele>95.599998474121</ele>
        <time>2021-06-03T12:50:56Z</time>
      </trkpt>
      <trkpt lat="48.39911" lon="2.65442">
        <ele>96.199996948242</ele>
        <time>2021-06-03T12:51:01Z</time>
      </trkpt>
      <trkpt lat="48.39912" lon="2.65436">
        <ele>97</ele>
        <time>2021-06-03T12:51:06Z</time>
      </trkpt>
      <trkpt lat="48.39914" lon="2.65428">
        <ele>97.599998474121</ele>
        <time>2021-06-03T12:51:11Z</time>
      </trkpt>
      <trkpt lat="48.39916" lon="2.65419">
        <ele>98.199996948242</ele>
        <time>2021-06-03T12:51:16Z</time>
      </trkpt>
      <trkpt lat="48.39919" lon="2.65411">
        <ele>98.800003051758</ele>
        <time>2021-06-03T12:51:21Z</time>
      </trkpt>
      <trkpt lat="48.39921" lon="2.65406">
        <ele>99.599998474121</ele>
        <time>2021-06-03T12:51:26Z</time>
      </trkpt>
      <trkpt lat="48.39922" lon="2.65402">
        <ele>100.40000152588</ele>
        <time>2021-06-03T12:51:31Z</time>
      </trkpt>
      <trkpt lat="48.39924" lon="2.65396">
        <ele>101.19999694824</ele>
        <time>2021-06-03T12:51:36Z</time>
      </trkpt>
      <trkpt lat="48.39926" lon="2.6539">
        <ele>102</ele>
        <time>2021-06-03T12:51:41Z</time>
      </trkpt>
      <trkpt lat="48.39928" lon="2.65385">
        <ele>102.80000305176</ele>
        <time>2021-06-03T12:51:46Z</time>
      </trkpt>
      <trkpt lat="48.39931" lon="2.65379">
        <ele>103.40000152588</ele>
        <time>2021-06-03T12:51:51Z</time>
      </trkpt>
      <trkpt lat="48.39932" lon="2.65376">
        <ele>104.19999694824</ele>
        <time>2021-06-03T12:51:56Z</time>
      </trkpt>
      <trkpt lat="48.39935" lon="2.65371">
        <ele>105.19999694824</ele>
        <time>2021-06-03T12:52:01Z</time>
      </trkpt>
      <trkpt lat="48.39937" lon="2.65372">
        <ele>106.40000152588</ele>
        <time>2021-06-03T12:52:06Z</time>
      </trkpt>
      <trkpt lat="48.39937" lon="2.65372">
        <ele>106.59999847412</ele>
        <time>2021-06-03T12:52:11Z</time>
      </trkpt>
      <trkpt lat="48.39936" lon="2.65372">
        <ele>107</ele>
        <time>2021-06-03T12:52:16Z</time>
      </trkpt>
      <trkpt lat="48.39936" lon="2.65369">
        <ele>107.40000152588</ele>
        <time>2021-06-03T12:52:21Z</time>
      </trkpt>
      <trkpt lat="48.39935" lon="2.65366">
        <ele>108</ele>
        <time>2021-06-03T12:52:26Z</time>
      </trkpt>
      <trkpt lat="48.39934" lon="2.65363">
        <ele>108.80000305176</ele>
        <time>2021-06-03T12:52:31Z</time>
      </trkpt>
      <trkpt lat="48.39934" lon="2.65358">
        <ele>109.19999694824</ele>
        <time>2021-06-03T12:52:36Z</time>
      </trkpt>
      <trkpt lat="48.39934" lon="2.6535">
        <ele>109.80000305176</ele>
        <time>2021-06-03T12:52:41Z</time>
      </trkpt>
      <trkpt lat="48.39934" lon="2.65342">
        <ele>110.40000152588</ele>
        <time>2021-06-03T12:52:46Z</time>
      </trkpt>
      <trkpt lat="48.39936" lon="2.65335">
        <ele>111</ele>
        <time>2021-06-03T12:52:51Z</time>
      </trkpt>
      <trkpt lat="48.39936" lon="2.6533">
        <ele>111.40000152588</ele>
        <time>2021-06-03T12:52:56Z</time>
      </trkpt>
      <trkpt lat="48.39937" lon="2.65325">
        <ele>111.80000305176</ele>
        <time>2021-06-03T12:53:01Z</time>
      </trkpt>
      <trkpt lat="48.39938" lon="2.6532">
        <ele>112.59999847412</ele>
        <time>2021-06-03T12:53:06Z</time>
      </trkpt>
      <trkpt lat="48.39939" lon="2.65315">
        <ele>113</ele>
        <time>2021-06-03T12:53:11Z</time>
      </trkpt>
      <trkpt lat="48.3994" lon="2.65311">
        <ele>113.40000152588</ele>
        <time>2021-06-03T12:53:16Z</time>
      </trkpt>
      <trkpt lat="48.3994" lon="2.65305">
        <ele>114</ele>
        <time>2021-06-03T12:53:21Z</time>
      </trkpt>
      <trkpt lat="48.3994" lon="2.653">
        <ele>114.59999847412</ele>
        <time>2021-06-03T12:53:26Z</time>
      </trkpt>
      <trkpt lat="48.39941" lon="2.65295">
        <ele>115.40000152588</ele>
        <time>2021-06-03T12:53:31Z</time>
      </trkpt>
      <trkpt lat="48.3994" lon="2.6529">
        <ele>115.80000305176</ele>
        <time>2021-06-03T12:53:36Z</time>
      </trkpt>
      <trkpt lat="48.3994" lon="2.65283">
        <ele>116.40000152588</ele>
        <time>2021-06-03T12:53:41Z</time>
      </trkpt>
      <trkpt lat="48.39941" lon="2.65277">
        <ele>117</ele>
        <time>2021-06-03T12:53:46Z</time>
      </trkpt>
      <trkpt lat="48.39943" lon="2.65271">
        <ele>117.80000305176</ele>
        <time>2021-06-03T12:53:51Z</time>
      </trkpt>
      <trkpt lat="48.39945" lon="2.65267">
        <ele>118.59999847412</ele>
        <time>2021-06-03T12:53:56Z</time>
      </trkpt>
      <trkpt lat="48.39949" lon="2.65261">
        <ele>119.19999694824</ele>
        <time>2021-06-03T12:54:01Z</time>
      </trkpt>
      <trkpt lat="48.39952" lon="2.65257">
        <ele>120</ele>
        <time>2021-06-03T12:54:06Z</time>
      </trkpt>
      <trkpt lat="48.39957" lon="2.65252">
        <ele>120.59999847412</ele>
        <time>2021-06-03T12:54:11Z</time>
      </trkpt>
      <trkpt lat="48.3996" lon="2.65249">
        <ele>121.19999694824</ele>
        <time>2021-06-03T12:54:16Z</time>
      </trkpt>
      <trkpt lat="48.39962" lon="2.65245">
        <ele>122</ele>
        <time>2021-06-03T12:54:21Z</time>
      </trkpt>
      <trkpt lat="48.39962" lon="2.65242">
        <ele>122.40000152588</ele>
        <time>2021-06-03T12:54:26Z</time>
      </trkpt>
      <trkpt lat="48.39963" lon="2.65241">
        <ele>122.40000152588</ele>
        <time>2021-06-03T12:54:31Z</time>
      </trkpt>
      <trkpt lat="48.39964" lon="2.65242">
        <ele>122.59999847412</ele>
        <time>2021-06-03T12:54:36Z</time>
      </trkpt>
      <trkpt lat="48.39964" lon="2.6524">
        <ele>122.59999847412</ele>
        <time>2021-06-03T12:54:41Z</time>
      </trkpt>
      <trkpt lat="48.39964" lon="2.65241">
        <ele>122.59999847412</ele>
        <time>2021-06-03T12:54:46Z</time>
      </trkpt>
      <trkpt lat="48.39964" lon="2.65242">
        <ele>122.59999847412</ele>
        <time>2021-06-03T12:54:51Z</time>
      </trkpt>
      <trkpt lat="48.39964" lon="2.65245">
        <ele>122.59999847412</ele>
        <time>2021-06-03T12:54:56Z</time>
      </trkpt>
      <trkpt lat="48.39966" lon="2.65248">
        <ele>122.59999847412</ele>
        <time>2021-06-03T12:55:01Z</time>
      </trkpt>
      <trkpt lat="48.39967" lon="2.65248">
        <ele>122.59999847412</ele>
        <time>2021-06-03T12:55:06Z</time>
      </trkpt>
      <trkpt lat="48.39968" lon="2.65249">
        <ele>122.80000305176</ele>
        <time>2021-06-03T12:55:11Z</time>
      </trkpt>
      <trkpt lat="48.39968" lon="2.6525">
        <ele>122.80000305176</ele>
        <time>2021-06-03T12:55:16Z</time>
      </trkpt>
      <trkpt lat="48.39969" lon="2.65251">
        <ele>122.80000305176</ele>
        <time>2021-06-03T12:55:21Z</time>
      </trkpt>
      <trkpt lat="48.3997" lon="2.65251">
        <ele>123</ele>
        <time>2021-06-03T12:55:26Z</time>
      </trkpt>
      <trkpt lat="48.3997" lon="2.65251">
        <ele>123</ele>
        <time>2021-06-03T12:55:31Z</time>
      </trkpt>
      <trkpt lat="48.39971" lon="2.65252">
        <ele>123</ele>
        <time>2021-06-03T12:55:36Z</time>
      </trkpt>
      <trkpt lat="48.39971" lon="2.65252">
        <ele>123</ele>
        <time>2021-06-03T12:55:41Z</time>
      </trkpt>
      <trkpt lat="48.3997" lon="2.65254">
        <ele>123</ele>
        <time>2021-06-03T12:55:46Z</time>
      </trkpt>
      <trkpt lat="48.3997" lon="2.65255">
        <ele>123</ele>
        <time>2021-06-03T12:55:51Z</time>
      </trkpt>
      <trkpt lat="48.39973" lon="2.65251">
        <ele>123</ele>
        <time>2021-06-03T12:55:56Z</time>
      </trkpt>
      <trkpt lat="48.39974" lon="2.65247">
        <ele>123</ele>
        <time>2021-06-03T12:56:01Z</time>
      </trkpt>
      <trkpt lat="48.39974" lon="2.65245">
        <ele>123</ele>
        <time>2021-06-03T12:56:06Z</time>
      </trkpt>
      <trkpt lat="48.39978" lon="2.65243">
        <ele>123</ele>
        <time>2021-06-03T12:56:11Z</time>
      </trkpt>
      <trkpt lat="48.39978" lon="2.65243">
        <ele>122.80000305176</ele>
        <time>2021-06-03T12:56:16Z</time>
      </trkpt>
      <trkpt lat="48.39977" lon="2.65244">
        <ele>122.80000305176</ele>
        <time>2021-06-03T12:56:21Z</time>
      </trkpt>
      <trkpt lat="48.39975" lon="2.65244">
        <ele>122.59999847412</ele>
        <time>2021-06-03T12:56:26Z</time>
      </trkpt>
      <trkpt lat="48.39973" lon="2.65243">
        <ele>122.80000305176</ele>
        <time>2021-06-03T12:56:31Z</time>
      </trkpt>
      <trkpt lat="48.39972" lon="2.65243">
        <ele>122.80000305176</ele>
        <time>2021-06-03T12:56:36Z</time>
      </trkpt>
      <trkpt lat="48.39971" lon="2.65243">
        <ele>122.80000305176</ele>
        <time>2021-06-03T12:56:41Z</time>
      </trkpt>
      <trkpt lat="48.3997" lon="2.65244">
        <ele>122.80000305176</ele>
        <time>2021-06-03T12:56:46Z</time>
      </trkpt>
      <trkpt lat="48.3997" lon="2.65244">
        <ele>122.80000305176</ele>
        <time>2021-06-03T12:56:51Z</time>
      </trkpt>
      <trkpt lat="48.39969" lon="2.65244">
        <ele>122.80000305176</ele>
        <time>2021-06-03T12:56:56Z</time>
      </trkpt>
      <trkpt lat="48.39969" lon="2.65243">
        <ele>122.80000305176</ele>
        <time>2021-06-03T12:57:01Z</time>
      </trkpt>
      <trkpt lat="48.3997" lon="2.65243">
        <ele>122.59999847412</ele>
        <time>2021-06-03T12:57:06Z</time>
      </trkpt>
      <trkpt lat="48.39969" lon="2.65243">
        <ele>122.59999847412</ele>
        <time>2021-06-03T12:57:11Z</time>
      </trkpt>
      <trkpt lat="48.39969" lon="2.65245">
        <ele>122.59999847412</ele>
        <time>2021-06-03T12:57:16Z</time>
      </trkpt>
      <trkpt lat="48.3997" lon="2.65248">
        <ele>122.59999847412</ele>
        <time>2021-06-03T12:57:21Z</time>
      </trkpt>
      <trkpt lat="48.3997" lon="2.6525">
        <ele>122.59999847412</ele>
        <time>2021-06-03T12:57:26Z</time>
      </trkpt>
      <trkpt lat="48.39969" lon="2.6525">
        <ele>122.59999847412</ele>
        <time>2021-06-03T12:57:31Z</time>
      </trkpt>
      <trkpt lat="48.39968" lon="2.65251">
        <ele>122.59999847412</ele>
        <time>2021-06-03T12:57:36Z</time>
      </trkpt>
      <trkpt lat="48.39967" lon="2.65249">
        <ele>122.59999847412</ele>
        <time>2021-06-03T12:57:41Z</time>
      </trkpt>
      <trkpt lat="48.39967" lon="2.65249">
        <ele>122.59999847412</ele>
        <time>2021-06-03T12:57:46Z</time>
      </trkpt>
      <trkpt lat="48.39966" lon="2.65249">
        <ele>122.59999847412</ele>
        <time>2021-06-03T12:57:51Z</time>
      </trkpt>
      <trkpt lat="48.39966" lon="2.65249">
        <ele>122.59999847412</ele>
        <time>2021-06-03T12:57:56Z</time>
      </trkpt>
      <trkpt lat="48.39966" lon="2.65249">
        <ele>122.59999847412</ele>
        <time>2021-06-03T12:58:01Z</time>
      </trkpt>
      <trkpt lat="48.39967" lon="2.65249">
        <ele>122.59999847412</ele>
        <time>2021-06-03T12:58:06Z</time>
      </trkpt>
      <trkpt lat="48.39967" lon="2.65248">
        <ele>122.59999847412</ele>
        <time>2021-06-03T12:58:11Z</time>
      </trkpt>
      <trkpt lat="48.39969" lon="2.65248">
        <ele>122.59999847412</ele>
        <time>2021-06-03T12:58:16Z</time>
      </trkpt>
      <trkpt lat="48.39969" lon="2.65248">
        <ele>122.59999847412</ele>
        <time>2021-06-03T12:58:21Z</time>
      </trkpt>
      <trkpt lat="48.39968" lon="2.65247">
        <ele>122.59999847412</ele>
        <time>2021-06-03T12:58:26Z</time>
      </trkpt>
      <trkpt lat="48.39964" lon="2.65241">
        <ele>122.59999847412</ele>
        <time>2021-06-03T12:58:31Z</time>
      </trkpt>
      <trkpt lat="48.39966" lon="2.65235">
        <ele>122.19999694824</ele>
        <time>2021-06-03T12:58:36Z</time>
      </trkpt>
      <trkpt lat="48.39966" lon="2.65226">
        <ele>122.19999694824</ele>
        <time>2021-06-03T12:58:41Z</time>
      </trkpt>
      <trkpt lat="48.39966" lon="2.65219">
        <ele>122.40000152588</ele>
        <time>2021-06-03T12:58:46Z</time>
      </trkpt>
      <trkpt lat="48.39965" lon="2.65212">
        <ele>122.59999847412</ele>
        <time>2021-06-03T12:58:51Z</time>
      </trkpt>
      <trkpt lat="48.39963" lon="2.65204">
        <ele>122.59999847412</ele>
        <time>2021-06-03T12:58:56Z</time>
      </trkpt>
      <trkpt lat="48.39965" lon="2.65196">
        <ele>122.19999694824</ele>
        <time>2021-06-03T12:59:01Z</time>
      </trkpt>
      <trkpt lat="48.39965" lon="2.6519">
        <ele>122.19999694824</ele>
        <time>2021-06-03T12:59:06Z</time>
      </trkpt>
      <trkpt lat="48.39966" lon="2.65182">
        <ele>122</ele>
        <time>2021-06-03T12:59:11Z</time>
      </trkpt>
      <trkpt lat="48.39967" lon="2.65173">
        <ele>122</ele>
        <time>2021-06-03T12:59:16Z</time>
      </trkpt>
      <trkpt lat="48.39967" lon="2.65164">
        <ele>122</ele>
        <time>2021-06-03T12:59:21Z</time>
      </trkpt>
      <trkpt lat="48.39968" lon="2.65156">
        <ele>121.80000305176</ele>
        <time>2021-06-03T12:59:26Z</time>
      </trkpt>
      <trkpt lat="48.39971" lon="2.65149">
        <ele>121.59999847412</ele>
        <time>2021-06-03T12:59:31Z</time>
      </trkpt>
      <trkpt lat="48.39973" lon="2.65141">
        <ele>121.59999847412</ele>
        <time>2021-06-03T12:59:36Z</time>
      </trkpt>
      <trkpt lat="48.39975" lon="2.65133">
        <ele>121.59999847412</ele>
        <time>2021-06-03T12:59:41Z</time>
      </trkpt>
      <trkpt lat="48.39978" lon="2.65125">
        <ele>121.80000305176</ele>
        <time>2021-06-03T12:59:46Z</time>
      </trkpt>
      <trkpt lat="48.39982" lon="2.65119">
        <ele>121.80000305176</ele>
        <time>2021-06-03T12:59:51Z</time>
      </trkpt>
      <trkpt lat="48.39986" lon="2.65112">
        <ele>122</ele>
        <time>2021-06-03T12:59:56Z</time>
      </trkpt>
      <trkpt lat="48.39989" lon="2.65107">
        <ele>122.19999694824</ele>
        <time>2021-06-03T13:00:01Z</time>
      </trkpt>
      <trkpt lat="48.39993" lon="2.65101">
        <ele>122.40000152588</ele>
        <time>2021-06-03T13:00:06Z</time>
      </trkpt>
      <trkpt lat="48.39997" lon="2.65097">
        <ele>122.59999847412</ele>
        <time>2021-06-03T13:00:11Z</time>
      </trkpt>
      <trkpt lat="48.4" lon="2.65094">
        <ele>122.59999847412</ele>
        <time>2021-06-03T13:00:16Z</time>
      </trkpt>
      <trkpt lat="48.40006" lon="2.65095">
        <ele>122.80000305176</ele>
        <time>2021-06-03T13:00:21Z</time>
      </trkpt>
      <trkpt lat="48.4001" lon="2.65096">
        <ele>123</ele>
        <time>2021-06-03T13:00:26Z</time>
      </trkpt>
      <trkpt lat="48.40015" lon="2.65096">
        <ele>122.80000305176</ele>
        <time>2021-06-03T13:00:31Z</time>
      </trkpt>
      <trkpt lat="48.4002" lon="2.65096">
        <ele>122.80000305176</ele>
        <time>2021-06-03T13:00:36Z</time>
      </trkpt>
      <trkpt lat="48.40026" lon="2.65096">
        <ele>123</ele>
        <time>2021-06-03T13:00:41Z</time>
      </trkpt>
      <trkpt lat="48.40032" lon="2.65097">
        <ele>123.19999694824</ele>
        <time>2021-06-03T13:00:46Z</time>
      </trkpt>
      <trkpt lat="48.40037" lon="2.65099">
        <ele>123.40000152588</ele>
        <time>2021-06-03T13:00:51Z</time>
      </trkpt>
      <trkpt lat="48.40042" lon="2.651">
        <ele>123.40000152588</ele>
        <time>2021-06-03T13:00:56Z</time>
      </trkpt>
      <trkpt lat="48.40047" lon="2.65103">
        <ele>122.59999847412</ele>
        <time>2021-06-03T13:01:01Z</time>
      </trkpt>
      <trkpt lat="48.40053" lon="2.65106">
        <ele>122.40000152588</ele>
        <time>2021-06-03T13:01:06Z</time>
      </trkpt>
      <trkpt lat="48.40059" lon="2.65108">
        <ele>122.40000152588</ele>
        <time>2021-06-03T13:01:11Z</time>
      </trkpt>
      <trkpt lat="48.40065" lon="2.65109">
        <ele>122.19999694824</ele>
        <time>2021-06-03T13:01:16Z</time>
      </trkpt>
      <trkpt lat="48.4007" lon="2.65111">
        <ele>122</ele>
        <time>2021-06-03T13:01:21Z</time>
      </trkpt>
      <trkpt lat="48.40075" lon="2.65112">
        <ele>121.80000305176</ele>
        <time>2021-06-03T13:01:26Z</time>
      </trkpt>
      <trkpt lat="48.40079" lon="2.6511">
        <ele>121.80000305176</ele>
        <time>2021-06-03T13:01:31Z</time>
      </trkpt>
      <trkpt lat="48.40082" lon="2.65104">
        <ele>121.40000152588</ele>
        <time>2021-06-03T13:01:36Z</time>
      </trkpt>
      <trkpt lat="48.40087" lon="2.65098">
        <ele>121.19999694824</ele>
        <time>2021-06-03T13:01:41Z</time>
      </trkpt>
      <trkpt lat="48.40089" lon="2.65092">
        <ele>121.19999694824</ele>
        <time>2021-06-03T13:01:46Z</time>
      </trkpt>
      <trkpt lat="48.4009" lon="2.65084">
        <ele>121.19999694824</ele>
        <time>2021-06-03T13:01:51Z</time>
      </trkpt>
      <trkpt lat="48.4009" lon="2.65076">
        <ele>121.19999694824</ele>
        <time>2021-06-03T13:01:56Z</time>
      </trkpt>
      <trkpt lat="48.40092" lon="2.65068">
        <ele>121.40000152588</ele>
        <time>2021-06-03T13:02:01Z</time>
      </trkpt>
      <trkpt lat="48.40095" lon="2.65062">
        <ele>121.40000152588</ele>
        <time>2021-06-03T13:02:06Z</time>
      </trkpt>
      <trkpt lat="48.40095" lon="2.65055">
        <ele>121.40000152588</ele>
        <time>2021-06-03T13:02:11Z</time>
      </trkpt>
      <trkpt lat="48.40097" lon="2.65048">
        <ele>121.40000152588</ele>
        <time>2021-06-03T13:02:16Z</time>
      </trkpt>
      <trkpt lat="48.40099" lon="2.65041">
        <ele>121.40000152588</ele>
        <time>2021-06-03T13:02:21Z</time>
      </trkpt>
      <trkpt lat="48.401" lon="2.65033">
        <ele>121.59999847412</ele>
        <time>2021-06-03T13:02:26Z</time>
      </trkpt>
      <trkpt lat="48.40101" lon="2.65026">
        <ele>121.80000305176</ele>
        <time>2021-06-03T13:02:31Z</time>
      </trkpt>
      <trkpt lat="48.40101" lon="2.65018">
        <ele>122</ele>
        <time>2021-06-03T13:02:36Z</time>
      </trkpt>
      <trkpt lat="48.40101" lon="2.65011">
        <ele>122.40000152588</ele>
        <time>2021-06-03T13:02:41Z</time>
      </trkpt>
      <trkpt lat="48.40099" lon="2.65003">
        <ele>122.40000152588</ele>
        <time>2021-06-03T13:02:46Z</time>
      </trkpt>
      <trkpt lat="48.40096" lon="2.64996">
        <ele>122.59999847412</ele>
        <time>2021-06-03T13:02:51Z</time>
      </trkpt>
      <trkpt lat="48.40095" lon="2.64988">
        <ele>122.59999847412</ele>
        <time>2021-06-03T13:02:56Z</time>
      </trkpt>
      <trkpt lat="48.40095" lon="2.64983">
        <ele>122.80000305176</ele>
        <time>2021-06-03T13:03:01Z</time>
      </trkpt>
      <trkpt lat="48.40096" lon="2.64975">
        <ele>122.59999847412</ele>
        <time>2021-06-03T13:03:06Z</time>
      </trkpt>
      <trkpt lat="48.40098" lon="2.64967">
        <ele>122.59999847412</ele>
        <time>2021-06-03T13:03:11Z</time>
      </trkpt>
      <trkpt lat="48.40102" lon="2.64956">
        <ele>122.80000305176</ele>
        <time>2021-06-03T13:03:16Z</time>
      </trkpt>
      <trkpt lat="48.40104" lon="2.64948">
        <ele>122.80000305176</ele>
        <time>2021-06-03T13:03:21Z</time>
      </trkpt>
      <trkpt lat="48.40108" lon="2.6494">
        <ele>122.80000305176</ele>
        <time>2021-06-03T13:03:26Z</time>
      </trkpt>
      <trkpt lat="48.40111" lon="2.64932">
        <ele>122.40000152588</ele>
        <time>2021-06-03T13:03:31Z</time>
      </trkpt>
      <trkpt lat="48.40113" lon="2.64925">
        <ele>122.19999694824</ele>
        <time>2021-06-03T13:03:36Z</time>
      </trkpt>
      <trkpt lat="48.40116" lon="2.64917">
        <ele>122</ele>
        <time>2021-06-03T13:03:41Z</time>
      </trkpt>
      <trkpt lat="48.40118" lon="2.64911">
        <ele>122</ele>
        <time>2021-06-03T13:03:46Z</time>
      </trkpt>
      <trkpt lat="48.40121" lon="2.64903">
        <ele>122</ele>
        <time>2021-06-03T13:03:51Z</time>
      </trkpt>
      <trkpt lat="48.40121" lon="2.64896">
        <ele>122</ele>
        <time>2021-06-03T13:03:56Z</time>
      </trkpt>
      <trkpt lat="48.4012" lon="2.64888">
        <ele>122</ele>
        <time>2021-06-03T13:04:01Z</time>
      </trkpt>
      <trkpt lat="48.40119" lon="2.64881">
        <ele>122.19999694824</ele>
        <time>2021-06-03T13:04:06Z</time>
      </trkpt>
      <trkpt lat="48.40119" lon="2.64874">
        <ele>122.40000152588</ele>
        <time>2021-06-03T13:04:11Z</time>
      </trkpt>
      <trkpt lat="48.40118" lon="2.64864">
        <ele>122.19999694824</ele>
        <time>2021-06-03T13:04:16Z</time>
      </trkpt>
      <trkpt lat="48.40117" lon="2.64857">
        <ele>122.19999694824</ele>
        <time>2021-06-03T13:04:21Z</time>
      </trkpt>
      <trkpt lat="48.40117" lon="2.64847">
        <ele>122.40000152588</ele>
        <time>2021-06-03T13:04:26Z</time>
      </trkpt>
      <trkpt lat="48.40118" lon="2.6484">
        <ele>122.40000152588</ele>
        <time>2021-06-03T13:04:31Z</time>
      </trkpt>
      <trkpt lat="48.4012" lon="2.64831">
        <ele>122.19999694824</ele>
        <time>2021-06-03T13:04:36Z</time>
      </trkpt>
      <trkpt lat="48.40122" lon="2.64824">
        <ele>122.19999694824</ele>
        <time>2021-06-03T13:04:41Z</time>
      </trkpt>
      <trkpt lat="48.40125" lon="2.64818">
        <ele>122.19999694824</ele>
        <time>2021-06-03T13:04:46Z</time>
      </trkpt>
      <trkpt lat="48.40126" lon="2.64809">
        <ele>122.19999694824</ele>
        <time>2021-06-03T13:04:51Z</time>
      </trkpt>
      <trkpt lat="48.4013" lon="2.64802">
        <ele>122.19999694824</ele>
        <time>2021-06-03T13:04:56Z</time>
      </trkpt>
      <trkpt lat="48.40132" lon="2.64793">
        <ele>122.40000152588</ele>
        <time>2021-06-03T13:05:01Z</time>
      </trkpt>
      <trkpt lat="48.40134" lon="2.64783">
        <ele>122.59999847412</ele>
        <time>2021-06-03T13:05:06Z</time>
      </trkpt>
      <trkpt lat="48.40136" lon="2.64774">
        <ele>122.40000152588</ele>
        <time>2021-06-03T13:05:11Z</time>
      </trkpt>
      <trkpt lat="48.40137" lon="2.64765">
        <ele>122.40000152588</ele>
        <time>2021-06-03T13:05:16Z</time>
      </trkpt>
      <trkpt lat="48.40139" lon="2.64757">
        <ele>122.40000152588</ele>
        <time>2021-06-03T13:05:21Z</time>
      </trkpt>
      <trkpt lat="48.4014" lon="2.64749">
        <ele>122.19999694824</ele>
        <time>2021-06-03T13:05:26Z</time>
      </trkpt>
      <trkpt lat="48.40142" lon="2.64742">
        <ele>122.19999694824</ele>
        <time>2021-06-03T13:05:31Z</time>
      </trkpt>
      <trkpt lat="48.40146" lon="2.64733">
        <ele>122.19999694824</ele>
        <time>2021-06-03T13:05:36Z</time>
      </trkpt>
      <trkpt lat="48.40149" lon="2.64726">
        <ele>122.40000152588</ele>
        <time>2021-06-03T13:05:41Z</time>
      </trkpt>
      <trkpt lat="48.40151" lon="2.64722">
        <ele>122.59999847412</ele>
        <time>2021-06-03T13:05:46Z</time>
      </trkpt>
      <trkpt lat="48.40154" lon="2.64713">
        <ele>122.59999847412</ele>
        <time>2021-06-03T13:05:51Z</time>
      </trkpt>
      <trkpt lat="48.40155" lon="2.64706">
        <ele>122.59999847412</ele>
        <time>2021-06-03T13:05:56Z</time>
      </trkpt>
      <trkpt lat="48.40158" lon="2.64697">
        <ele>122.59999847412</ele>
        <time>2021-06-03T13:06:01Z</time>
      </trkpt>
      <trkpt lat="48.40161" lon="2.6469">
        <ele>122.59999847412</ele>
        <time>2021-06-03T13:06:06Z</time>
      </trkpt>
      <trkpt lat="48.40164" lon="2.64684">
        <ele>122.40000152588</ele>
        <time>2021-06-03T13:06:11Z</time>
      </trkpt>
      <trkpt lat="48.40166" lon="2.64678">
        <ele>122.19999694824</ele>
        <time>2021-06-03T13:06:16Z</time>
      </trkpt>
      <trkpt lat="48.4017" lon="2.64673">
        <ele>122.40000152588</ele>
        <time>2021-06-03T13:06:21Z</time>
      </trkpt>
      <trkpt lat="48.40173" lon="2.64667">
        <ele>122.40000152588</ele>
        <time>2021-06-03T13:06:26Z</time>
      </trkpt>
      <trkpt lat="48.40179" lon="2.6466">
        <ele>122.59999847412</ele>
        <time>2021-06-03T13:06:31Z</time>
      </trkpt>
      <trkpt lat="48.40183" lon="2.64654">
        <ele>122.59999847412</ele>
        <time>2021-06-03T13:06:36Z</time>
      </trkpt>
      <trkpt lat="48.40188" lon="2.64647">
        <ele>122.40000152588</ele>
        <time>2021-06-03T13:06:41Z</time>
      </trkpt>
      <trkpt lat="48.40191" lon="2.6464">
        <ele>122.40000152588</ele>
        <time>2021-06-03T13:06:46Z</time>
      </trkpt>
      <trkpt lat="48.40194" lon="2.64632">
        <ele>122.40000152588</ele>
        <time>2021-06-03T13:06:51Z</time>
      </trkpt>
      <trkpt lat="48.40199" lon="2.64624">
        <ele>122.40000152588</ele>
        <time>2021-06-03T13:06:56Z</time>
      </trkpt>
      <trkpt lat="48.40203" lon="2.64619">
        <ele>122.40000152588</ele>
        <time>2021-06-03T13:07:01Z</time>
      </trkpt>
      <trkpt lat="48.40205" lon="2.64613">
        <ele>122.40000152588</ele>
        <time>2021-06-03T13:07:06Z</time>
      </trkpt>
      <trkpt lat="48.40207" lon="2.64607">
        <ele>122.19999694824</ele>
        <time>2021-06-03T13:07:11Z</time>
      </trkpt>
      <trkpt lat="48.40209" lon="2.64601">
        <ele>122.19999694824</ele>
        <time>2021-06-03T13:07:16Z</time>
      </trkpt>
      <trkpt lat="48.40212" lon="2.64594">
        <ele>122</ele>
        <time>2021-06-03T13:07:21Z</time>
      </trkpt>
      <trkpt lat="48.40215" lon="2.64589">
        <ele>121.80000305176</ele>
        <time>2021-06-03T13:07:26Z</time>
      </trkpt>
      <trkpt lat="48.40219" lon="2.64584">
        <ele>121.80000305176</ele>
        <time>2021-06-03T13:07:31Z</time>
      </trkpt>
      <trkpt lat="48.40221" lon="2.64576">
        <ele>122</ele>
        <time>2021-06-03T13:07:36Z</time>
      </trkpt>
      <trkpt lat="48.40223" lon="2.64566">
        <ele>122</ele>
        <time>2021-06-03T13:07:41Z</time>
      </trkpt>
      <trkpt lat="48.40225" lon="2.64557">
        <ele>121.80000305176</ele>
        <time>2021-06-03T13:07:46Z</time>
      </trkpt>
      <trkpt lat="48.40226" lon="2.64551">
        <ele>121.80000305176</ele>
        <time>2021-06-03T13:07:51Z</time>
      </trkpt>
      <trkpt lat="48.40228" lon="2.64543">
        <ele>121.80000305176</ele>
        <time>2021-06-03T13:07:56Z</time>
      </trkpt>
      <trkpt lat="48.4023" lon="2.64536">
        <ele>121.80000305176</ele>
        <time>2021-06-03T13:08:01Z</time>
      </trkpt>
      <trkpt lat="48.40232" lon="2.64528">
        <ele>122</ele>
        <time>2021-06-03T13:08:06Z</time>
      </trkpt>
      <trkpt lat="48.40235" lon="2.64522">
        <ele>121.80000305176</ele>
        <time>2021-06-03T13:08:11Z</time>
      </trkpt>
      <trkpt lat="48.40237" lon="2.64515">
        <ele>121.80000305176</ele>
        <time>2021-06-03T13:08:16Z</time>
      </trkpt>
      <trkpt lat="48.40239" lon="2.64508">
        <ele>121.80000305176</ele>
        <time>2021-06-03T13:08:21Z</time>
      </trkpt>
      <trkpt lat="48.4024" lon="2.645">
        <ele>121.80000305176</ele>
        <time>2021-06-03T13:08:26Z</time>
      </trkpt>
      <trkpt lat="48.4024" lon="2.64493">
        <ele>121.80000305176</ele>
        <time>2021-06-03T13:08:31Z</time>
      </trkpt>
      <trkpt lat="48.40239" lon="2.64488">
        <ele>121.80000305176</ele>
        <time>2021-06-03T13:08:36Z</time>
      </trkpt>
      <trkpt lat="48.4024" lon="2.64482">
        <ele>122</ele>
        <time>2021-06-03T13:08:41Z</time>
      </trkpt>
      <trkpt lat="48.4024" lon="2.64472">
        <ele>122.40000152588</ele>
        <time>2021-06-03T13:08:46Z</time>
      </trkpt>
      <trkpt lat="48.40242" lon="2.64464">
        <ele>122</ele>
        <time>2021-06-03T13:08:51Z</time>
      </trkpt>
      <trkpt lat="48.40242" lon="2.64456">
        <ele>122</ele>
        <time>2021-06-03T13:08:56Z</time>
      </trkpt>
      <trkpt lat="48.40242" lon="2.64448">
        <ele>122</ele>
        <time>2021-06-03T13:09:01Z</time>
      </trkpt>
      <trkpt lat="48.40241" lon="2.64442">
        <ele>121.80000305176</ele>
        <time>2021-06-03T13:09:06Z</time>
      </trkpt>
      <trkpt lat="48.40243" lon="2.64434">
        <ele>121.59999847412</ele>
        <time>2021-06-03T13:09:11Z</time>
      </trkpt>
      <trkpt lat="48.40243" lon="2.64427">
        <ele>121.40000152588</ele>
        <time>2021-06-03T13:09:16Z</time>
      </trkpt>
      <trkpt lat="48.40242" lon="2.64419">
        <ele>121.40000152588</ele>
        <time>2021-06-03T13:09:21Z</time>
      </trkpt>
      <trkpt lat="48.40241" lon="2.64412">
        <ele>121.40000152588</ele>
        <time>2021-06-03T13:09:26Z</time>
      </trkpt>
      <trkpt lat="48.40241" lon="2.64405">
        <ele>121.40000152588</ele>
        <time>2021-06-03T13:09:31Z</time>
      </trkpt>
      <trkpt lat="48.40241" lon="2.64397">
        <ele>121.40000152588</ele>
        <time>2021-06-03T13:09:36Z</time>
      </trkpt>
      <trkpt lat="48.40241" lon="2.6439">
        <ele>121.40000152588</ele>
        <time>2021-06-03T13:09:41Z</time>
      </trkpt>
      <trkpt lat="48.4024" lon="2.64382">
        <ele>121.40000152588</ele>
        <time>2021-06-03T13:09:46Z</time>
      </trkpt>
      <trkpt lat="48.4024" lon="2.64373">
        <ele>121.40000152588</ele>
        <time>2021-06-03T13:09:51Z</time>
      </trkpt>
      <trkpt lat="48.40241" lon="2.64365">
        <ele>121.40000152588</ele>
        <time>2021-06-03T13:09:56Z</time>
      </trkpt>
      <trkpt lat="48.40242" lon="2.64355">
        <ele>121.40000152588</ele>
        <time>2021-06-03T13:10:01Z</time>
      </trkpt>
      <trkpt lat="48.40244" lon="2.64345">
        <ele>121.40000152588</ele>
        <time>2021-06-03T13:10:06Z</time>
      </trkpt>
      <trkpt lat="48.40247" lon="2.64336">
        <ele>121.40000152588</ele>
        <time>2021-06-03T13:10:11Z</time>
      </trkpt>
      <trkpt lat="48.40249" lon="2.64329">
        <ele>121.40000152588</ele>
        <time>2021-06-03T13:10:16Z</time>
      </trkpt>
      <trkpt lat="48.40251" lon="2.6432">
        <ele>121.40000152588</ele>
        <time>2021-06-03T13:10:21Z</time>
      </trkpt>
      <trkpt lat="48.40253" lon="2.64315">
        <ele>121.40000152588</ele>
        <time>2021-06-03T13:10:26Z</time>
      </trkpt>
      <trkpt lat="48.40256" lon="2.64308">
        <ele>121.40000152588</ele>
        <time>2021-06-03T13:10:31Z</time>
      </trkpt>
      <trkpt lat="48.40257" lon="2.64301">
        <ele>121.40000152588</ele>
        <time>2021-06-03T13:10:36Z</time>
      </trkpt>
      <trkpt lat="48.40257" lon="2.64296">
        <ele>121.40000152588</ele>
        <time>2021-06-03T13:10:41Z</time>
      </trkpt>
      <trkpt lat="48.40256" lon="2.64293">
        <ele>122</ele>
        <time>2021-06-03T13:10:46Z</time>
      </trkpt>
      <trkpt lat="48.40258" lon="2.64287">
        <ele>122.80000305176</ele>
        <time>2021-06-03T13:10:51Z</time>
      </trkpt>
      <trkpt lat="48.4026" lon="2.64278">
        <ele>123.40000152588</ele>
        <time>2021-06-03T13:10:56Z</time>
      </trkpt>
      <trkpt lat="48.40262" lon="2.64271">
        <ele>123.59999847412</ele>
        <time>2021-06-03T13:11:01Z</time>
      </trkpt>
      <trkpt lat="48.40263" lon="2.64265">
        <ele>123.19999694824</ele>
        <time>2021-06-03T13:11:06Z</time>
      </trkpt>
      <trkpt lat="48.40266" lon="2.64257">
        <ele>123.19999694824</ele>
        <time>2021-06-03T13:11:11Z</time>
      </trkpt>
      <trkpt lat="48.40268" lon="2.64249">
        <ele>123.40000152588</ele>
        <time>2021-06-03T13:11:16Z</time>
      </trkpt>
      <trkpt lat="48.40271" lon="2.64243">
        <ele>123.59999847412</ele>
        <time>2021-06-03T13:11:21Z</time>
      </trkpt>
      <trkpt lat="48.40272" lon="2.64235">
        <ele>124</ele>
        <time>2021-06-03T13:11:26Z</time>
      </trkpt>
      <trkpt lat="48.40273" lon="2.64231">
        <ele>124</ele>
        <time>2021-06-03T13:11:31Z</time>
      </trkpt>
      <trkpt lat="48.40276" lon="2.64227">
        <ele>123.40000152588</ele>
        <time>2021-06-03T13:11:36Z</time>
      </trkpt>
      <trkpt lat="48.40276" lon="2.64224">
        <ele>123</ele>
        <time>2021-06-03T13:11:41Z</time>
      </trkpt>
      <trkpt lat="48.40277" lon="2.64216">
        <ele>122.80000305176</ele>
        <time>2021-06-03T13:11:46Z</time>
      </trkpt>
      <trkpt lat="48.40279" lon="2.64212">
        <ele>123</ele>
        <time>2021-06-03T13:11:51Z</time>
      </trkpt>
      <trkpt lat="48.40279" lon="2.64203">
        <ele>122.80000305176</ele>
        <time>2021-06-03T13:11:56Z</time>
      </trkpt>
      <trkpt lat="48.40279" lon="2.64196">
        <ele>122.80000305176</ele>
        <time>2021-06-03T13:12:01Z</time>
      </trkpt>
      <trkpt lat="48.40279" lon="2.64188">
        <ele>122.59999847412</ele>
        <time>2021-06-03T13:12:06Z</time>
      </trkpt>
      <trkpt lat="48.40279" lon="2.6418">
        <ele>122.40000152588</ele>
        <time>2021-06-03T13:12:11Z</time>
      </trkpt>
      <trkpt lat="48.4028" lon="2.64173">
        <ele>122.40000152588</ele>
        <time>2021-06-03T13:12:16Z</time>
      </trkpt>
      <trkpt lat="48.40279" lon="2.64166">
        <ele>122.40000152588</ele>
        <time>2021-06-03T13:12:21Z</time>
      </trkpt>
      <trkpt lat="48.40279" lon="2.64159">
        <ele>122.40000152588</ele>
        <time>2021-06-03T13:12:26Z</time>
      </trkpt>
      <trkpt lat="48.40278" lon="2.64152">
        <ele>122.40000152588</ele>
        <time>2021-06-03T13:12:31Z</time>
      </trkpt>
      <trkpt lat="48.40278" lon="2.64145">
        <ele>122.40000152588</ele>
        <time>2021-06-03T13:12:36Z</time>
      </trkpt>
      <trkpt lat="48.40277" lon="2.64138">
        <ele>122.40000152588</ele>
        <time>2021-06-03T13:12:41Z</time>
      </trkpt>
      <trkpt lat="48.40274" lon="2.64131">
        <ele>122.59999847412</ele>
        <time>2021-06-03T13:12:46Z</time>
      </trkpt>
      <trkpt lat="48.40274" lon="2.64126">
        <ele>123</ele>
        <time>2021-06-03T13:12:51Z</time>
      </trkpt>
      <trkpt lat="48.40273" lon="2.64119">
        <ele>123</ele>
        <time>2021-06-03T13:12:56Z</time>
      </trkpt>
      <trkpt lat="48.40273" lon="2.64112">
        <ele>122.59999847412</ele>
        <time>2021-06-03T13:13:01Z</time>
      </trkpt>
      <trkpt lat="48.40275" lon="2.64105">
        <ele>122.19999694824</ele>
        <time>2021-06-03T13:13:06Z</time>
      </trkpt>
      <trkpt lat="48.40278" lon="2.64099">
        <ele>122.40000152588</ele>
        <time>2021-06-03T13:13:11Z</time>
      </trkpt>
      <trkpt lat="48.40281" lon="2.64091">
        <ele>122.40000152588</ele>
        <time>2021-06-03T13:13:16Z</time>
      </trkpt>
      <trkpt lat="48.40282" lon="2.64084">
        <ele>122.40000152588</ele>
        <time>2021-06-03T13:13:21Z</time>
      </trkpt>
      <trkpt lat="48.40285" lon="2.64077">
        <ele>122.40000152588</ele>
        <time>2021-06-03T13:13:26Z</time>
      </trkpt>
      <trkpt lat="48.40288" lon="2.6407">
        <ele>122.19999694824</ele>
        <time>2021-06-03T13:13:31Z</time>
      </trkpt>
      <trkpt lat="48.40289" lon="2.64063">
        <ele>122.19999694824</ele>
        <time>2021-06-03T13:13:36Z</time>
      </trkpt>
      <trkpt lat="48.4029" lon="2.64054">
        <ele>122.19999694824</ele>
        <time>2021-06-03T13:13:41Z</time>
      </trkpt>
      <trkpt lat="48.40293" lon="2.64047">
        <ele>122.19999694824</ele>
        <time>2021-06-03T13:13:46Z</time>
      </trkpt>
      <trkpt lat="48.40296" lon="2.64039">
        <ele>122.19999694824</ele>
        <time>2021-06-03T13:13:51Z</time>
      </trkpt>
      <trkpt lat="48.40299" lon="2.64032">
        <ele>122</ele>
        <time>2021-06-03T13:13:56Z</time>
      </trkpt>
      <trkpt lat="48.40304" lon="2.64026">
        <ele>122.19999694824</ele>
        <time>2021-06-03T13:14:01Z</time>
      </trkpt>
      <trkpt lat="48.40306" lon="2.64019">
        <ele>122.59999847412</ele>
        <time>2021-06-03T13:14:06Z</time>
      </trkpt>
      <trkpt lat="48.40308" lon="2.64016">
        <ele>123.40000152588</ele>
        <time>2021-06-03T13:14:11Z</time>
      </trkpt>
      <trkpt lat="48.40309" lon="2.64011">
        <ele>124.40000152588</ele>
        <time>2021-06-03T13:14:16Z</time>
      </trkpt>
      <trkpt lat="48.40313" lon="2.64008">
        <ele>124.80000305176</ele>
        <time>2021-06-03T13:14:21Z</time>
      </trkpt>
      <trkpt lat="48.40318" lon="2.64007">
        <ele>125.19999694824</ele>
        <time>2021-06-03T13:14:26Z</time>
      </trkpt>
      <trkpt lat="48.40321" lon="2.64005">
        <ele>125.40000152588</ele>
        <time>2021-06-03T13:14:31Z</time>
      </trkpt>
      <trkpt lat="48.40325" lon="2.64004">
        <ele>125.40000152588</ele>
        <time>2021-06-03T13:14:36Z</time>
      </trkpt>
      <trkpt lat="48.40332" lon="2.64004">
        <ele>124.80000305176</ele>
        <time>2021-06-03T13:14:41Z</time>
      </trkpt>
      <trkpt lat="48.40336" lon="2.64">
        <ele>124.19999694824</ele>
        <time>2021-06-03T13:14:46Z</time>
      </trkpt>
      <trkpt lat="48.40339" lon="2.63994">
        <ele>124</ele>
        <time>2021-06-03T13:14:51Z</time>
      </trkpt>
      <trkpt lat="48.40343" lon="2.63991">
        <ele>123.80000305176</ele>
        <time>2021-06-03T13:14:56Z</time>
      </trkpt>
      <trkpt lat="48.40347" lon="2.63987">
        <ele>122.80000305176</ele>
        <time>2021-06-03T13:15:01Z</time>
      </trkpt>
      <trkpt lat="48.40349" lon="2.63981">
        <ele>122.59999847412</ele>
        <time>2021-06-03T13:15:06Z</time>
      </trkpt>
      <trkpt lat="48.40349" lon="2.63975">
        <ele>123.19999694824</ele>
        <time>2021-06-03T13:15:11Z</time>
      </trkpt>
      <trkpt lat="48.40348" lon="2.63971">
        <ele>124.19999694824</ele>
        <time>2021-06-03T13:15:16Z</time>
      </trkpt>
      <trkpt lat="48.40347" lon="2.63967">
        <ele>124.80000305176</ele>
        <time>2021-06-03T13:15:21Z</time>
      </trkpt>
      <trkpt lat="48.40348" lon="2.63963">
        <ele>125.59999847412</ele>
        <time>2021-06-03T13:15:26Z</time>
      </trkpt>
      <trkpt lat="48.40352" lon="2.63957">
        <ele>126.40000152588</ele>
        <time>2021-06-03T13:15:31Z</time>
      </trkpt>
      <trkpt lat="48.40354" lon="2.6395">
        <ele>126.59999847412</ele>
        <time>2021-06-03T13:15:36Z</time>
      </trkpt>
      <trkpt lat="48.40355" lon="2.63944">
        <ele>127</ele>
        <time>2021-06-03T13:15:41Z</time>
      </trkpt>
      <trkpt lat="48.40355" lon="2.63939">
        <ele>127.40000152588</ele>
        <time>2021-06-03T13:15:46Z</time>
      </trkpt>
      <trkpt lat="48.40357" lon="2.63935">
        <ele>127.80000305176</ele>
        <time>2021-06-03T13:15:51Z</time>
      </trkpt>
      <trkpt lat="48.40357" lon="2.63929">
        <ele>127.80000305176</ele>
        <time>2021-06-03T13:15:56Z</time>
      </trkpt>
      <trkpt lat="48.40357" lon="2.63923">
        <ele>128.19999694824</ele>
        <time>2021-06-03T13:16:01Z</time>
      </trkpt>
      <trkpt lat="48.40359" lon="2.63916">
        <ele>128.19999694824</ele>
        <time>2021-06-03T13:16:06Z</time>
      </trkpt>
      <trkpt lat="48.40361" lon="2.63906">
        <ele>128.39999389648</ele>
        <time>2021-06-03T13:16:11Z</time>
      </trkpt>
      <trkpt lat="48.40363" lon="2.63897">
        <ele>128.39999389648</ele>
        <time>2021-06-03T13:16:16Z</time>
      </trkpt>
      <trkpt lat="48.40365" lon="2.63891">
        <ele>128.39999389648</ele>
        <time>2021-06-03T13:16:21Z</time>
      </trkpt>
      <trkpt lat="48.40367" lon="2.63883">
        <ele>128.39999389648</ele>
        <time>2021-06-03T13:16:26Z</time>
      </trkpt>
      <trkpt lat="48.40369" lon="2.63876">
        <ele>128.39999389648</ele>
        <time>2021-06-03T13:16:31Z</time>
      </trkpt>
      <trkpt lat="48.40373" lon="2.63872">
        <ele>128.39999389648</ele>
        <time>2021-06-03T13:16:36Z</time>
      </trkpt>
      <trkpt lat="48.40378" lon="2.63866">
        <ele>128.60000610352</ele>
        <time>2021-06-03T13:16:41Z</time>
      </trkpt>
      <trkpt lat="48.40383" lon="2.6386">
        <ele>128.80000305176</ele>
        <time>2021-06-03T13:16:46Z</time>
      </trkpt>
      <trkpt lat="48.40388" lon="2.63854">
        <ele>128.60000610352</ele>
        <time>2021-06-03T13:16:51Z</time>
      </trkpt>
      <trkpt lat="48.40392" lon="2.63848">
        <ele>128.39999389648</ele>
        <time>2021-06-03T13:16:56Z</time>
      </trkpt>
      <trkpt lat="48.40396" lon="2.63846">
        <ele>128.39999389648</ele>
        <time>2021-06-03T13:17:01Z</time>
      </trkpt>
      <trkpt lat="48.40399" lon="2.63843">
        <ele>128.39999389648</ele>
        <time>2021-06-03T13:17:06Z</time>
      </trkpt>
      <trkpt lat="48.40403" lon="2.63842">
        <ele>128.39999389648</ele>
        <time>2021-06-03T13:17:11Z</time>
      </trkpt>
      <trkpt lat="48.40406" lon="2.63841">
        <ele>128.39999389648</ele>
        <time>2021-06-03T13:17:16Z</time>
      </trkpt>
      <trkpt lat="48.40408" lon="2.63834">
        <ele>128.19999694824</ele>
        <time>2021-06-03T13:17:21Z</time>
      </trkpt>
      <trkpt lat="48.4041" lon="2.63829">
        <ele>128.19999694824</ele>
        <time>2021-06-03T13:17:26Z</time>
      </trkpt>
      <trkpt lat="48.4041" lon="2.63829">
        <ele>128</ele>
        <time>2021-06-03T13:17:31Z</time>
      </trkpt>
      <trkpt lat="48.4041" lon="2.63829">
        <ele>128</ele>
        <time>2021-06-03T13:17:36Z</time>
      </trkpt>
      <trkpt lat="48.40411" lon="2.6383">
        <ele>128</ele>
        <time>2021-06-03T13:17:41Z</time>
      </trkpt>
      <trkpt lat="48.40412" lon="2.6383">
        <ele>128</ele>
        <time>2021-06-03T13:17:46Z</time>
      </trkpt>
      <trkpt lat="48.40413" lon="2.63831">
        <ele>128</ele>
        <time>2021-06-03T13:17:51Z</time>
      </trkpt>
      <trkpt lat="48.40412" lon="2.6383">
        <ele>128</ele>
        <time>2021-06-03T13:17:56Z</time>
      </trkpt>
      <trkpt lat="48.40413" lon="2.63829">
        <ele>128</ele>
        <time>2021-06-03T13:18:01Z</time>
      </trkpt>
      <trkpt lat="48.40413" lon="2.63828">
        <ele>128</ele>
        <time>2021-06-03T13:18:06Z</time>
      </trkpt>
      <trkpt lat="48.40413" lon="2.63828">
        <ele>128</ele>
        <time>2021-06-03T13:18:11Z</time>
      </trkpt>
      <trkpt lat="48.40413" lon="2.63827">
        <ele>128</ele>
        <time>2021-06-03T13:18:16Z</time>
      </trkpt>
      <trkpt lat="48.40413" lon="2.63827">
        <ele>128</ele>
        <time>2021-06-03T13:18:21Z</time>
      </trkpt>
      <trkpt lat="48.40413" lon="2.6382">
        <ele>128</ele>
        <time>2021-06-03T13:18:26Z</time>
      </trkpt>
      <trkpt lat="48.40415" lon="2.63811">
        <ele>128</ele>
        <time>2021-06-03T13:18:31Z</time>
      </trkpt>
      <trkpt lat="48.40419" lon="2.63802">
        <ele>128.19999694824</ele>
        <time>2021-06-03T13:18:36Z</time>
      </trkpt>
      <trkpt lat="48.40419" lon="2.63794">
        <ele>128.19999694824</ele>
        <time>2021-06-03T13:18:41Z</time>
      </trkpt>
      <trkpt lat="48.40421" lon="2.63785">
        <ele>128.39999389648</ele>
        <time>2021-06-03T13:18:46Z</time>
      </trkpt>
      <trkpt lat="48.40422" lon="2.63778">
        <ele>128.19999694824</ele>
        <time>2021-06-03T13:18:51Z</time>
      </trkpt>
      <trkpt lat="48.40424" lon="2.63771">
        <ele>128.19999694824</ele>
        <time>2021-06-03T13:18:56Z</time>
      </trkpt>
      <trkpt lat="48.40424" lon="2.63764">
        <ele>128.19999694824</ele>
        <time>2021-06-03T13:19:01Z</time>
      </trkpt>
      <trkpt lat="48.40424" lon="2.63756">
        <ele>128.19999694824</ele>
        <time>2021-06-03T13:19:06Z</time>
      </trkpt>
      <trkpt lat="48.40426" lon="2.63749">
        <ele>128.19999694824</ele>
        <time>2021-06-03T13:19:11Z</time>
      </trkpt>
      <trkpt lat="48.40426" lon="2.63741">
        <ele>128.19999694824</ele>
        <time>2021-06-03T13:19:16Z</time>
      </trkpt>
      <trkpt lat="48.40428" lon="2.63732">
        <ele>128.19999694824</ele>
        <time>2021-06-03T13:19:21Z</time>
      </trkpt>
      <trkpt lat="48.40429" lon="2.63724">
        <ele>128.19999694824</ele>
        <time>2021-06-03T13:19:26Z</time>
      </trkpt>
      <trkpt lat="48.4043" lon="2.63716">
        <ele>128.19999694824</ele>
        <time>2021-06-03T13:19:31Z</time>
      </trkpt>
      <trkpt lat="48.40431" lon="2.63708">
        <ele>128.19999694824</ele>
        <time>2021-06-03T13:19:36Z</time>
      </trkpt>
      <trkpt lat="48.40432" lon="2.63702">
        <ele>128.19999694824</ele>
        <time>2021-06-03T13:19:41Z</time>
      </trkpt>
      <trkpt lat="48.40433" lon="2.63694">
        <ele>128.19999694824</ele>
        <time>2021-06-03T13:19:46Z</time>
      </trkpt>
      <trkpt lat="48.40435" lon="2.63685">
        <ele>128.19999694824</ele>
        <time>2021-06-03T13:19:51Z</time>
      </trkpt>
      <trkpt lat="48.40437" lon="2.63677">
        <ele>128.19999694824</ele>
        <time>2021-06-03T13:19:56Z</time>
      </trkpt>
      <trkpt lat="48.40438" lon="2.6367">
        <ele>128</ele>
        <time>2021-06-03T13:20:01Z</time>
      </trkpt>
      <trkpt lat="48.40438" lon="2.63661">
        <ele>128.19999694824</ele>
        <time>2021-06-03T13:20:06Z</time>
      </trkpt>
      <trkpt lat="48.40439" lon="2.63652">
        <ele>128.19999694824</ele>
        <time>2021-06-03T13:20:11Z</time>
      </trkpt>
      <trkpt lat="48.4044" lon="2.63644">
        <ele>128</ele>
        <time>2021-06-03T13:20:16Z</time>
      </trkpt>
      <trkpt lat="48.40441" lon="2.63639">
        <ele>128.19999694824</ele>
        <time>2021-06-03T13:20:21Z</time>
      </trkpt>
      <trkpt lat="48.40442" lon="2.63631">
        <ele>128.19999694824</ele>
        <time>2021-06-03T13:20:26Z</time>
      </trkpt>
      <trkpt lat="48.40443" lon="2.63622">
        <ele>128.19999694824</ele>
        <time>2021-06-03T13:20:31Z</time>
      </trkpt>
      <trkpt lat="48.40445" lon="2.63612">
        <ele>128.19999694824</ele>
        <time>2021-06-03T13:20:36Z</time>
      </trkpt>
      <trkpt lat="48.40447" lon="2.63604">
        <ele>128.39999389648</ele>
        <time>2021-06-03T13:20:41Z</time>
      </trkpt>
      <trkpt lat="48.40447" lon="2.63594">
        <ele>128.39999389648</ele>
        <time>2021-06-03T13:20:46Z</time>
      </trkpt>
      <trkpt lat="48.40448" lon="2.63584">
        <ele>128.19999694824</ele>
        <time>2021-06-03T13:20:51Z</time>
      </trkpt>
      <trkpt lat="48.40448" lon="2.63574">
        <ele>128.19999694824</ele>
        <time>2021-06-03T13:20:56Z</time>
      </trkpt>
      <trkpt lat="48.40448" lon="2.63567">
        <ele>128.19999694824</ele>
        <time>2021-06-03T13:21:01Z</time>
      </trkpt>
      <trkpt lat="48.4045" lon="2.63559">
        <ele>128.19999694824</ele>
        <time>2021-06-03T13:21:06Z</time>
      </trkpt>
      <trkpt lat="48.40451" lon="2.63548">
        <ele>128.19999694824</ele>
        <time>2021-06-03T13:21:11Z</time>
      </trkpt>
      <trkpt lat="48.40452" lon="2.6354">
        <ele>128.39999389648</ele>
        <time>2021-06-03T13:21:16Z</time>
      </trkpt>
      <trkpt lat="48.40454" lon="2.63531">
        <ele>128.19999694824</ele>
        <time>2021-06-03T13:21:21Z</time>
      </trkpt>
      <trkpt lat="48.40456" lon="2.63522">
        <ele>128.19999694824</ele>
        <time>2021-06-03T13:21:26Z</time>
      </trkpt>
      <trkpt lat="48.40457" lon="2.63514">
        <ele>128.19999694824</ele>
        <time>2021-06-03T13:21:31Z</time>
      </trkpt>
      <trkpt lat="48.40459" lon="2.63507">
        <ele>128.19999694824</ele>
        <time>2021-06-03T13:21:36Z</time>
      </trkpt>
      <trkpt lat="48.4046" lon="2.63495">
        <ele>128.19999694824</ele>
        <time>2021-06-03T13:21:41Z</time>
      </trkpt>
      <trkpt lat="48.40461" lon="2.63485">
        <ele>128.19999694824</ele>
        <time>2021-06-03T13:21:46Z</time>
      </trkpt>
      <trkpt lat="48.40462" lon="2.63476">
        <ele>128</ele>
        <time>2021-06-03T13:21:51Z</time>
      </trkpt>
      <trkpt lat="48.40464" lon="2.63469">
        <ele>127.80000305176</ele>
        <time>2021-06-03T13:21:56Z</time>
      </trkpt>
      <trkpt lat="48.40466" lon="2.63463">
        <ele>127.80000305176</ele>
        <time>2021-06-03T13:22:01Z</time>
      </trkpt>
      <trkpt lat="48.40469" lon="2.63456">
        <ele>128</ele>
        <time>2021-06-03T13:22:06Z</time>
      </trkpt>
      <trkpt lat="48.40473" lon="2.63455">
        <ele>127.80000305176</ele>
        <time>2021-06-03T13:22:11Z</time>
      </trkpt>
      <trkpt lat="48.40477" lon="2.63456">
        <ele>127.40000152588</ele>
        <time>2021-06-03T13:22:16Z</time>
      </trkpt>
      <trkpt lat="48.40482" lon="2.6346">
        <ele>127.40000152588</ele>
        <time>2021-06-03T13:22:21Z</time>
      </trkpt>
      <trkpt lat="48.40485" lon="2.63466">
        <ele>127.59999847412</ele>
        <time>2021-06-03T13:22:26Z</time>
      </trkpt>
      <trkpt lat="48.4049" lon="2.6347">
        <ele>127.40000152588</ele>
        <time>2021-06-03T13:22:31Z</time>
      </trkpt>
      <trkpt lat="48.40494" lon="2.63475">
        <ele>127.80000305176</ele>
        <time>2021-06-03T13:22:36Z</time>
      </trkpt>
      <trkpt lat="48.405" lon="2.63479">
        <ele>128</ele>
        <time>2021-06-03T13:22:41Z</time>
      </trkpt>
      <trkpt lat="48.40505" lon="2.63477">
        <ele>128.19999694824</ele>
        <time>2021-06-03T13:22:46Z</time>
      </trkpt>
      <trkpt lat="48.40509" lon="2.63472">
        <ele>128.60000610352</ele>
        <time>2021-06-03T13:22:51Z</time>
      </trkpt>
      <trkpt lat="48.40512" lon="2.63467">
        <ele>128.60000610352</ele>
        <time>2021-06-03T13:22:56Z</time>
      </trkpt>
      <trkpt lat="48.40517" lon="2.63463">
        <ele>128.80000305176</ele>
        <time>2021-06-03T13:23:01Z</time>
      </trkpt>
      <trkpt lat="48.4052" lon="2.63459">
        <ele>129</ele>
        <time>2021-06-03T13:23:06Z</time>
      </trkpt>
      <trkpt lat="48.40524" lon="2.63455">
        <ele>129</ele>
        <time>2021-06-03T13:23:11Z</time>
      </trkpt>
      <trkpt lat="48.40528" lon="2.63451">
        <ele>129.19999694824</ele>
        <time>2021-06-03T13:23:16Z</time>
      </trkpt>
      <trkpt lat="48.40532" lon="2.63446">
        <ele>129.39999389648</ele>
        <time>2021-06-03T13:23:21Z</time>
      </trkpt>
      <trkpt lat="48.40534" lon="2.63442">
        <ele>129.80000305176</ele>
        <time>2021-06-03T13:23:26Z</time>
      </trkpt>
      <trkpt lat="48.40536" lon="2.63438">
        <ele>129.80000305176</ele>
        <time>2021-06-03T13:23:31Z</time>
      </trkpt>
      <trkpt lat="48.40541" lon="2.63432">
        <ele>129.60000610352</ele>
        <time>2021-06-03T13:23:36Z</time>
      </trkpt>
      <trkpt lat="48.40546" lon="2.63427">
        <ele>129.60000610352</ele>
        <time>2021-06-03T13:23:41Z</time>
      </trkpt>
      <trkpt lat="48.4055" lon="2.63421">
        <ele>129.60000610352</ele>
        <time>2021-06-03T13:23:46Z</time>
      </trkpt>
      <trkpt lat="48.40551" lon="2.63416">
        <ele>129.39999389648</ele>
        <time>2021-06-03T13:23:51Z</time>
      </trkpt>
      <trkpt lat="48.40551" lon="2.63416">
        <ele>129.39999389648</ele>
        <time>2021-06-03T13:23:56Z</time>
      </trkpt>
      <trkpt lat="48.40552" lon="2.63414">
        <ele>129.19999694824</ele>
        <time>2021-06-03T13:24:01Z</time>
      </trkpt>
      <trkpt lat="48.40552" lon="2.6341">
        <ele>129.19999694824</ele>
        <time>2021-06-03T13:24:06Z</time>
      </trkpt>
      <trkpt lat="48.40553" lon="2.63408">
        <ele>129.19999694824</ele>
        <time>2021-06-03T13:24:11Z</time>
      </trkpt>
      <trkpt lat="48.40552" lon="2.63408">
        <ele>129.39999389648</ele>
        <time>2021-06-03T13:24:16Z</time>
      </trkpt>
      <trkpt lat="48.40552" lon="2.63407">
        <ele>129.39999389648</ele>
        <time>2021-06-03T13:24:21Z</time>
      </trkpt>
      <trkpt lat="48.40552" lon="2.63408">
        <ele>129.39999389648</ele>
        <time>2021-06-03T13:24:26Z</time>
      </trkpt>
      <trkpt lat="48.40551" lon="2.63409">
        <ele>129.39999389648</ele>
        <time>2021-06-03T13:24:31Z</time>
      </trkpt>
      <trkpt lat="48.40554" lon="2.63409">
        <ele>129.39999389648</ele>
        <time>2021-06-03T13:24:36Z</time>
      </trkpt>
      <trkpt lat="48.40554" lon="2.63409">
        <ele>129.19999694824</ele>
        <time>2021-06-03T13:24:41Z</time>
      </trkpt>
      <trkpt lat="48.40555" lon="2.63409">
        <ele>129.19999694824</ele>
        <time>2021-06-03T13:24:46Z</time>
      </trkpt>
      <trkpt lat="48.40555" lon="2.63409">
        <ele>129</ele>
        <time>2021-06-03T13:24:51Z</time>
      </trkpt>
      <trkpt lat="48.40556" lon="2.6341">
        <ele>129</ele>
        <time>2021-06-03T13:24:56Z</time>
      </trkpt>
      <trkpt lat="48.40557" lon="2.63408">
        <ele>129</ele>
        <time>2021-06-03T13:25:01Z</time>
      </trkpt>
      <trkpt lat="48.40556" lon="2.63404">
        <ele>129</ele>
        <time>2021-06-03T13:25:06Z</time>
      </trkpt>
      <trkpt lat="48.40557" lon="2.63401">
        <ele>129</ele>
        <time>2021-06-03T13:25:11Z</time>
      </trkpt>
      <trkpt lat="48.40557" lon="2.63397">
        <ele>129</ele>
        <time>2021-06-03T13:25:16Z</time>
      </trkpt>
      <trkpt lat="48.40558" lon="2.63393">
        <ele>129</ele>
        <time>2021-06-03T13:25:21Z</time>
      </trkpt>
      <trkpt lat="48.4056" lon="2.63387">
        <ele>129</ele>
        <time>2021-06-03T13:25:26Z</time>
      </trkpt>
      <trkpt lat="48.40561" lon="2.63383">
        <ele>129</ele>
        <time>2021-06-03T13:25:31Z</time>
      </trkpt>
      <trkpt lat="48.40564" lon="2.63381">
        <ele>129</ele>
        <time>2021-06-03T13:25:36Z</time>
      </trkpt>
      <trkpt lat="48.40568" lon="2.63376">
        <ele>129</ele>
        <time>2021-06-03T13:25:41Z</time>
      </trkpt>
      <trkpt lat="48.4057" lon="2.63371">
        <ele>129</ele>
        <time>2021-06-03T13:25:46Z</time>
      </trkpt>
      <trkpt lat="48.40572" lon="2.63367">
        <ele>129</ele>
        <time>2021-06-03T13:25:51Z</time>
      </trkpt>
      <trkpt lat="48.40575" lon="2.63362">
        <ele>129</ele>
        <time>2021-06-03T13:25:56Z</time>
      </trkpt>
      <trkpt lat="48.40578" lon="2.63357">
        <ele>129</ele>
        <time>2021-06-03T13:26:01Z</time>
      </trkpt>
      <trkpt lat="48.40583" lon="2.63352">
        <ele>129.19999694824</ele>
        <time>2021-06-03T13:26:06Z</time>
      </trkpt>
      <trkpt lat="48.40586" lon="2.63349">
        <ele>129.60000610352</ele>
        <time>2021-06-03T13:26:11Z</time>
      </trkpt>
      <trkpt lat="48.40589" lon="2.63345">
        <ele>129.60000610352</ele>
        <time>2021-06-03T13:26:16Z</time>
      </trkpt>
      <trkpt lat="48.40592" lon="2.6334">
        <ele>129.19999694824</ele>
        <time>2021-06-03T13:26:21Z</time>
      </trkpt>
      <trkpt lat="48.40594" lon="2.63333">
        <ele>128.39999389648</ele>
        <time>2021-06-03T13:26:26Z</time>
      </trkpt>
      <trkpt lat="48.40596" lon="2.63329">
        <ele>128.39999389648</ele>
        <time>2021-06-03T13:26:31Z</time>
      </trkpt>
      <trkpt lat="48.40597" lon="2.63325">
        <ele>128.39999389648</ele>
        <time>2021-06-03T13:26:36Z</time>
      </trkpt>
      <trkpt lat="48.406" lon="2.63319">
        <ele>128.39999389648</ele>
        <time>2021-06-03T13:26:41Z</time>
      </trkpt>
      <trkpt lat="48.40602" lon="2.63313">
        <ele>128.19999694824</ele>
        <time>2021-06-03T13:26:46Z</time>
      </trkpt>
      <trkpt lat="48.40605" lon="2.63306">
        <ele>128.39999389648</ele>
        <time>2021-06-03T13:26:51Z</time>
      </trkpt>
      <trkpt lat="48.40605" lon="2.63299">
        <ele>128</ele>
        <time>2021-06-03T13:26:56Z</time>
      </trkpt>
      <trkpt lat="48.40606" lon="2.63292">
        <ele>127.80000305176</ele>
        <time>2021-06-03T13:27:01Z</time>
      </trkpt>
      <trkpt lat="48.40606" lon="2.63284">
        <ele>127.40000152588</ele>
        <time>2021-06-03T13:27:06Z</time>
      </trkpt>
      <trkpt lat="48.40606" lon="2.63278">
        <ele>127.40000152588</ele>
        <time>2021-06-03T13:27:11Z</time>
      </trkpt>
      <trkpt lat="48.40607" lon="2.6327">
        <ele>127.40000152588</ele>
        <time>2021-06-03T13:27:16Z</time>
      </trkpt>
      <trkpt lat="48.40607" lon="2.63263">
        <ele>127.19999694824</ele>
        <time>2021-06-03T13:27:21Z</time>
      </trkpt>
      <trkpt lat="48.40608" lon="2.63256">
        <ele>127</ele>
        <time>2021-06-03T13:27:26Z</time>
      </trkpt>
      <trkpt lat="48.4061" lon="2.6325">
        <ele>127</ele>
        <time>2021-06-03T13:27:31Z</time>
      </trkpt>
      <trkpt lat="48.40609" lon="2.63245">
        <ele>127</ele>
        <time>2021-06-03T13:27:36Z</time>
      </trkpt>
      <trkpt lat="48.40611" lon="2.63242">
        <ele>127</ele>
        <time>2021-06-03T13:27:41Z</time>
      </trkpt>
      <trkpt lat="48.40614" lon="2.63235">
        <ele>126.80000305176</ele>
        <time>2021-06-03T13:27:46Z</time>
      </trkpt>
      <trkpt lat="48.40616" lon="2.63227">
        <ele>126.80000305176</ele>
        <time>2021-06-03T13:27:51Z</time>
      </trkpt>
      <trkpt lat="48.40617" lon="2.63218">
        <ele>126.80000305176</ele>
        <time>2021-06-03T13:27:56Z</time>
      </trkpt>
      <trkpt lat="48.40619" lon="2.6321">
        <ele>127</ele>
        <time>2021-06-03T13:28:01Z</time>
      </trkpt>
      <trkpt lat="48.4062" lon="2.63204">
        <ele>127.40000152588</ele>
        <time>2021-06-03T13:28:06Z</time>
      </trkpt>
      <trkpt lat="48.40617" lon="2.63197">
        <ele>127.40000152588</ele>
        <time>2021-06-03T13:28:11Z</time>
      </trkpt>
      <trkpt lat="48.40612" lon="2.63196">
        <ele>127.40000152588</ele>
        <time>2021-06-03T13:28:16Z</time>
      </trkpt>
      <trkpt lat="48.40607" lon="2.63196">
        <ele>127</ele>
        <time>2021-06-03T13:28:21Z</time>
      </trkpt>
      <trkpt lat="48.40601" lon="2.63193">
        <ele>126.40000152588</ele>
        <time>2021-06-03T13:28:26Z</time>
      </trkpt>
      <trkpt lat="48.40601" lon="2.63185">
        <ele>126</ele>
        <time>2021-06-03T13:28:31Z</time>
      </trkpt>
      <trkpt lat="48.40603" lon="2.63175">
        <ele>125.80000305176</ele>
        <time>2021-06-03T13:28:36Z</time>
      </trkpt>
      <trkpt lat="48.40607" lon="2.6317">
        <ele>125.80000305176</ele>
        <time>2021-06-03T13:28:41Z</time>
      </trkpt>
      <trkpt lat="48.40609" lon="2.63164">
        <ele>125.59999847412</ele>
        <time>2021-06-03T13:28:46Z</time>
      </trkpt>
      <trkpt lat="48.40609" lon="2.63158">
        <ele>125.80000305176</ele>
        <time>2021-06-03T13:28:51Z</time>
      </trkpt>
      <trkpt lat="48.40605" lon="2.63154">
        <ele>125.80000305176</ele>
        <time>2021-06-03T13:28:56Z</time>
      </trkpt>
      <trkpt lat="48.40603" lon="2.63148">
        <ele>125.80000305176</ele>
        <time>2021-06-03T13:29:01Z</time>
      </trkpt>
      <trkpt lat="48.40604" lon="2.63142">
        <ele>125.59999847412</ele>
        <time>2021-06-03T13:29:06Z</time>
      </trkpt>
      <trkpt lat="48.40607" lon="2.63139">
        <ele>125.80000305176</ele>
        <time>2021-06-03T13:29:11Z</time>
      </trkpt>
      <trkpt lat="48.40611" lon="2.63136">
        <ele>125.80000305176</ele>
        <time>2021-06-03T13:29:16Z</time>
      </trkpt>
      <trkpt lat="48.40615" lon="2.63137">
        <ele>126</ele>
        <time>2021-06-03T13:29:21Z</time>
      </trkpt>
      <trkpt lat="48.4062" lon="2.63137">
        <ele>126.19999694824</ele>
        <time>2021-06-03T13:29:26Z</time>
      </trkpt>
      <trkpt lat="48.40622" lon="2.63136">
        <ele>126.40000152588</ele>
        <time>2021-06-03T13:29:31Z</time>
      </trkpt>
      <trkpt lat="48.40626" lon="2.63134">
        <ele>126.40000152588</ele>
        <time>2021-06-03T13:29:36Z</time>
      </trkpt>
      <trkpt lat="48.40629" lon="2.63135">
        <ele>126.40000152588</ele>
        <time>2021-06-03T13:29:41Z</time>
      </trkpt>
      <trkpt lat="48.40631" lon="2.63137">
        <ele>126.40000152588</ele>
        <time>2021-06-03T13:29:46Z</time>
      </trkpt>
      <trkpt lat="48.40635" lon="2.63136">
        <ele>126.40000152588</ele>
        <time>2021-06-03T13:29:51Z</time>
      </trkpt>
      <trkpt lat="48.40639" lon="2.63137">
        <ele>126.40000152588</ele>
        <time>2021-06-03T13:29:56Z</time>
      </trkpt>
      <trkpt lat="48.40644" lon="2.63142">
        <ele>126.40000152588</ele>
        <time>2021-06-03T13:30:01Z</time>
      </trkpt>
      <trkpt lat="48.40648" lon="2.63148">
        <ele>126.40000152588</ele>
        <time>2021-06-03T13:30:06Z</time>
      </trkpt>
      <trkpt lat="48.40651" lon="2.63151">
        <ele>128.39999389648</ele>
        <time>2021-06-03T13:30:11Z</time>
      </trkpt>
      <trkpt lat="48.40655" lon="2.63154">
        <ele>128.80000305176</ele>
        <time>2021-06-03T13:30:16Z</time>
      </trkpt>
      <trkpt lat="48.40659" lon="2.63158">
        <ele>129</ele>
        <time>2021-06-03T13:30:21Z</time>
      </trkpt>
      <trkpt lat="48.40663" lon="2.63165">
        <ele>128.80000305176</ele>
        <time>2021-06-03T13:30:26Z</time>
      </trkpt>
      <trkpt lat="48.40664" lon="2.6317">
        <ele>128.80000305176</ele>
        <time>2021-06-03T13:30:31Z</time>
      </trkpt>
      <trkpt lat="48.40665" lon="2.63177">
        <ele>128.80000305176</ele>
        <time>2021-06-03T13:30:36Z</time>
      </trkpt>
      <trkpt lat="48.40667" lon="2.63181">
        <ele>128.60000610352</ele>
        <time>2021-06-03T13:30:41Z</time>
      </trkpt>
      <trkpt lat="48.40669" lon="2.63186">
        <ele>128.80000305176</ele>
        <time>2021-06-03T13:30:46Z</time>
      </trkpt>
      <trkpt lat="48.40672" lon="2.63188">
        <ele>129</ele>
        <time>2021-06-03T13:30:51Z</time>
      </trkpt>
      <trkpt lat="48.40675" lon="2.6319">
        <ele>129</ele>
        <time>2021-06-03T13:30:56Z</time>
      </trkpt>
      <trkpt lat="48.40678" lon="2.63195">
        <ele>129.19999694824</ele>
        <time>2021-06-03T13:31:01Z</time>
      </trkpt>
      <trkpt lat="48.40681" lon="2.632">
        <ele>129.19999694824</ele>
        <time>2021-06-03T13:31:06Z</time>
      </trkpt>
      <trkpt lat="48.40685" lon="2.63205">
        <ele>129.19999694824</ele>
        <time>2021-06-03T13:31:11Z</time>
      </trkpt>
      <trkpt lat="48.40689" lon="2.63209">
        <ele>129.39999389648</ele>
        <time>2021-06-03T13:31:16Z</time>
      </trkpt>
      <trkpt lat="48.40692" lon="2.63216">
        <ele>129.39999389648</ele>
        <time>2021-06-03T13:31:21Z</time>
      </trkpt>
      <trkpt lat="48.40698" lon="2.63222">
        <ele>129.39999389648</ele>
        <time>2021-06-03T13:31:26Z</time>
      </trkpt>
      <trkpt lat="48.407" lon="2.63224">
        <ele>129.39999389648</ele>
        <time>2021-06-03T13:31:31Z</time>
      </trkpt>
      <trkpt lat="48.40703" lon="2.63227">
        <ele>129.19999694824</ele>
        <time>2021-06-03T13:31:36Z</time>
      </trkpt>
      <trkpt lat="48.40708" lon="2.6323">
        <ele>129.19999694824</ele>
        <time>2021-06-03T13:31:41Z</time>
      </trkpt>
      <trkpt lat="48.40713" lon="2.63233">
        <ele>129</ele>
        <time>2021-06-03T13:31:46Z</time>
      </trkpt>
      <trkpt lat="48.40717" lon="2.63236">
        <ele>129</ele>
        <time>2021-06-03T13:31:51Z</time>
      </trkpt>
      <trkpt lat="48.40721" lon="2.63238">
        <ele>129</ele>
        <time>2021-06-03T13:31:56Z</time>
      </trkpt>
      <trkpt lat="48.40726" lon="2.6324">
        <ele>129.19999694824</ele>
        <time>2021-06-03T13:32:01Z</time>
      </trkpt>
      <trkpt lat="48.4073" lon="2.63239">
        <ele>129.19999694824</ele>
        <time>2021-06-03T13:32:06Z</time>
      </trkpt>
      <trkpt lat="48.40735" lon="2.63236">
        <ele>129.19999694824</ele>
        <time>2021-06-03T13:32:11Z</time>
      </trkpt>
      <trkpt lat="48.40741" lon="2.63233">
        <ele>129.19999694824</ele>
        <time>2021-06-03T13:32:16Z</time>
      </trkpt>
      <trkpt lat="48.40747" lon="2.63233">
        <ele>129.19999694824</ele>
        <time>2021-06-03T13:32:21Z</time>
      </trkpt>
      <trkpt lat="48.4075" lon="2.63232">
        <ele>129.39999389648</ele>
        <time>2021-06-03T13:32:26Z</time>
      </trkpt>
      <trkpt lat="48.40755" lon="2.63233">
        <ele>129.39999389648</ele>
        <time>2021-06-03T13:32:31Z</time>
      </trkpt>
      <trkpt lat="48.4076" lon="2.63233">
        <ele>129.60000610352</ele>
        <time>2021-06-03T13:32:36Z</time>
      </trkpt>
      <trkpt lat="48.40763" lon="2.63234">
        <ele>129.60000610352</ele>
        <time>2021-06-03T13:32:41Z</time>
      </trkpt>
      <trkpt lat="48.40767" lon="2.63233">
        <ele>129.60000610352</ele>
        <time>2021-06-03T13:32:46Z</time>
      </trkpt>
      <trkpt lat="48.40772" lon="2.63237">
        <ele>129.80000305176</ele>
        <time>2021-06-03T13:32:51Z</time>
      </trkpt>
      <trkpt lat="48.40776" lon="2.63237">
        <ele>130.19999694824</ele>
        <time>2021-06-03T13:32:56Z</time>
      </trkpt>
      <trkpt lat="48.40781" lon="2.63236">
        <ele>130.19999694824</ele>
        <time>2021-06-03T13:33:01Z</time>
      </trkpt>
      <trkpt lat="48.40785" lon="2.63234">
        <ele>130.39999389648</ele>
        <time>2021-06-03T13:33:06Z</time>
      </trkpt>
      <trkpt lat="48.4079" lon="2.63233">
        <ele>130.60000610352</ele>
        <time>2021-06-03T13:33:11Z</time>
      </trkpt>
      <trkpt lat="48.40795" lon="2.6323">
        <ele>130.60000610352</ele>
        <time>2021-06-03T13:33:16Z</time>
      </trkpt>
      <trkpt lat="48.40799" lon="2.63228">
        <ele>130.60000610352</ele>
        <time>2021-06-03T13:33:21Z</time>
      </trkpt>
      <trkpt lat="48.40804" lon="2.63226">
        <ele>130.60000610352</ele>
        <time>2021-06-03T13:33:26Z</time>
      </trkpt>
      <trkpt lat="48.40808" lon="2.63225">
        <ele>130.60000610352</ele>
        <time>2021-06-03T13:33:31Z</time>
      </trkpt>
      <trkpt lat="48.40813" lon="2.63225">
        <ele>130.60000610352</ele>
        <time>2021-06-03T13:33:36Z</time>
      </trkpt>
      <trkpt lat="48.40818" lon="2.63226">
        <ele>130.80000305176</ele>
        <time>2021-06-03T13:33:41Z</time>
      </trkpt>
      <trkpt lat="48.40823" lon="2.63226">
        <ele>131</ele>
        <time>2021-06-03T13:33:46Z</time>
      </trkpt>
      <trkpt lat="48.40828" lon="2.63226">
        <ele>131.19999694824</ele>
        <time>2021-06-03T13:33:51Z</time>
      </trkpt>
      <trkpt lat="48.40832" lon="2.63225">
        <ele>131</ele>
        <time>2021-06-03T13:33:56Z</time>
      </trkpt>
      <trkpt lat="48.40837" lon="2.63222">
        <ele>130.60000610352</ele>
        <time>2021-06-03T13:34:01Z</time>
      </trkpt>
      <trkpt lat="48.40841" lon="2.6322">
        <ele>130.60000610352</ele>
        <time>2021-06-03T13:34:06Z</time>
      </trkpt>
      <trkpt lat="48.40845" lon="2.63219">
        <ele>130.39999389648</ele>
        <time>2021-06-03T13:34:11Z</time>
      </trkpt>
      <trkpt lat="48.40849" lon="2.63216">
        <ele>130.19999694824</ele>
        <time>2021-06-03T13:34:16Z</time>
      </trkpt>
      <trkpt lat="48.40852" lon="2.63214">
        <ele>130</ele>
        <time>2021-06-03T13:34:21Z</time>
      </trkpt>
      <trkpt lat="48.40857" lon="2.63215">
        <ele>129.39999389648</ele>
        <time>2021-06-03T13:34:26Z</time>
      </trkpt>
      <trkpt lat="48.40862" lon="2.63218">
        <ele>129</ele>
        <time>2021-06-03T13:34:31Z</time>
      </trkpt>
      <trkpt lat="48.40866" lon="2.63217">
        <ele>129</ele>
        <time>2021-06-03T13:34:36Z</time>
      </trkpt>
      <trkpt lat="48.40871" lon="2.63215">
        <ele>129</ele>
        <time>2021-06-03T13:34:41Z</time>
      </trkpt>
      <trkpt lat="48.40876" lon="2.63212">
        <ele>128.80000305176</ele>
        <time>2021-06-03T13:34:46Z</time>
      </trkpt>
      <trkpt lat="48.40881" lon="2.63208">
        <ele>128.80000305176</ele>
        <time>2021-06-03T13:34:51Z</time>
      </trkpt>
      <trkpt lat="48.40886" lon="2.63205">
        <ele>128.80000305176</ele>
        <time>2021-06-03T13:34:56Z</time>
      </trkpt>
      <trkpt lat="48.4089" lon="2.63202">
        <ele>128.80000305176</ele>
        <time>2021-06-03T13:35:01Z</time>
      </trkpt>
      <trkpt lat="48.40895" lon="2.63198">
        <ele>128.60000610352</ele>
        <time>2021-06-03T13:35:06Z</time>
      </trkpt>
      <trkpt lat="48.409" lon="2.63196">
        <ele>128.80000305176</ele>
        <time>2021-06-03T13:35:11Z</time>
      </trkpt>
      <trkpt lat="48.40905" lon="2.63193">
        <ele>128.60000610352</ele>
        <time>2021-06-03T13:35:16Z</time>
      </trkpt>
      <trkpt lat="48.4091" lon="2.6319">
        <ele>128.60000610352</ele>
        <time>2021-06-03T13:35:21Z</time>
      </trkpt>
      <trkpt lat="48.40916" lon="2.63188">
        <ele>128.60000610352</ele>
        <time>2021-06-03T13:35:26Z</time>
      </trkpt>
      <trkpt lat="48.40922" lon="2.63187">
        <ele>128.60000610352</ele>
        <time>2021-06-03T13:35:31Z</time>
      </trkpt>
      <trkpt lat="48.40927" lon="2.63185">
        <ele>128.60000610352</ele>
        <time>2021-06-03T13:35:36Z</time>
      </trkpt>
      <trkpt lat="48.40932" lon="2.63188">
        <ele>128.60000610352</ele>
        <time>2021-06-03T13:35:41Z</time>
      </trkpt>
      <trkpt lat="48.40937" lon="2.63198">
        <ele>129</ele>
        <time>2021-06-03T13:35:46Z</time>
      </trkpt>
      <trkpt lat="48.4094" lon="2.63207">
        <ele>129.19999694824</ele>
        <time>2021-06-03T13:35:51Z</time>
      </trkpt>
      <trkpt lat="48.40941" lon="2.63216">
        <ele>129.39999389648</ele>
        <time>2021-06-03T13:35:56Z</time>
      </trkpt>
      <trkpt lat="48.40945" lon="2.63224">
        <ele>129.60000610352</ele>
        <time>2021-06-03T13:36:01Z</time>
      </trkpt>
      <trkpt lat="48.40946" lon="2.63233">
        <ele>129.60000610352</ele>
        <time>2021-06-03T13:36:06Z</time>
      </trkpt>
      <trkpt lat="48.40947" lon="2.63241">
        <ele>129.80000305176</ele>
        <time>2021-06-03T13:36:11Z</time>
      </trkpt>
      <trkpt lat="48.40948" lon="2.63249">
        <ele>129.80000305176</ele>
        <time>2021-06-03T13:36:16Z</time>
      </trkpt>
      <trkpt lat="48.4095" lon="2.63258">
        <ele>130</ele>
        <time>2021-06-03T13:36:21Z</time>
      </trkpt>
      <trkpt lat="48.40952" lon="2.63265">
        <ele>130</ele>
        <time>2021-06-03T13:36:26Z</time>
      </trkpt>
      <trkpt lat="48.40954" lon="2.63273">
        <ele>130.19999694824</ele>
        <time>2021-06-03T13:36:31Z</time>
      </trkpt>
      <trkpt lat="48.40956" lon="2.6328">
        <ele>130.19999694824</ele>
        <time>2021-06-03T13:36:36Z</time>
      </trkpt>
      <trkpt lat="48.40959" lon="2.63288">
        <ele>130.19999694824</ele>
        <time>2021-06-03T13:36:41Z</time>
      </trkpt>
      <trkpt lat="48.4096" lon="2.63294">
        <ele>130.39999389648</ele>
        <time>2021-06-03T13:36:46Z</time>
      </trkpt>
      <trkpt lat="48.4096" lon="2.63299">
        <ele>130.39999389648</ele>
        <time>2021-06-03T13:36:51Z</time>
      </trkpt>
      <trkpt lat="48.40961" lon="2.63302">
        <ele>130.39999389648</ele>
        <time>2021-06-03T13:36:56Z</time>
      </trkpt>
      <trkpt lat="48.40963" lon="2.63306">
        <ele>130.60000610352</ele>
        <time>2021-06-03T13:37:01Z</time>
      </trkpt>
      <trkpt lat="48.40964" lon="2.63312">
        <ele>130.60000610352</ele>
        <time>2021-06-03T13:37:06Z</time>
      </trkpt>
      <trkpt lat="48.40963" lon="2.63318">
        <ele>130.60000610352</ele>
        <time>2021-06-03T13:37:11Z</time>
      </trkpt>
      <trkpt lat="48.40963" lon="2.63322">
        <ele>130.60000610352</ele>
        <time>2021-06-03T13:37:16Z</time>
      </trkpt>
      <trkpt lat="48.40964" lon="2.63326">
        <ele>130.80000305176</ele>
        <time>2021-06-03T13:37:21Z</time>
      </trkpt>
      <trkpt lat="48.40966" lon="2.63332">
        <ele>130.80000305176</ele>
        <time>2021-06-03T13:37:26Z</time>
      </trkpt>
      <trkpt lat="48.40968" lon="2.63337">
        <ele>131</ele>
        <time>2021-06-03T13:37:31Z</time>
      </trkpt>
      <trkpt lat="48.40972" lon="2.63342">
        <ele>131</ele>
        <time>2021-06-03T13:37:36Z</time>
      </trkpt>
      <trkpt lat="48.40973" lon="2.63348">
        <ele>131</ele>
        <time>2021-06-03T13:37:41Z</time>
      </trkpt>
      <trkpt lat="48.40973" lon="2.63356">
        <ele>131</ele>
        <time>2021-06-03T13:37:46Z</time>
      </trkpt>
      <trkpt lat="48.40971" lon="2.63362">
        <ele>131.19999694824</ele>
        <time>2021-06-03T13:37:51Z</time>
      </trkpt>
      <trkpt lat="48.4097" lon="2.63366">
        <ele>131.19999694824</ele>
        <time>2021-06-03T13:37:56Z</time>
      </trkpt>
      <trkpt lat="48.40969" lon="2.63367">
        <ele>131.39999389648</ele>
        <time>2021-06-03T13:38:01Z</time>
      </trkpt>
      <trkpt lat="48.40968" lon="2.63367">
        <ele>131.39999389648</ele>
        <time>2021-06-03T13:38:06Z</time>
      </trkpt>
      <trkpt lat="48.40969" lon="2.63367">
        <ele>131.39999389648</ele>
        <time>2021-06-03T13:38:11Z</time>
      </trkpt>
      <trkpt lat="48.4097" lon="2.63368">
        <ele>131.60000610352</ele>
        <time>2021-06-03T13:38:16Z</time>
      </trkpt>
      <trkpt lat="48.4097" lon="2.63368">
        <ele>131.60000610352</ele>
        <time>2021-06-03T13:38:21Z</time>
      </trkpt>
      <trkpt lat="48.4097" lon="2.63373">
        <ele>131.60000610352</ele>
        <time>2021-06-03T13:38:26Z</time>
      </trkpt>
      <trkpt lat="48.40971" lon="2.6338">
        <ele>131.60000610352</ele>
        <time>2021-06-03T13:38:31Z</time>
      </trkpt>
      <trkpt lat="48.40972" lon="2.63385">
        <ele>131.80000305176</ele>
        <time>2021-06-03T13:38:36Z</time>
      </trkpt>
      <trkpt lat="48.40972" lon="2.63391">
        <ele>131.80000305176</ele>
        <time>2021-06-03T13:38:41Z</time>
      </trkpt>
      <trkpt lat="48.4097" lon="2.63396">
        <ele>131.80000305176</ele>
        <time>2021-06-03T13:38:46Z</time>
      </trkpt>
      <trkpt lat="48.4097" lon="2.63401">
        <ele>131.80000305176</ele>
        <time>2021-06-03T13:38:51Z</time>
      </trkpt>
      <trkpt lat="48.40969" lon="2.63406">
        <ele>131.80000305176</ele>
        <time>2021-06-03T13:38:56Z</time>
      </trkpt>
      <trkpt lat="48.40967" lon="2.63412">
        <ele>132</ele>
        <time>2021-06-03T13:39:01Z</time>
      </trkpt>
      <trkpt lat="48.40963" lon="2.63416">
        <ele>132</ele>
        <time>2021-06-03T13:39:06Z</time>
      </trkpt>
      <trkpt lat="48.40961" lon="2.63419">
        <ele>131.80000305176</ele>
        <time>2021-06-03T13:39:11Z</time>
      </trkpt>
      <trkpt lat="48.4096" lon="2.63424">
        <ele>131.80000305176</ele>
        <time>2021-06-03T13:39:16Z</time>
      </trkpt>
      <trkpt lat="48.40959" lon="2.63428">
        <ele>131.60000610352</ele>
        <time>2021-06-03T13:39:21Z</time>
      </trkpt>
      <trkpt lat="48.40957" lon="2.63432">
        <ele>131.60000610352</ele>
        <time>2021-06-03T13:39:26Z</time>
      </trkpt>
      <trkpt lat="48.40955" lon="2.63436">
        <ele>131.60000610352</ele>
        <time>2021-06-03T13:39:31Z</time>
      </trkpt>
      <trkpt lat="48.40951" lon="2.63441">
        <ele>131.60000610352</ele>
        <time>2021-06-03T13:39:36Z</time>
      </trkpt>
      <trkpt lat="48.40948" lon="2.63445">
        <ele>131.39999389648</ele>
        <time>2021-06-03T13:39:41Z</time>
      </trkpt>
      <trkpt lat="48.40945" lon="2.63448">
        <ele>131.39999389648</ele>
        <time>2021-06-03T13:39:46Z</time>
      </trkpt>
      <trkpt lat="48.40941" lon="2.63452">
        <ele>131.39999389648</ele>
        <time>2021-06-03T13:39:51Z</time>
      </trkpt>
      <trkpt lat="48.40935" lon="2.63457">
        <ele>131.39999389648</ele>
        <time>2021-06-03T13:39:56Z</time>
      </trkpt>
      <trkpt lat="48.40932" lon="2.63462">
        <ele>131.60000610352</ele>
        <time>2021-06-03T13:40:01Z</time>
      </trkpt>
      <trkpt lat="48.40929" lon="2.63468">
        <ele>131.60000610352</ele>
        <time>2021-06-03T13:40:06Z</time>
      </trkpt>
      <trkpt lat="48.40927" lon="2.63474">
        <ele>131.60000610352</ele>
        <time>2021-06-03T13:40:11Z</time>
      </trkpt>
      <trkpt lat="48.40926" lon="2.63479">
        <ele>131.39999389648</ele>
        <time>2021-06-03T13:40:16Z</time>
      </trkpt>
      <trkpt lat="48.40926" lon="2.63485">
        <ele>131.39999389648</ele>
        <time>2021-06-03T13:40:21Z</time>
      </trkpt>
      <trkpt lat="48.40927" lon="2.6349">
        <ele>131.39999389648</ele>
        <time>2021-06-03T13:40:26Z</time>
      </trkpt>
      <trkpt lat="48.40927" lon="2.63496">
        <ele>131.39999389648</ele>
        <time>2021-06-03T13:40:31Z</time>
      </trkpt>
      <trkpt lat="48.40926" lon="2.63505">
        <ele>131.39999389648</ele>
        <time>2021-06-03T13:40:36Z</time>
      </trkpt>
      <trkpt lat="48.40924" lon="2.63515">
        <ele>131.60000610352</ele>
        <time>2021-06-03T13:40:41Z</time>
      </trkpt>
      <trkpt lat="48.40923" lon="2.63524">
        <ele>131.39999389648</ele>
        <time>2021-06-03T13:40:46Z</time>
      </trkpt>
      <trkpt lat="48.40922" lon="2.63531">
        <ele>131.60000610352</ele>
        <time>2021-06-03T13:40:51Z</time>
      </trkpt>
      <trkpt lat="48.40921" lon="2.63538">
        <ele>131.39999389648</ele>
        <time>2021-06-03T13:40:56Z</time>
      </trkpt>
      <trkpt lat="48.40921" lon="2.63543">
        <ele>131.60000610352</ele>
        <time>2021-06-03T13:41:01Z</time>
      </trkpt>
      <trkpt lat="48.4092" lon="2.6355">
        <ele>131.60000610352</ele>
        <time>2021-06-03T13:41:06Z</time>
      </trkpt>
      <trkpt lat="48.40918" lon="2.63557">
        <ele>131.60000610352</ele>
        <time>2021-06-03T13:41:11Z</time>
      </trkpt>
      <trkpt lat="48.40918" lon="2.63563">
        <ele>131.39999389648</ele>
        <time>2021-06-03T13:41:16Z</time>
      </trkpt>
      <trkpt lat="48.40916" lon="2.63568">
        <ele>131.39999389648</ele>
        <time>2021-06-03T13:41:21Z</time>
      </trkpt>
      <trkpt lat="48.40915" lon="2.63574">
        <ele>131.60000610352</ele>
        <time>2021-06-03T13:41:26Z</time>
      </trkpt>
      <trkpt lat="48.40915" lon="2.63582">
        <ele>131.60000610352</ele>
        <time>2021-06-03T13:41:31Z</time>
      </trkpt>
      <trkpt lat="48.40914" lon="2.63589">
        <ele>131.39999389648</ele>
        <time>2021-06-03T13:41:35Z</time>
      </trkpt>
      <trkpt lat="48.40913" lon="2.63597">
        <ele>131.39999389648</ele>
        <time>2021-06-03T13:41:42Z</time>
      </trkpt>
      <trkpt lat="48.4091" lon="2.63603">
        <ele>131.39999389648</ele>
        <time>2021-06-03T13:41:47Z</time>
      </trkpt>
      <trkpt lat="48.40908" lon="2.63612">
        <ele>131.39999389648</ele>
        <time>2021-06-03T13:41:52Z</time>
      </trkpt>
      <trkpt lat="48.40908" lon="2.6362">
        <ele>131.39999389648</ele>
        <time>2021-06-03T13:41:57Z</time>
      </trkpt>
      <trkpt lat="48.40907" lon="2.63628">
        <ele>131.39999389648</ele>
        <time>2021-06-03T13:42:02Z</time>
      </trkpt>
      <trkpt lat="48.40906" lon="2.63636">
        <ele>131.19999694824</ele>
        <time>2021-06-03T13:42:07Z</time>
      </trkpt>
      <trkpt lat="48.40904" lon="2.63643">
        <ele>131.19999694824</ele>
        <time>2021-06-03T13:42:12Z</time>
      </trkpt>
      <trkpt lat="48.40903" lon="2.63652">
        <ele>131.19999694824</ele>
        <time>2021-06-03T13:42:17Z</time>
      </trkpt>
      <trkpt lat="48.40903" lon="2.63659">
        <ele>131</ele>
        <time>2021-06-03T13:42:22Z</time>
      </trkpt>
      <trkpt lat="48.40903" lon="2.63668">
        <ele>131</ele>
        <time>2021-06-03T13:42:27Z</time>
      </trkpt>
      <trkpt lat="48.40903" lon="2.63674">
        <ele>131</ele>
        <time>2021-06-03T13:42:32Z</time>
      </trkpt>
      <trkpt lat="48.409" lon="2.63681">
        <ele>131</ele>
        <time>2021-06-03T13:42:37Z</time>
      </trkpt>
      <trkpt lat="48.40899" lon="2.63689">
        <ele>131.19999694824</ele>
        <time>2021-06-03T13:42:42Z</time>
      </trkpt>
      <trkpt lat="48.40898" lon="2.63695">
        <ele>131</ele>
        <time>2021-06-03T13:42:47Z</time>
      </trkpt>
      <trkpt lat="48.40897" lon="2.63701">
        <ele>131</ele>
        <time>2021-06-03T13:42:52Z</time>
      </trkpt>
      <trkpt lat="48.40896" lon="2.63708">
        <ele>131</ele>
        <time>2021-06-03T13:42:57Z</time>
      </trkpt>
      <trkpt lat="48.40895" lon="2.63717">
        <ele>130.60000610352</ele>
        <time>2021-06-03T13:43:02Z</time>
      </trkpt>
      <trkpt lat="48.40895" lon="2.63726">
        <ele>130.60000610352</ele>
        <time>2021-06-03T13:43:07Z</time>
      </trkpt>
      <trkpt lat="48.40893" lon="2.63736">
        <ele>130.60000610352</ele>
        <time>2021-06-03T13:43:12Z</time>
      </trkpt>
      <trkpt lat="48.40891" lon="2.63744">
        <ele>130.60000610352</ele>
        <time>2021-06-03T13:43:17Z</time>
      </trkpt>
      <trkpt lat="48.40888" lon="2.63751">
        <ele>130.60000610352</ele>
        <time>2021-06-03T13:43:22Z</time>
      </trkpt>
      <trkpt lat="48.40886" lon="2.63757">
        <ele>130.60000610352</ele>
        <time>2021-06-03T13:43:27Z</time>
      </trkpt>
      <trkpt lat="48.40887" lon="2.63763">
        <ele>130.60000610352</ele>
        <time>2021-06-03T13:43:32Z</time>
      </trkpt>
      <trkpt lat="48.40885" lon="2.6377">
        <ele>130.60000610352</ele>
        <time>2021-06-03T13:43:37Z</time>
      </trkpt>
      <trkpt lat="48.40883" lon="2.6378">
        <ele>130.39999389648</ele>
        <time>2021-06-03T13:43:42Z</time>
      </trkpt>
      <trkpt lat="48.40883" lon="2.63787">
        <ele>130.39999389648</ele>
        <time>2021-06-03T13:43:47Z</time>
      </trkpt>
      <trkpt lat="48.4088" lon="2.63793">
        <ele>130.60000610352</ele>
        <time>2021-06-03T13:43:52Z</time>
      </trkpt>
      <trkpt lat="48.40876" lon="2.63801">
        <ele>130.60000610352</ele>
        <time>2021-06-03T13:43:57Z</time>
      </trkpt>
      <trkpt lat="48.40876" lon="2.63806">
        <ele>130.60000610352</ele>
        <time>2021-06-03T13:44:02Z</time>
      </trkpt>
      <trkpt lat="48.40874" lon="2.6381">
        <ele>130.60000610352</ele>
        <time>2021-06-03T13:44:07Z</time>
      </trkpt>
      <trkpt lat="48.40873" lon="2.63816">
        <ele>130.60000610352</ele>
        <time>2021-06-03T13:44:12Z</time>
      </trkpt>
      <trkpt lat="48.40873" lon="2.63823">
        <ele>130.60000610352</ele>
        <time>2021-06-03T13:44:17Z</time>
      </trkpt>
      <trkpt lat="48.40871" lon="2.63834">
        <ele>130.60000610352</ele>
        <time>2021-06-03T13:44:22Z</time>
      </trkpt>
      <trkpt lat="48.40868" lon="2.63843">
        <ele>130.60000610352</ele>
        <time>2021-06-03T13:44:27Z</time>
      </trkpt>
      <trkpt lat="48.40866" lon="2.63848">
        <ele>130.39999389648</ele>
        <time>2021-06-03T13:44:32Z</time>
      </trkpt>
      <trkpt lat="48.40862" lon="2.63852">
        <ele>130.39999389648</ele>
        <time>2021-06-03T13:44:37Z</time>
      </trkpt>
      <trkpt lat="48.40857" lon="2.63856">
        <ele>130.39999389648</ele>
        <time>2021-06-03T13:44:42Z</time>
      </trkpt>
      <trkpt lat="48.40851" lon="2.63861">
        <ele>130.39999389648</ele>
        <time>2021-06-03T13:44:47Z</time>
      </trkpt>
      <trkpt lat="48.40848" lon="2.63866">
        <ele>130.19999694824</ele>
        <time>2021-06-03T13:44:52Z</time>
      </trkpt>
      <trkpt lat="48.40847" lon="2.63869">
        <ele>130.19999694824</ele>
        <time>2021-06-03T13:44:57Z</time>
      </trkpt>
      <trkpt lat="48.40845" lon="2.63869">
        <ele>130.39999389648</ele>
        <time>2021-06-03T13:45:02Z</time>
      </trkpt>
      <trkpt lat="48.40845" lon="2.63871">
        <ele>130.39999389648</ele>
        <time>2021-06-03T13:45:07Z</time>
      </trkpt>
      <trkpt lat="48.40845" lon="2.63871">
        <ele>130.39999389648</ele>
        <time>2021-06-03T13:45:12Z</time>
      </trkpt>
      <trkpt lat="48.40845" lon="2.63872">
        <ele>130.39999389648</ele>
        <time>2021-06-03T13:45:17Z</time>
      </trkpt>
      <trkpt lat="48.40846" lon="2.63872">
        <ele>130.39999389648</ele>
        <time>2021-06-03T13:45:22Z</time>
      </trkpt>
      <trkpt lat="48.40846" lon="2.63873">
        <ele>130.39999389648</ele>
        <time>2021-06-03T13:45:27Z</time>
      </trkpt>
      <trkpt lat="48.40845" lon="2.63873">
        <ele>130.39999389648</ele>
        <time>2021-06-03T13:45:32Z</time>
      </trkpt>
      <trkpt lat="48.40842" lon="2.63879">
        <ele>130.39999389648</ele>
        <time>2021-06-03T13:45:37Z</time>
      </trkpt>
      <trkpt lat="48.40841" lon="2.63882">
        <ele>130.39999389648</ele>
        <time>2021-06-03T13:45:42Z</time>
      </trkpt>
      <trkpt lat="48.40839" lon="2.6389">
        <ele>130.60000610352</ele>
        <time>2021-06-03T13:45:47Z</time>
      </trkpt>
      <trkpt lat="48.40839" lon="2.63898">
        <ele>130.60000610352</ele>
        <time>2021-06-03T13:45:52Z</time>
      </trkpt>
      <trkpt lat="48.40839" lon="2.63903">
        <ele>130.80000305176</ele>
        <time>2021-06-03T13:45:57Z</time>
      </trkpt>
      <trkpt lat="48.40839" lon="2.63909">
        <ele>130.80000305176</ele>
        <time>2021-06-03T13:46:02Z</time>
      </trkpt>
      <trkpt lat="48.40838" lon="2.63916">
        <ele>131</ele>
        <time>2021-06-03T13:46:07Z</time>
      </trkpt>
      <trkpt lat="48.40836" lon="2.63924">
        <ele>131</ele>
        <time>2021-06-03T13:46:12Z</time>
      </trkpt>
      <trkpt lat="48.40831" lon="2.63929">
        <ele>130.80000305176</ele>
        <time>2021-06-03T13:46:17Z</time>
      </trkpt>
      <trkpt lat="48.40827" lon="2.63932">
        <ele>130.80000305176</ele>
        <time>2021-06-03T13:46:22Z</time>
      </trkpt>
      <trkpt lat="48.40823" lon="2.63938">
        <ele>130.60000610352</ele>
        <time>2021-06-03T13:46:27Z</time>
      </trkpt>
      <trkpt lat="48.40818" lon="2.63944">
        <ele>130.60000610352</ele>
        <time>2021-06-03T13:46:32Z</time>
      </trkpt>
      <trkpt lat="48.40814" lon="2.63948">
        <ele>130.39999389648</ele>
        <time>2021-06-03T13:46:37Z</time>
      </trkpt>
      <trkpt lat="48.4081" lon="2.63953">
        <ele>130.19999694824</ele>
        <time>2021-06-03T13:46:42Z</time>
      </trkpt>
      <trkpt lat="48.40806" lon="2.63959">
        <ele>130.19999694824</ele>
        <time>2021-06-03T13:46:47Z</time>
      </trkpt>
      <trkpt lat="48.40802" lon="2.63965">
        <ele>130.19999694824</ele>
        <time>2021-06-03T13:46:52Z</time>
      </trkpt>
      <trkpt lat="48.40798" lon="2.63969">
        <ele>130.19999694824</ele>
        <time>2021-06-03T13:46:57Z</time>
      </trkpt>
      <trkpt lat="48.40795" lon="2.63971">
        <ele>130.60000610352</ele>
        <time>2021-06-03T13:47:02Z</time>
      </trkpt>
      <trkpt lat="48.40791" lon="2.63972">
        <ele>131</ele>
        <time>2021-06-03T13:47:07Z</time>
      </trkpt>
      <trkpt lat="48.40787" lon="2.63975">
        <ele>131.19999694824</ele>
        <time>2021-06-03T13:47:12Z</time>
      </trkpt>
      <trkpt lat="48.4078" lon="2.63983">
        <ele>131.60000610352</ele>
        <time>2021-06-03T13:47:18Z</time>
      </trkpt>
      <trkpt lat="48.40775" lon="2.63988">
        <ele>131.60000610352</ele>
        <time>2021-06-03T13:47:23Z</time>
      </trkpt>
      <trkpt lat="48.40772" lon="2.63992">
        <ele>132</ele>
        <time>2021-06-03T13:47:28Z</time>
      </trkpt>
      <trkpt lat="48.40769" lon="2.63997">
        <ele>132</ele>
        <time>2021-06-03T13:47:33Z</time>
      </trkpt>
      <trkpt lat="48.40766" lon="2.64">
        <ele>131.80000305176</ele>
        <time>2021-06-03T13:47:38Z</time>
      </trkpt>
      <trkpt lat="48.40763" lon="2.64006">
        <ele>131.60000610352</ele>
        <time>2021-06-03T13:47:43Z</time>
      </trkpt>
      <trkpt lat="48.40761" lon="2.64013">
        <ele>131.39999389648</ele>
        <time>2021-06-03T13:47:48Z</time>
      </trkpt>
      <trkpt lat="48.40758" lon="2.64019">
        <ele>130.80000305176</ele>
        <time>2021-06-03T13:47:53Z</time>
      </trkpt>
      <trkpt lat="48.40755" lon="2.64022">
        <ele>130.80000305176</ele>
        <time>2021-06-03T13:47:58Z</time>
      </trkpt>
      <trkpt lat="48.4075" lon="2.64025">
        <ele>130.80000305176</ele>
        <time>2021-06-03T13:48:03Z</time>
      </trkpt>
      <trkpt lat="48.40746" lon="2.64029">
        <ele>131</ele>
        <time>2021-06-03T13:48:08Z</time>
      </trkpt>
      <trkpt lat="48.40741" lon="2.64032">
        <ele>131.60000610352</ele>
        <time>2021-06-03T13:48:13Z</time>
      </trkpt>
      <trkpt lat="48.40737" lon="2.64036">
        <ele>131.60000610352</ele>
        <time>2021-06-03T13:48:18Z</time>
      </trkpt>
      <trkpt lat="48.40732" lon="2.64038">
        <ele>131.80000305176</ele>
        <time>2021-06-03T13:48:23Z</time>
      </trkpt>
      <trkpt lat="48.40727" lon="2.64042">
        <ele>131.80000305176</ele>
        <time>2021-06-03T13:48:28Z</time>
      </trkpt>
      <trkpt lat="48.40723" lon="2.64051">
        <ele>132</ele>
        <time>2021-06-03T13:48:33Z</time>
      </trkpt>
      <trkpt lat="48.40721" lon="2.64057">
        <ele>132</ele>
        <time>2021-06-03T13:48:38Z</time>
      </trkpt>
      <trkpt lat="48.40719" lon="2.64062">
        <ele>131.39999389648</ele>
        <time>2021-06-03T13:48:43Z</time>
      </trkpt>
      <trkpt lat="48.40717" lon="2.64063">
        <ele>130.80000305176</ele>
        <time>2021-06-03T13:48:48Z</time>
      </trkpt>
      <trkpt lat="48.40713" lon="2.64067">
        <ele>130.60000610352</ele>
        <time>2021-06-03T13:48:53Z</time>
      </trkpt>
      <trkpt lat="48.40709" lon="2.64073">
        <ele>130.60000610352</ele>
        <time>2021-06-03T13:48:58Z</time>
      </trkpt>
      <trkpt lat="48.40703" lon="2.64074">
        <ele>130.80000305176</ele>
        <time>2021-06-03T13:49:03Z</time>
      </trkpt>
      <trkpt lat="48.40701" lon="2.64081">
        <ele>130.60000610352</ele>
        <time>2021-06-03T13:49:08Z</time>
      </trkpt>
      <trkpt lat="48.40698" lon="2.64086">
        <ele>130.60000610352</ele>
        <time>2021-06-03T13:49:13Z</time>
      </trkpt>
      <trkpt lat="48.40696" lon="2.6409">
        <ele>130.60000610352</ele>
        <time>2021-06-03T13:49:18Z</time>
      </trkpt>
      <trkpt lat="48.40695" lon="2.64096">
        <ele>130.39999389648</ele>
        <time>2021-06-03T13:49:23Z</time>
      </trkpt>
      <trkpt lat="48.40694" lon="2.64103">
        <ele>130.60000610352</ele>
        <time>2021-06-03T13:49:28Z</time>
      </trkpt>
      <trkpt lat="48.40694" lon="2.64111">
        <ele>130.39999389648</ele>
        <time>2021-06-03T13:49:33Z</time>
      </trkpt>
      <trkpt lat="48.40694" lon="2.64118">
        <ele>130.39999389648</ele>
        <time>2021-06-03T13:49:38Z</time>
      </trkpt>
      <trkpt lat="48.40693" lon="2.64125">
        <ele>130.60000610352</ele>
        <time>2021-06-03T13:49:43Z</time>
      </trkpt>
      <trkpt lat="48.40693" lon="2.64132">
        <ele>130.80000305176</ele>
        <time>2021-06-03T13:49:48Z</time>
      </trkpt>
      <trkpt lat="48.40691" lon="2.64138">
        <ele>131.39999389648</ele>
        <time>2021-06-03T13:49:53Z</time>
      </trkpt>
      <trkpt lat="48.40689" lon="2.64145">
        <ele>131.80000305176</ele>
        <time>2021-06-03T13:49:58Z</time>
      </trkpt>
      <trkpt lat="48.40686" lon="2.64152">
        <ele>131.80000305176</ele>
        <time>2021-06-03T13:50:03Z</time>
      </trkpt>
      <trkpt lat="48.40682" lon="2.64158">
        <ele>132</ele>
        <time>2021-06-03T13:50:08Z</time>
      </trkpt>
      <trkpt lat="48.4068" lon="2.64164">
        <ele>132.19999694824</ele>
        <time>2021-06-03T13:50:13Z</time>
      </trkpt>
      <trkpt lat="48.40678" lon="2.6417">
        <ele>132.19999694824</ele>
        <time>2021-06-03T13:50:18Z</time>
      </trkpt>
      <trkpt lat="48.40675" lon="2.64174">
        <ele>132.19999694824</ele>
        <time>2021-06-03T13:50:23Z</time>
      </trkpt>
      <trkpt lat="48.40672" lon="2.64178">
        <ele>132</ele>
        <time>2021-06-03T13:50:28Z</time>
      </trkpt>
      <trkpt lat="48.4067" lon="2.6418">
        <ele>130.80000305176</ele>
        <time>2021-06-03T13:50:33Z</time>
      </trkpt>
      <trkpt lat="48.40669" lon="2.64186">
        <ele>130.80000305176</ele>
        <time>2021-06-03T13:50:38Z</time>
      </trkpt>
      <trkpt lat="48.40666" lon="2.64195">
        <ele>130.60000610352</ele>
        <time>2021-06-03T13:50:43Z</time>
      </trkpt>
      <trkpt lat="48.40664" lon="2.64204">
        <ele>130.19999694824</ele>
        <time>2021-06-03T13:50:48Z</time>
      </trkpt>
      <trkpt lat="48.40663" lon="2.64211">
        <ele>130.39999389648</ele>
        <time>2021-06-03T13:50:53Z</time>
      </trkpt>
      <trkpt lat="48.40662" lon="2.64219">
        <ele>130.39999389648</ele>
        <time>2021-06-03T13:50:58Z</time>
      </trkpt>
      <trkpt lat="48.40659" lon="2.64226">
        <ele>130.39999389648</ele>
        <time>2021-06-03T13:51:03Z</time>
      </trkpt>
      <trkpt lat="48.40658" lon="2.64233">
        <ele>130.39999389648</ele>
        <time>2021-06-03T13:51:08Z</time>
      </trkpt>
      <trkpt lat="48.40657" lon="2.6424">
        <ele>130.19999694824</ele>
        <time>2021-06-03T13:51:13Z</time>
      </trkpt>
      <trkpt lat="48.40654" lon="2.64249">
        <ele>130.19999694824</ele>
        <time>2021-06-03T13:51:18Z</time>
      </trkpt>
      <trkpt lat="48.40656" lon="2.64251">
        <ele>130.39999389648</ele>
        <time>2021-06-03T13:51:23Z</time>
      </trkpt>
      <trkpt lat="48.40659" lon="2.64252">
        <ele>130.39999389648</ele>
        <time>2021-06-03T13:51:28Z</time>
      </trkpt>
      <trkpt lat="48.40658" lon="2.64258">
        <ele>131</ele>
        <time>2021-06-03T13:51:33Z</time>
      </trkpt>
      <trkpt lat="48.40656" lon="2.64266">
        <ele>131.60000610352</ele>
        <time>2021-06-03T13:51:38Z</time>
      </trkpt>
      <trkpt lat="48.40658" lon="2.6427">
        <ele>131.80000305176</ele>
        <time>2021-06-03T13:51:43Z</time>
      </trkpt>
      <trkpt lat="48.40661" lon="2.64278">
        <ele>132</ele>
        <time>2021-06-03T13:51:48Z</time>
      </trkpt>
      <trkpt lat="48.40664" lon="2.64286">
        <ele>132</ele>
        <time>2021-06-03T13:51:53Z</time>
      </trkpt>
      <trkpt lat="48.40665" lon="2.64292">
        <ele>132</ele>
        <time>2021-06-03T13:51:58Z</time>
      </trkpt>
      <trkpt lat="48.40668" lon="2.64297">
        <ele>132</ele>
        <time>2021-06-03T13:52:03Z</time>
      </trkpt>
      <trkpt lat="48.40672" lon="2.64302">
        <ele>132</ele>
        <time>2021-06-03T13:52:08Z</time>
      </trkpt>
      <trkpt lat="48.40675" lon="2.64306">
        <ele>132</ele>
        <time>2021-06-03T13:52:13Z</time>
      </trkpt>
      <trkpt lat="48.40677" lon="2.64311">
        <ele>132</ele>
        <time>2021-06-03T13:52:18Z</time>
      </trkpt>
      <trkpt lat="48.40678" lon="2.64318">
        <ele>131.80000305176</ele>
        <time>2021-06-03T13:52:23Z</time>
      </trkpt>
      <trkpt lat="48.4068" lon="2.64326">
        <ele>131.39999389648</ele>
        <time>2021-06-03T13:52:28Z</time>
      </trkpt>
      <trkpt lat="48.40682" lon="2.64333">
        <ele>131.39999389648</ele>
        <time>2021-06-03T13:52:33Z</time>
      </trkpt>
      <trkpt lat="48.40686" lon="2.64341">
        <ele>131.39999389648</ele>
        <time>2021-06-03T13:52:38Z</time>
      </trkpt>
      <trkpt lat="48.40687" lon="2.6435">
        <ele>131.39999389648</ele>
        <time>2021-06-03T13:52:43Z</time>
      </trkpt>
      <trkpt lat="48.40686" lon="2.64358">
        <ele>131.60000610352</ele>
        <time>2021-06-03T13:52:48Z</time>
      </trkpt>
      <trkpt lat="48.40682" lon="2.64358">
        <ele>131.60000610352</ele>
        <time>2021-06-03T13:52:53Z</time>
      </trkpt>
      <trkpt lat="48.40681" lon="2.64357">
        <ele>131.80000305176</ele>
        <time>2021-06-03T13:52:58Z</time>
      </trkpt>
      <trkpt lat="48.40679" lon="2.6435">
        <ele>131.60000610352</ele>
        <time>2021-06-03T13:53:03Z</time>
      </trkpt>
      <trkpt lat="48.4068" lon="2.64349">
        <ele>131.60000610352</ele>
        <time>2021-06-03T13:53:08Z</time>
      </trkpt>
      <trkpt lat="48.40683" lon="2.64355">
        <ele>131.60000610352</ele>
        <time>2021-06-03T13:53:13Z</time>
      </trkpt>
      <trkpt lat="48.40684" lon="2.64361">
        <ele>131.60000610352</ele>
        <time>2021-06-03T13:53:18Z</time>
      </trkpt>
      <trkpt lat="48.40684" lon="2.64369">
        <ele>131.60000610352</ele>
        <time>2021-06-03T13:53:23Z</time>
      </trkpt>
      <trkpt lat="48.40681" lon="2.64376">
        <ele>131.60000610352</ele>
        <time>2021-06-03T13:53:28Z</time>
      </trkpt>
      <trkpt lat="48.40678" lon="2.64383">
        <ele>131.80000305176</ele>
        <time>2021-06-03T13:53:33Z</time>
      </trkpt>
      <trkpt lat="48.40675" lon="2.6439">
        <ele>132</ele>
        <time>2021-06-03T13:53:38Z</time>
      </trkpt>
      <trkpt lat="48.40673" lon="2.64395">
        <ele>132.39999389648</ele>
        <time>2021-06-03T13:53:43Z</time>
      </trkpt>
      <trkpt lat="48.40673" lon="2.64402">
        <ele>132.39999389648</ele>
        <time>2021-06-03T13:53:48Z</time>
      </trkpt>
      <trkpt lat="48.40676" lon="2.64406">
        <ele>132.19999694824</ele>
        <time>2021-06-03T13:53:53Z</time>
      </trkpt>
      <trkpt lat="48.40677" lon="2.64411">
        <ele>132</ele>
        <time>2021-06-03T13:53:58Z</time>
      </trkpt>
      <trkpt lat="48.40674" lon="2.64417">
        <ele>132</ele>
        <time>2021-06-03T13:54:03Z</time>
      </trkpt>
      <trkpt lat="48.40674" lon="2.64423">
        <ele>132</ele>
        <time>2021-06-03T13:54:08Z</time>
      </trkpt>
      <trkpt lat="48.40668" lon="2.64427">
        <ele>132.19999694824</ele>
        <time>2021-06-03T13:54:13Z</time>
      </trkpt>
      <trkpt lat="48.40663" lon="2.64431">
        <ele>132.60000610352</ele>
        <time>2021-06-03T13:54:18Z</time>
      </trkpt>
      <trkpt lat="48.40661" lon="2.64435">
        <ele>132.60000610352</ele>
        <time>2021-06-03T13:54:23Z</time>
      </trkpt>
      <trkpt lat="48.40661" lon="2.6444">
        <ele>132.39999389648</ele>
        <time>2021-06-03T13:54:28Z</time>
      </trkpt>
      <trkpt lat="48.40661" lon="2.64446">
        <ele>132.39999389648</ele>
        <time>2021-06-03T13:54:33Z</time>
      </trkpt>
      <trkpt lat="48.40662" lon="2.64451">
        <ele>132.39999389648</ele>
        <time>2021-06-03T13:54:38Z</time>
      </trkpt>
      <trkpt lat="48.40663" lon="2.64457">
        <ele>132</ele>
        <time>2021-06-03T13:54:43Z</time>
      </trkpt>
      <trkpt lat="48.4066" lon="2.64461">
        <ele>132</ele>
        <time>2021-06-03T13:54:48Z</time>
      </trkpt>
      <trkpt lat="48.40656" lon="2.64466">
        <ele>131.60000610352</ele>
        <time>2021-06-03T13:54:53Z</time>
      </trkpt>
      <trkpt lat="48.40655" lon="2.64471">
        <ele>131.60000610352</ele>
        <time>2021-06-03T13:54:58Z</time>
      </trkpt>
      <trkpt lat="48.40654" lon="2.64476">
        <ele>131.39999389648</ele>
        <time>2021-06-03T13:55:03Z</time>
      </trkpt>
      <trkpt lat="48.40654" lon="2.64483">
        <ele>131.19999694824</ele>
        <time>2021-06-03T13:55:08Z</time>
      </trkpt>
      <trkpt lat="48.40652" lon="2.64491">
        <ele>131.39999389648</ele>
        <time>2021-06-03T13:55:13Z</time>
      </trkpt>
      <trkpt lat="48.40654" lon="2.64497">
        <ele>132</ele>
        <time>2021-06-03T13:55:18Z</time>
      </trkpt>
      <trkpt lat="48.40658" lon="2.64503">
        <ele>132.39999389648</ele>
        <time>2021-06-03T13:55:23Z</time>
      </trkpt>
      <trkpt lat="48.4066" lon="2.6451">
        <ele>132.39999389648</ele>
        <time>2021-06-03T13:55:28Z</time>
      </trkpt>
      <trkpt lat="48.40661" lon="2.64517">
        <ele>132.60000610352</ele>
        <time>2021-06-03T13:55:33Z</time>
      </trkpt>
      <trkpt lat="48.40663" lon="2.64521">
        <ele>132.60000610352</ele>
        <time>2021-06-03T13:55:38Z</time>
      </trkpt>
      <trkpt lat="48.40664" lon="2.64525">
        <ele>132.60000610352</ele>
        <time>2021-06-03T13:55:43Z</time>
      </trkpt>
      <trkpt lat="48.40665" lon="2.64533">
        <ele>132.60000610352</ele>
        <time>2021-06-03T13:55:48Z</time>
      </trkpt>
      <trkpt lat="48.40666" lon="2.64539">
        <ele>132.60000610352</ele>
        <time>2021-06-03T13:55:53Z</time>
      </trkpt>
      <trkpt lat="48.40669" lon="2.64545">
        <ele>132.39999389648</ele>
        <time>2021-06-03T13:55:58Z</time>
      </trkpt>
      <trkpt lat="48.40671" lon="2.6455">
        <ele>132.39999389648</ele>
        <time>2021-06-03T13:56:03Z</time>
      </trkpt>
      <trkpt lat="48.40674" lon="2.64552">
        <ele>132.39999389648</ele>
        <time>2021-06-03T13:56:08Z</time>
      </trkpt>
      <trkpt lat="48.40678" lon="2.64554">
        <ele>132.80000305176</ele>
        <time>2021-06-03T13:56:13Z</time>
      </trkpt>
      <trkpt lat="48.40679" lon="2.6456">
        <ele>133</ele>
        <time>2021-06-03T13:56:18Z</time>
      </trkpt>
      <trkpt lat="48.4068" lon="2.64569">
        <ele>133.19999694824</ele>
        <time>2021-06-03T13:56:23Z</time>
      </trkpt>
      <trkpt lat="48.4068" lon="2.64575">
        <ele>133.19999694824</ele>
        <time>2021-06-03T13:56:28Z</time>
      </trkpt>
      <trkpt lat="48.40679" lon="2.64581">
        <ele>133.19999694824</ele>
        <time>2021-06-03T13:56:33Z</time>
      </trkpt>
      <trkpt lat="48.40677" lon="2.64586">
        <ele>132.80000305176</ele>
        <time>2021-06-03T13:56:38Z</time>
      </trkpt>
      <trkpt lat="48.40678" lon="2.64593">
        <ele>132.19999694824</ele>
        <time>2021-06-03T13:56:43Z</time>
      </trkpt>
      <trkpt lat="48.40679" lon="2.646">
        <ele>132</ele>
        <time>2021-06-03T13:56:48Z</time>
      </trkpt>
      <trkpt lat="48.40679" lon="2.64608">
        <ele>131.60000610352</ele>
        <time>2021-06-03T13:56:53Z</time>
      </trkpt>
      <trkpt lat="48.40677" lon="2.64613">
        <ele>131</ele>
        <time>2021-06-03T13:56:58Z</time>
      </trkpt>
      <trkpt lat="48.40677" lon="2.64615">
        <ele>130.39999389648</ele>
        <time>2021-06-03T13:57:03Z</time>
      </trkpt>
      <trkpt lat="48.40677" lon="2.64619">
        <ele>129.60000610352</ele>
        <time>2021-06-03T13:57:08Z</time>
      </trkpt>
      <trkpt lat="48.4068" lon="2.64624">
        <ele>129.19999694824</ele>
        <time>2021-06-03T13:57:13Z</time>
      </trkpt>
      <trkpt lat="48.40682" lon="2.64632">
        <ele>128.80000305176</ele>
        <time>2021-06-03T13:57:18Z</time>
      </trkpt>
      <trkpt lat="48.40682" lon="2.64638">
        <ele>128.39999389648</ele>
        <time>2021-06-03T13:57:23Z</time>
      </trkpt>
      <trkpt lat="48.40682" lon="2.64644">
        <ele>128.39999389648</ele>
        <time>2021-06-03T13:57:28Z</time>
      </trkpt>
      <trkpt lat="48.40683" lon="2.64651">
        <ele>128.60000610352</ele>
        <time>2021-06-03T13:57:33Z</time>
      </trkpt>
      <trkpt lat="48.40682" lon="2.64658">
        <ele>128.80000305176</ele>
        <time>2021-06-03T13:57:38Z</time>
      </trkpt>
      <trkpt lat="48.40682" lon="2.64665">
        <ele>129.19999694824</ele>
        <time>2021-06-03T13:57:43Z</time>
      </trkpt>
      <trkpt lat="48.40681" lon="2.6467">
        <ele>129</ele>
        <time>2021-06-03T13:57:48Z</time>
      </trkpt>
      <trkpt lat="48.40677" lon="2.64673">
        <ele>128.80000305176</ele>
        <time>2021-06-03T13:57:53Z</time>
      </trkpt>
      <trkpt lat="48.40672" lon="2.64674">
        <ele>129</ele>
        <time>2021-06-03T13:57:58Z</time>
      </trkpt>
      <trkpt lat="48.40667" lon="2.64673">
        <ele>129</ele>
        <time>2021-06-03T13:58:03Z</time>
      </trkpt>
      <trkpt lat="48.40664" lon="2.64678">
        <ele>128.60000610352</ele>
        <time>2021-06-03T13:58:08Z</time>
      </trkpt>
      <trkpt lat="48.40663" lon="2.64683">
        <ele>127.80000305176</ele>
        <time>2021-06-03T13:58:13Z</time>
      </trkpt>
      <trkpt lat="48.40663" lon="2.64687">
        <ele>127.40000152588</ele>
        <time>2021-06-03T13:58:18Z</time>
      </trkpt>
      <trkpt lat="48.40664" lon="2.64692">
        <ele>127</ele>
        <time>2021-06-03T13:58:23Z</time>
      </trkpt>
      <trkpt lat="48.40663" lon="2.64697">
        <ele>126.40000152588</ele>
        <time>2021-06-03T13:58:28Z</time>
      </trkpt>
      <trkpt lat="48.40663" lon="2.64703">
        <ele>125.80000305176</ele>
        <time>2021-06-03T13:58:33Z</time>
      </trkpt>
      <trkpt lat="48.40665" lon="2.64708">
        <ele>125.19999694824</ele>
        <time>2021-06-03T13:58:38Z</time>
      </trkpt>
      <trkpt lat="48.40666" lon="2.64715">
        <ele>124.80000305176</ele>
        <time>2021-06-03T13:58:43Z</time>
      </trkpt>
      <trkpt lat="48.40667" lon="2.64721">
        <ele>124.19999694824</ele>
        <time>2021-06-03T13:58:48Z</time>
      </trkpt>
      <trkpt lat="48.40669" lon="2.64726">
        <ele>123.80000305176</ele>
        <time>2021-06-03T13:58:53Z</time>
      </trkpt>
      <trkpt lat="48.40668" lon="2.64728">
        <ele>123.59999847412</ele>
        <time>2021-06-03T13:58:58Z</time>
      </trkpt>
      <trkpt lat="48.40664" lon="2.64729">
        <ele>123.19999694824</ele>
        <time>2021-06-03T13:59:03Z</time>
      </trkpt>
      <trkpt lat="48.40662" lon="2.64734">
        <ele>122.59999847412</ele>
        <time>2021-06-03T13:59:08Z</time>
      </trkpt>
      <trkpt lat="48.40659" lon="2.64739">
        <ele>121.80000305176</ele>
        <time>2021-06-03T13:59:13Z</time>
      </trkpt>
      <trkpt lat="48.40655" lon="2.64741">
        <ele>121</ele>
        <time>2021-06-03T13:59:18Z</time>
      </trkpt>
      <trkpt lat="48.40654" lon="2.64745">
        <ele>120.40000152588</ele>
        <time>2021-06-03T13:59:23Z</time>
      </trkpt>
      <trkpt lat="48.40653" lon="2.64751">
        <ele>119.59999847412</ele>
        <time>2021-06-03T13:59:28Z</time>
      </trkpt>
      <trkpt lat="48.40653" lon="2.64759">
        <ele>118.80000305176</ele>
        <time>2021-06-03T13:59:33Z</time>
      </trkpt>
      <trkpt lat="48.40653" lon="2.64764">
        <ele>118.59999847412</ele>
        <time>2021-06-03T13:59:38Z</time>
      </trkpt>
      <trkpt lat="48.40653" lon="2.6477">
        <ele>118.19999694824</ele>
        <time>2021-06-03T13:59:43Z</time>
      </trkpt>
      <trkpt lat="48.40654" lon="2.64777">
        <ele>117.80000305176</ele>
        <time>2021-06-03T13:59:48Z</time>
      </trkpt>
      <trkpt lat="48.40657" lon="2.64782">
        <ele>117.40000152588</ele>
        <time>2021-06-03T13:59:53Z</time>
      </trkpt>
      <trkpt lat="48.40657" lon="2.64788">
        <ele>117.19999694824</ele>
        <time>2021-06-03T13:59:58Z</time>
      </trkpt>
      <trkpt lat="48.40657" lon="2.64794">
        <ele>116.80000305176</ele>
        <time>2021-06-03T14:00:03Z</time>
      </trkpt>
      <trkpt lat="48.40657" lon="2.64798">
        <ele>116</ele>
        <time>2021-06-03T14:00:08Z</time>
      </trkpt>
      <trkpt lat="48.40657" lon="2.64806">
        <ele>115</ele>
        <time>2021-06-03T14:00:13Z</time>
      </trkpt>
      <trkpt lat="48.40656" lon="2.64813">
        <ele>114.19999694824</ele>
        <time>2021-06-03T14:00:18Z</time>
      </trkpt>
      <trkpt lat="48.40654" lon="2.64819">
        <ele>113.59999847412</ele>
        <time>2021-06-03T14:00:23Z</time>
      </trkpt>
      <trkpt lat="48.40648" lon="2.64824">
        <ele>113</ele>
        <time>2021-06-03T14:00:28Z</time>
      </trkpt>
      <trkpt lat="48.40644" lon="2.64823">
        <ele>112.80000305176</ele>
        <time>2021-06-03T14:00:33Z</time>
      </trkpt>
      <trkpt lat="48.40642" lon="2.64823">
        <ele>112.80000305176</ele>
        <time>2021-06-03T14:00:38Z</time>
      </trkpt>
      <trkpt lat="48.40642" lon="2.64823">
        <ele>113</ele>
        <time>2021-06-03T14:00:43Z</time>
      </trkpt>
      <trkpt lat="48.40638" lon="2.64821">
        <ele>113</ele>
        <time>2021-06-03T14:00:48Z</time>
      </trkpt>
      <trkpt lat="48.40633" lon="2.64819">
        <ele>113</ele>
        <time>2021-06-03T14:00:53Z</time>
      </trkpt>
      <trkpt lat="48.4063" lon="2.64817">
        <ele>112.80000305176</ele>
        <time>2021-06-03T14:00:58Z</time>
      </trkpt>
      <trkpt lat="48.40627" lon="2.64814">
        <ele>112.59999847412</ele>
        <time>2021-06-03T14:01:03Z</time>
      </trkpt>
      <trkpt lat="48.40624" lon="2.64812">
        <ele>112</ele>
        <time>2021-06-03T14:01:08Z</time>
      </trkpt>
      <trkpt lat="48.40621" lon="2.64812">
        <ele>111.19999694824</ele>
        <time>2021-06-03T14:01:13Z</time>
      </trkpt>
      <trkpt lat="48.40617" lon="2.64814">
        <ele>110.59999847412</ele>
        <time>2021-06-03T14:01:18Z</time>
      </trkpt>
      <trkpt lat="48.40616" lon="2.64815">
        <ele>110.19999694824</ele>
        <time>2021-06-03T14:01:23Z</time>
      </trkpt>
      <trkpt lat="48.40612" lon="2.6482">
        <ele>109.80000305176</ele>
        <time>2021-06-03T14:01:28Z</time>
      </trkpt>
      <trkpt lat="48.4061" lon="2.64822">
        <ele>109.40000152588</ele>
        <time>2021-06-03T14:01:33Z</time>
      </trkpt>
      <trkpt lat="48.40609" lon="2.64828">
        <ele>109</ele>
        <time>2021-06-03T14:01:38Z</time>
      </trkpt>
      <trkpt lat="48.40606" lon="2.64835">
        <ele>108.59999847412</ele>
        <time>2021-06-03T14:01:43Z</time>
      </trkpt>
      <trkpt lat="48.40604" lon="2.6484">
        <ele>108.40000152588</ele>
        <time>2021-06-03T14:01:48Z</time>
      </trkpt>
      <trkpt lat="48.40602" lon="2.64849">
        <ele>107.59999847412</ele>
        <time>2021-06-03T14:01:53Z</time>
      </trkpt>
      <trkpt lat="48.406" lon="2.6486">
        <ele>107.40000152588</ele>
        <time>2021-06-03T14:01:58Z</time>
      </trkpt>
      <trkpt lat="48.40599" lon="2.64866">
        <ele>107.19999694824</ele>
        <time>2021-06-03T14:02:03Z</time>
      </trkpt>
      <trkpt lat="48.40598" lon="2.64872">
        <ele>107</ele>
        <time>2021-06-03T14:02:08Z</time>
      </trkpt>
      <trkpt lat="48.40597" lon="2.64879">
        <ele>106.40000152588</ele>
        <time>2021-06-03T14:02:13Z</time>
      </trkpt>
      <trkpt lat="48.40596" lon="2.6489">
        <ele>106.19999694824</ele>
        <time>2021-06-03T14:02:18Z</time>
      </trkpt>
      <trkpt lat="48.40592" lon="2.64896">
        <ele>105.80000305176</ele>
        <time>2021-06-03T14:02:23Z</time>
      </trkpt>
      <trkpt lat="48.40588" lon="2.64899">
        <ele>105.19999694824</ele>
        <time>2021-06-03T14:02:28Z</time>
      </trkpt>
      <trkpt lat="48.40585" lon="2.649">
        <ele>104.80000305176</ele>
        <time>2021-06-03T14:02:33Z</time>
      </trkpt>
      <trkpt lat="48.40581" lon="2.64903">
        <ele>104.40000152588</ele>
        <time>2021-06-03T14:02:38Z</time>
      </trkpt>
      <trkpt lat="48.40576" lon="2.64905">
        <ele>103.80000305176</ele>
        <time>2021-06-03T14:02:43Z</time>
      </trkpt>
      <trkpt lat="48.40574" lon="2.64911">
        <ele>103.19999694824</ele>
        <time>2021-06-03T14:02:48Z</time>
      </trkpt>
      <trkpt lat="48.4057" lon="2.64916">
        <ele>102.59999847412</ele>
        <time>2021-06-03T14:02:53Z</time>
      </trkpt>
      <trkpt lat="48.40566" lon="2.6492">
        <ele>102.40000152588</ele>
        <time>2021-06-03T14:02:58Z</time>
      </trkpt>
      <trkpt lat="48.40564" lon="2.64925">
        <ele>102</ele>
        <time>2021-06-03T14:03:03Z</time>
      </trkpt>
      <trkpt lat="48.40559" lon="2.64931">
        <ele>101.80000305176</ele>
        <time>2021-06-03T14:03:08Z</time>
      </trkpt>
      <trkpt lat="48.40555" lon="2.64934">
        <ele>101.19999694824</ele>
        <time>2021-06-03T14:03:13Z</time>
      </trkpt>
      <trkpt lat="48.40555" lon="2.64938">
        <ele>100.80000305176</ele>
        <time>2021-06-03T14:03:18Z</time>
      </trkpt>
      <trkpt lat="48.40552" lon="2.64944">
        <ele>100.40000152588</ele>
        <time>2021-06-03T14:03:23Z</time>
      </trkpt>
      <trkpt lat="48.40549" lon="2.64949">
        <ele>100.40000152588</ele>
        <time>2021-06-03T14:03:28Z</time>
      </trkpt>
      <trkpt lat="48.40544" lon="2.64956">
        <ele>100.40000152588</ele>
        <time>2021-06-03T14:03:33Z</time>
      </trkpt>
      <trkpt lat="48.4054" lon="2.64961">
        <ele>100</ele>
        <time>2021-06-03T14:03:38Z</time>
      </trkpt>
      <trkpt lat="48.40535" lon="2.64962">
        <ele>100</ele>
        <time>2021-06-03T14:03:43Z</time>
      </trkpt>
      <trkpt lat="48.40529" lon="2.64965">
        <ele>99.800003051758</ele>
        <time>2021-06-03T14:03:48Z</time>
      </trkpt>
      <trkpt lat="48.40525" lon="2.64971">
        <ele>99.599998474121</ele>
        <time>2021-06-03T14:03:53Z</time>
      </trkpt>
      <trkpt lat="48.40522" lon="2.64978">
        <ele>99.400001525879</ele>
        <time>2021-06-03T14:03:58Z</time>
      </trkpt>
      <trkpt lat="48.40522" lon="2.64985">
        <ele>99.199996948242</ele>
        <time>2021-06-03T14:04:03Z</time>
      </trkpt>
      <trkpt lat="48.40524" lon="2.64989">
        <ele>99</ele>
        <time>2021-06-03T14:04:08Z</time>
      </trkpt>
      <trkpt lat="48.40524" lon="2.64997">
        <ele>99</ele>
        <time>2021-06-03T14:04:13Z</time>
      </trkpt>
      <trkpt lat="48.40524" lon="2.65005">
        <ele>98.800003051758</ele>
        <time>2021-06-03T14:04:18Z</time>
      </trkpt>
      <trkpt lat="48.40521" lon="2.6501">
        <ele>99</ele>
        <time>2021-06-03T14:04:23Z</time>
      </trkpt>
      <trkpt lat="48.40516" lon="2.65014">
        <ele>98.599998474121</ele>
        <time>2021-06-03T14:04:28Z</time>
      </trkpt>
      <trkpt lat="48.40512" lon="2.65014">
        <ele>98.400001525879</ele>
        <time>2021-06-03T14:04:33Z</time>
      </trkpt>
      <trkpt lat="48.4051" lon="2.65016">
        <ele>98.199996948242</ele>
        <time>2021-06-03T14:04:38Z</time>
      </trkpt>
      <trkpt lat="48.40506" lon="2.65021">
        <ele>98</ele>
        <time>2021-06-03T14:04:43Z</time>
      </trkpt>
      <trkpt lat="48.40504" lon="2.65028">
        <ele>98</ele>
        <time>2021-06-03T14:04:48Z</time>
      </trkpt>
      <trkpt lat="48.40502" lon="2.65037">
        <ele>97.800003051758</ele>
        <time>2021-06-03T14:04:53Z</time>
      </trkpt>
      <trkpt lat="48.405" lon="2.65041">
        <ele>97.800003051758</ele>
        <time>2021-06-03T14:04:58Z</time>
      </trkpt>
      <trkpt lat="48.40499" lon="2.65049">
        <ele>97.599998474121</ele>
        <time>2021-06-03T14:05:03Z</time>
      </trkpt>
      <trkpt lat="48.40499" lon="2.65054">
        <ele>97.400001525879</ele>
        <time>2021-06-03T14:05:08Z</time>
      </trkpt>
      <trkpt lat="48.40495" lon="2.65058">
        <ele>97.199996948242</ele>
        <time>2021-06-03T14:05:13Z</time>
      </trkpt>
      <trkpt lat="48.40492" lon="2.65061">
        <ele>97.199996948242</ele>
        <time>2021-06-03T14:05:18Z</time>
      </trkpt>
      <trkpt lat="48.4049" lon="2.65061">
        <ele>97</ele>
        <time>2021-06-03T14:05:23Z</time>
      </trkpt>
      <trkpt lat="48.40484" lon="2.65066">
        <ele>97</ele>
        <time>2021-06-03T14:05:28Z</time>
      </trkpt>
      <trkpt lat="48.40479" lon="2.65076">
        <ele>96.800003051758</ele>
        <time>2021-06-03T14:05:33Z</time>
      </trkpt>
      <trkpt lat="48.40475" lon="2.65085">
        <ele>96.599998474121</ele>
        <time>2021-06-03T14:05:38Z</time>
      </trkpt>
      <trkpt lat="48.40472" lon="2.65091">
        <ele>96.800003051758</ele>
        <time>2021-06-03T14:05:43Z</time>
      </trkpt>
      <trkpt lat="48.40471" lon="2.65098">
        <ele>96.400001525879</ele>
        <time>2021-06-03T14:05:48Z</time>
      </trkpt>
      <trkpt lat="48.40471" lon="2.65104">
        <ele>96.199996948242</ele>
        <time>2021-06-03T14:05:53Z</time>
      </trkpt>
      <trkpt lat="48.40471" lon="2.65111">
        <ele>96</ele>
        <time>2021-06-03T14:05:58Z</time>
      </trkpt>
      <trkpt lat="48.40469" lon="2.65116">
        <ele>95.599998474121</ele>
        <time>2021-06-03T14:06:03Z</time>
      </trkpt>
      <trkpt lat="48.40463" lon="2.65122">
        <ele>95.599998474121</ele>
        <time>2021-06-03T14:06:08Z</time>
      </trkpt>
      <trkpt lat="48.40457" lon="2.65122">
        <ele>95.400001525879</ele>
        <time>2021-06-03T14:06:13Z</time>
      </trkpt>
      <trkpt lat="48.40452" lon="2.65124">
        <ele>95</ele>
        <time>2021-06-03T14:06:18Z</time>
      </trkpt>
      <trkpt lat="48.40446" lon="2.65126">
        <ele>95.199996948242</ele>
        <time>2021-06-03T14:06:23Z</time>
      </trkpt>
      <trkpt lat="48.40442" lon="2.65129">
        <ele>95</ele>
        <time>2021-06-03T14:06:28Z</time>
      </trkpt>
      <trkpt lat="48.40439" lon="2.65131">
        <ele>94.800003051758</ele>
        <time>2021-06-03T14:06:33Z</time>
      </trkpt>
      <trkpt lat="48.40436" lon="2.65138">
        <ele>94.800003051758</ele>
        <time>2021-06-03T14:06:38Z</time>
      </trkpt>
      <trkpt lat="48.40432" lon="2.65144">
        <ele>94.599998474121</ele>
        <time>2021-06-03T14:06:43Z</time>
      </trkpt>
      <trkpt lat="48.40431" lon="2.65149">
        <ele>94.400001525879</ele>
        <time>2021-06-03T14:06:48Z</time>
      </trkpt>
      <trkpt lat="48.40429" lon="2.65157">
        <ele>94.400001525879</ele>
        <time>2021-06-03T14:06:53Z</time>
      </trkpt>
      <trkpt lat="48.4043" lon="2.65164">
        <ele>94.199996948242</ele>
        <time>2021-06-03T14:06:58Z</time>
      </trkpt>
      <trkpt lat="48.4043" lon="2.65171">
        <ele>94.199996948242</ele>
        <time>2021-06-03T14:07:03Z</time>
      </trkpt>
      <trkpt lat="48.4043" lon="2.65178">
        <ele>94.199996948242</ele>
        <time>2021-06-03T14:07:08Z</time>
      </trkpt>
      <trkpt lat="48.40429" lon="2.65186">
        <ele>94</ele>
        <time>2021-06-03T14:07:13Z</time>
      </trkpt>
      <trkpt lat="48.40426" lon="2.65195">
        <ele>94</ele>
        <time>2021-06-03T14:07:18Z</time>
      </trkpt>
      <trkpt lat="48.40425" lon="2.65204">
        <ele>93.800003051758</ele>
        <time>2021-06-03T14:07:23Z</time>
      </trkpt>
      <trkpt lat="48.40425" lon="2.65209">
        <ele>93.800003051758</ele>
        <time>2021-06-03T14:07:28Z</time>
      </trkpt>
      <trkpt lat="48.40425" lon="2.65218">
        <ele>93.800003051758</ele>
        <time>2021-06-03T14:07:33Z</time>
      </trkpt>
      <trkpt lat="48.40423" lon="2.65227">
        <ele>93.800003051758</ele>
        <time>2021-06-03T14:07:38Z</time>
      </trkpt>
      <trkpt lat="48.40421" lon="2.65234">
        <ele>93.599998474121</ele>
        <time>2021-06-03T14:07:43Z</time>
      </trkpt>
      <trkpt lat="48.4042" lon="2.6524">
        <ele>93.599998474121</ele>
        <time>2021-06-03T14:07:48Z</time>
      </trkpt>
      <trkpt lat="48.40421" lon="2.65247">
        <ele>93.599998474121</ele>
        <time>2021-06-03T14:07:53Z</time>
      </trkpt>
      <trkpt lat="48.4042" lon="2.65253">
        <ele>93.400001525879</ele>
        <time>2021-06-03T14:07:58Z</time>
      </trkpt>
      <trkpt lat="48.40419" lon="2.65261">
        <ele>93.199996948242</ele>
        <time>2021-06-03T14:08:03Z</time>
      </trkpt>
      <trkpt lat="48.40417" lon="2.65271">
        <ele>93</ele>
        <time>2021-06-03T14:08:08Z</time>
      </trkpt>
      <trkpt lat="48.40417" lon="2.65281">
        <ele>92.800003051758</ele>
        <time>2021-06-03T14:08:13Z</time>
      </trkpt>
      <trkpt lat="48.40416" lon="2.65288">
        <ele>92.599998474121</ele>
        <time>2021-06-03T14:08:18Z</time>
      </trkpt>
      <trkpt lat="48.40415" lon="2.65295">
        <ele>92.599998474121</ele>
        <time>2021-06-03T14:08:23Z</time>
      </trkpt>
      <trkpt lat="48.40414" lon="2.653">
        <ele>92.599998474121</ele>
        <time>2021-06-03T14:08:28Z</time>
      </trkpt>
      <trkpt lat="48.40414" lon="2.65308">
        <ele>92.400001525879</ele>
        <time>2021-06-03T14:08:33Z</time>
      </trkpt>
      <trkpt lat="48.40413" lon="2.65317">
        <ele>92.400001525879</ele>
        <time>2021-06-03T14:08:38Z</time>
      </trkpt>
      <trkpt lat="48.4041" lon="2.65327">
        <ele>92.199996948242</ele>
        <time>2021-06-03T14:08:43Z</time>
      </trkpt>
      <trkpt lat="48.40409" lon="2.65336">
        <ele>92.199996948242</ele>
        <time>2021-06-03T14:08:48Z</time>
      </trkpt>
      <trkpt lat="48.40408" lon="2.65346">
        <ele>92.199996948242</ele>
        <time>2021-06-03T14:08:53Z</time>
      </trkpt>
      <trkpt lat="48.40407" lon="2.65354">
        <ele>92</ele>
        <time>2021-06-03T14:08:58Z</time>
      </trkpt>
      <trkpt lat="48.40405" lon="2.65358">
        <ele>92</ele>
        <time>2021-06-03T14:09:03Z</time>
      </trkpt>
      <trkpt lat="48.40404" lon="2.65365">
        <ele>92</ele>
        <time>2021-06-03T14:09:08Z</time>
      </trkpt>
      <trkpt lat="48.40403" lon="2.65372">
        <ele>92</ele>
        <time>2021-06-03T14:09:13Z</time>
      </trkpt>
      <trkpt lat="48.40401" lon="2.65379">
        <ele>91.800003051758</ele>
        <time>2021-06-03T14:09:18Z</time>
      </trkpt>
      <trkpt lat="48.40398" lon="2.65388">
        <ele>91.800003051758</ele>
        <time>2021-06-03T14:09:23Z</time>
      </trkpt>
      <trkpt lat="48.40398" lon="2.65397">
        <ele>91.800003051758</ele>
        <time>2021-06-03T14:09:28Z</time>
      </trkpt>
      <trkpt lat="48.40399" lon="2.65406">
        <ele>91.800003051758</ele>
        <time>2021-06-03T14:09:33Z</time>
      </trkpt>
      <trkpt lat="48.404" lon="2.65415">
        <ele>91.800003051758</ele>
        <time>2021-06-03T14:09:38Z</time>
      </trkpt>
      <trkpt lat="48.40399" lon="2.65423">
        <ele>91.599998474121</ele>
        <time>2021-06-03T14:09:43Z</time>
      </trkpt>
      <trkpt lat="48.40397" lon="2.6543">
        <ele>91.599998474121</ele>
        <time>2021-06-03T14:09:48Z</time>
      </trkpt>
      <trkpt lat="48.40396" lon="2.65437">
        <ele>91.400001525879</ele>
        <time>2021-06-03T14:09:53Z</time>
      </trkpt>
      <trkpt lat="48.40394" lon="2.65446">
        <ele>91.400001525879</ele>
        <time>2021-06-03T14:09:58Z</time>
      </trkpt>
      <trkpt lat="48.40393" lon="2.65456">
        <ele>91.199996948242</ele>
        <time>2021-06-03T14:10:03Z</time>
      </trkpt>
      <trkpt lat="48.40392" lon="2.65463">
        <ele>91.199996948242</ele>
        <time>2021-06-03T14:10:08Z</time>
      </trkpt>
      <trkpt lat="48.40393" lon="2.65474">
        <ele>91.199996948242</ele>
        <time>2021-06-03T14:10:13Z</time>
      </trkpt>
      <trkpt lat="48.40392" lon="2.65483">
        <ele>91</ele>
        <time>2021-06-03T14:10:18Z</time>
      </trkpt>
      <trkpt lat="48.40392" lon="2.6549">
        <ele>91</ele>
        <time>2021-06-03T14:10:23Z</time>
      </trkpt>
      <trkpt lat="48.4039" lon="2.65499">
        <ele>91</ele>
        <time>2021-06-03T14:10:28Z</time>
      </trkpt>
      <trkpt lat="48.40387" lon="2.65506">
        <ele>91</ele>
        <time>2021-06-03T14:10:33Z</time>
      </trkpt>
      <trkpt lat="48.40384" lon="2.65513">
        <ele>91</ele>
        <time>2021-06-03T14:10:38Z</time>
      </trkpt>
      <trkpt lat="48.40381" lon="2.65522">
        <ele>91</ele>
        <time>2021-06-03T14:10:43Z</time>
      </trkpt>
      <trkpt lat="48.4038" lon="2.65531">
        <ele>91</ele>
        <time>2021-06-03T14:10:48Z</time>
      </trkpt>
      <trkpt lat="48.4038" lon="2.65539">
        <ele>91.199996948242</ele>
        <time>2021-06-03T14:10:53Z</time>
      </trkpt>
      <trkpt lat="48.40383" lon="2.65543">
        <ele>91</ele>
        <time>2021-06-03T14:10:58Z</time>
      </trkpt>
      <trkpt lat="48.40385" lon="2.65541">
        <ele>90.800003051758</ele>
        <time>2021-06-03T14:11:03Z</time>
      </trkpt>
      <trkpt lat="48.40388" lon="2.65537">
        <ele>90.800003051758</ele>
        <time>2021-06-03T14:11:08Z</time>
      </trkpt>
      <trkpt lat="48.4039" lon="2.65533">
        <ele>90.800003051758</ele>
        <time>2021-06-03T14:11:13Z</time>
      </trkpt>
      <trkpt lat="48.40388" lon="2.65534">
        <ele>90.800003051758</ele>
        <time>2021-06-03T14:11:18Z</time>
      </trkpt>
      <trkpt lat="48.40386" lon="2.65539">
        <ele>90.800003051758</ele>
        <time>2021-06-03T14:11:23Z</time>
      </trkpt>
      <trkpt lat="48.40384" lon="2.6554">
        <ele>90.800003051758</ele>
        <time>2021-06-03T14:11:28Z</time>
      </trkpt>
      <trkpt lat="48.40384" lon="2.6554">
        <ele>90.800003051758</ele>
        <time>2021-06-03T14:11:33Z</time>
      </trkpt>
      <trkpt lat="48.40383" lon="2.65541">
        <ele>90.800003051758</ele>
        <time>2021-06-03T14:11:38Z</time>
      </trkpt>
      <trkpt lat="48.40383" lon="2.65542">
        <ele>90.800003051758</ele>
        <time>2021-06-03T14:11:43Z</time>
      </trkpt>
      <trkpt lat="48.40384" lon="2.65542">
        <ele>90.800003051758</ele>
        <time>2021-06-03T14:11:48Z</time>
      </trkpt>
      <trkpt lat="48.40384" lon="2.65542">
        <ele>90.800003051758</ele>
        <time>2021-06-03T14:11:53Z</time>
      </trkpt>
      <trkpt lat="48.40384" lon="2.65541">
        <ele>90.800003051758</ele>
        <time>2021-06-03T14:11:58Z</time>
      </trkpt>
      <trkpt lat="48.40385" lon="2.65543">
        <ele>90.800003051758</ele>
        <time>2021-06-03T14:12:03Z</time>
      </trkpt>
      <trkpt lat="48.40384" lon="2.65543">
        <ele>90.800003051758</ele>
        <time>2021-06-03T14:12:08Z</time>
      </trkpt>
      <trkpt lat="48.40385" lon="2.65544">
        <ele>90.800003051758</ele>
        <time>2021-06-03T14:12:13Z</time>
      </trkpt>
      <trkpt lat="48.40385" lon="2.65544">
        <ele>90.800003051758</ele>
        <time>2021-06-03T14:12:18Z</time>
      </trkpt>
      <trkpt lat="48.40385" lon="2.65543">
        <ele>90.800003051758</ele>
        <time>2021-06-03T14:12:23Z</time>
      </trkpt>
      <trkpt lat="48.40385" lon="2.65543">
        <ele>90.800003051758</ele>
        <time>2021-06-03T14:12:28Z</time>
      </trkpt>
      <trkpt lat="48.40385" lon="2.6554">
        <ele>90.800003051758</ele>
        <time>2021-06-03T14:12:33Z</time>
      </trkpt>
      <trkpt lat="48.40384" lon="2.65539">
        <ele>90.800003051758</ele>
        <time>2021-06-03T14:12:38Z</time>
      </trkpt>
      <trkpt lat="48.40382" lon="2.65537">
        <ele>90.800003051758</ele>
        <time>2021-06-03T14:12:43Z</time>
      </trkpt>
      <trkpt lat="48.4038" lon="2.65536">
        <ele>90.800003051758</ele>
        <time>2021-06-03T14:12:48Z</time>
      </trkpt>
      <trkpt lat="48.40379" lon="2.65536">
        <ele>90.800003051758</ele>
        <time>2021-06-03T14:12:53Z</time>
      </trkpt>
      <trkpt lat="48.40378" lon="2.65536">
        <ele>90.800003051758</ele>
        <time>2021-06-03T14:12:58Z</time>
      </trkpt>
      <trkpt lat="48.40378" lon="2.65536">
        <ele>90.800003051758</ele>
        <time>2021-06-03T14:13:03Z</time>
      </trkpt>
      <trkpt lat="48.40378" lon="2.65535">
        <ele>90.800003051758</ele>
        <time>2021-06-03T14:13:08Z</time>
      </trkpt>
      <trkpt lat="48.40381" lon="2.65541">
        <ele>90.800003051758</ele>
        <time>2021-06-03T14:13:13Z</time>
      </trkpt>
      <trkpt lat="48.40381" lon="2.65543">
        <ele>90.800003051758</ele>
        <time>2021-06-03T14:13:18Z</time>
      </trkpt>
      <trkpt lat="48.40381" lon="2.65544">
        <ele>90.800003051758</ele>
        <time>2021-06-03T14:13:23Z</time>
      </trkpt>
      <trkpt lat="48.40381" lon="2.65545">
        <ele>90.800003051758</ele>
        <time>2021-06-03T14:13:28Z</time>
      </trkpt>
      <trkpt lat="48.40382" lon="2.65546">
        <ele>90.800003051758</ele>
        <time>2021-06-03T14:13:33Z</time>
      </trkpt>
      <trkpt lat="48.40382" lon="2.65545">
        <ele>90.800003051758</ele>
        <time>2021-06-03T14:13:38Z</time>
      </trkpt>
      <trkpt lat="48.40381" lon="2.65545">
        <ele>90.800003051758</ele>
        <time>2021-06-03T14:13:43Z</time>
      </trkpt>
      <trkpt lat="48.4038" lon="2.65543">
        <ele>90.800003051758</ele>
        <time>2021-06-03T14:13:48Z</time>
      </trkpt>
      <trkpt lat="48.40379" lon="2.65542">
        <ele>90.800003051758</ele>
        <time>2021-06-03T14:13:53Z</time>
      </trkpt>
      <trkpt lat="48.40378" lon="2.65541">
        <ele>90.800003051758</ele>
        <time>2021-06-03T14:13:58Z</time>
      </trkpt>
      <trkpt lat="48.40378" lon="2.65542">
        <ele>90.800003051758</ele>
        <time>2021-06-03T14:14:03Z</time>
      </trkpt>
      <trkpt lat="48.40379" lon="2.65543">
        <ele>90.800003051758</ele>
        <time>2021-06-03T14:14:08Z</time>
      </trkpt>
      <trkpt lat="48.40378" lon="2.65543">
        <ele>90.800003051758</ele>
        <time>2021-06-03T14:14:13Z</time>
      </trkpt>
      <trkpt lat="48.40378" lon="2.65542">
        <ele>90.800003051758</ele>
        <time>2021-06-03T14:14:18Z</time>
      </trkpt>
      <trkpt lat="48.40379" lon="2.65541">
        <ele>90.800003051758</ele>
        <time>2021-06-03T14:14:23Z</time>
      </trkpt>
      <trkpt lat="48.4038" lon="2.65542">
        <ele>90.800003051758</ele>
        <time>2021-06-03T14:14:28Z</time>
      </trkpt>
      <trkpt lat="48.4038" lon="2.65543">
        <ele>90.800003051758</ele>
        <time>2021-06-03T14:14:33Z</time>
      </trkpt>
      <trkpt lat="48.4038" lon="2.65544">
        <ele>90.800003051758</ele>
        <time>2021-06-03T14:14:38Z</time>
      </trkpt>
      <trkpt lat="48.40381" lon="2.65546">
        <ele>90.800003051758</ele>
        <time>2021-06-03T14:14:43Z</time>
      </trkpt>
      <trkpt lat="48.40381" lon="2.65547">
        <ele>90.800003051758</ele>
        <time>2021-06-03T14:14:48Z</time>
      </trkpt>
      <trkpt lat="48.40381" lon="2.65548">
        <ele>90.800003051758</ele>
        <time>2021-06-03T14:14:53Z</time>
      </trkpt>
      <trkpt lat="48.4038" lon="2.65549">
        <ele>90.800003051758</ele>
        <time>2021-06-03T14:14:58Z</time>
      </trkpt>
      <trkpt lat="48.4038" lon="2.65549">
        <ele>90.800003051758</ele>
        <time>2021-06-03T14:15:03Z</time>
      </trkpt>
      <trkpt lat="48.40379" lon="2.65549">
        <ele>90.800003051758</ele>
        <time>2021-06-03T14:15:08Z</time>
      </trkpt>
      <trkpt lat="48.4038" lon="2.65549">
        <ele>90.800003051758</ele>
        <time>2021-06-03T14:15:13Z</time>
      </trkpt>
      <trkpt lat="48.40381" lon="2.65549">
        <ele>90.800003051758</ele>
        <time>2021-06-03T14:15:18Z</time>
      </trkpt>
      <trkpt lat="48.40382" lon="2.65549">
        <ele>90.800003051758</ele>
        <time>2021-06-03T14:15:23Z</time>
      </trkpt>
      <trkpt lat="48.40382" lon="2.65548">
        <ele>90.800003051758</ele>
        <time>2021-06-03T14:15:28Z</time>
      </trkpt>
      <trkpt lat="48.40383" lon="2.65547">
        <ele>90.800003051758</ele>
        <time>2021-06-03T14:15:33Z</time>
      </trkpt>
      <trkpt lat="48.40383" lon="2.65546">
        <ele>90.800003051758</ele>
        <time>2021-06-03T14:15:38Z</time>
      </trkpt>
      <trkpt lat="48.40383" lon="2.65547">
        <ele>90.800003051758</ele>
        <time>2021-06-03T14:15:43Z</time>
      </trkpt>
      <trkpt lat="48.40383" lon="2.65548">
        <ele>90.800003051758</ele>
        <time>2021-06-03T14:15:48Z</time>
      </trkpt>
      <trkpt lat="48.40384" lon="2.65547">
        <ele>90.800003051758</ele>
        <time>2021-06-03T14:15:53Z</time>
      </trkpt>
      <trkpt lat="48.40384" lon="2.65547">
        <ele>90.800003051758</ele>
        <time>2021-06-03T14:15:58Z</time>
      </trkpt>
      <trkpt lat="48.40384" lon="2.65547">
        <ele>90.800003051758</ele>
        <time>2021-06-03T14:16:03Z</time>
      </trkpt>
      <trkpt lat="48.40384" lon="2.65546">
        <ele>90.800003051758</ele>
        <time>2021-06-03T14:16:08Z</time>
      </trkpt>
      <trkpt lat="48.40384" lon="2.65545">
        <ele>90.800003051758</ele>
        <time>2021-06-03T14:16:13Z</time>
      </trkpt>
      <trkpt lat="48.40383" lon="2.65545">
        <ele>90.800003051758</ele>
        <time>2021-06-03T14:16:18Z</time>
      </trkpt>
      <trkpt lat="48.40382" lon="2.65546">
        <ele>90.800003051758</ele>
        <time>2021-06-03T14:16:23Z</time>
      </trkpt>
      <trkpt lat="48.40381" lon="2.65546">
        <ele>90.800003051758</ele>
        <time>2021-06-03T14:16:28Z</time>
      </trkpt>
      <trkpt lat="48.40381" lon="2.65545">
        <ele>90.800003051758</ele>
        <time>2021-06-03T14:16:33Z</time>
      </trkpt>
      <trkpt lat="48.40382" lon="2.65545">
        <ele>90.800003051758</ele>
        <time>2021-06-03T14:16:38Z</time>
      </trkpt>
      <trkpt lat="48.40383" lon="2.65544">
        <ele>90.800003051758</ele>
        <time>2021-06-03T14:16:43Z</time>
      </trkpt>
      <trkpt lat="48.40383" lon="2.65542">
        <ele>90.800003051758</ele>
        <time>2021-06-03T14:16:48Z</time>
      </trkpt>
      <trkpt lat="48.40384" lon="2.65542">
        <ele>90.800003051758</ele>
        <time>2021-06-03T14:16:53Z</time>
      </trkpt>
      <trkpt lat="48.40385" lon="2.65541">
        <ele>90.800003051758</ele>
        <time>2021-06-03T14:16:58Z</time>
      </trkpt>
      <trkpt lat="48.40384" lon="2.65541">
        <ele>90.800003051758</ele>
        <time>2021-06-03T14:17:03Z</time>
      </trkpt>
      <trkpt lat="48.40384" lon="2.65541">
        <ele>90.800003051758</ele>
        <time>2021-06-03T14:17:08Z</time>
      </trkpt>
      <trkpt lat="48.40384" lon="2.65541">
        <ele>90.800003051758</ele>
        <time>2021-06-03T14:17:13Z</time>
      </trkpt>
      <trkpt lat="48.40383" lon="2.6554">
        <ele>90.800003051758</ele>
        <time>2021-06-03T14:17:18Z</time>
      </trkpt>
      <trkpt lat="48.40385" lon="2.65539">
        <ele>90.800003051758</ele>
        <time>2021-06-03T14:17:23Z</time>
      </trkpt>
      <trkpt lat="48.40385" lon="2.65539">
        <ele>90.800003051758</ele>
        <time>2021-06-03T14:17:28Z</time>
      </trkpt>
      <trkpt lat="48.40386" lon="2.65539">
        <ele>90.800003051758</ele>
        <time>2021-06-03T14:17:33Z</time>
      </trkpt>
      <trkpt lat="48.40387" lon="2.65539">
        <ele>90.800003051758</ele>
        <time>2021-06-03T14:17:38Z</time>
      </trkpt>
      <trkpt lat="48.40387" lon="2.65539">
        <ele>90.800003051758</ele>
        <time>2021-06-03T14:17:43Z</time>
      </trkpt>
      <trkpt lat="48.40388" lon="2.65539">
        <ele>90.800003051758</ele>
        <time>2021-06-03T14:17:48Z</time>
      </trkpt>
      <trkpt lat="48.40389" lon="2.65539">
        <ele>90.800003051758</ele>
        <time>2021-06-03T14:17:54Z</time>
      </trkpt>
      <trkpt lat="48.40389" lon="2.65539">
        <ele>90.800003051758</ele>
        <time>2021-06-03T14:17:59Z</time>
      </trkpt>
      <trkpt lat="48.40389" lon="2.65539">
        <ele>90.800003051758</ele>
        <time>2021-06-03T14:18:04Z</time>
      </trkpt>
      <trkpt lat="48.40389" lon="2.65539">
        <ele>90.800003051758</ele>
        <time>2021-06-03T14:18:09Z</time>
      </trkpt>
      <trkpt lat="48.40389" lon="2.65538">
        <ele>90.800003051758</ele>
        <time>2021-06-03T14:18:14Z</time>
      </trkpt>
      <trkpt lat="48.40388" lon="2.65539">
        <ele>90.800003051758</ele>
        <time>2021-06-03T14:18:19Z</time>
      </trkpt>
      <trkpt lat="48.40389" lon="2.65538">
        <ele>90.800003051758</ele>
        <time>2021-06-03T14:18:24Z</time>
      </trkpt>
      <trkpt lat="48.40387" lon="2.65538">
        <ele>90.800003051758</ele>
        <time>2021-06-03T14:18:31Z</time>
      </trkpt>
      <trkpt lat="48.40388" lon="2.65538">
        <ele>90.800003051758</ele>
        <time>2021-06-03T14:18:37Z</time>
      </trkpt>
      <trkpt lat="48.40386" lon="2.65539">
        <ele>90.800003051758</ele>
        <time>2021-06-03T14:18:51Z</time>
      </trkpt>
      <trkpt lat="48.4038" lon="2.65542">
        <ele>90.800003051758</ele>
        <time>2021-06-03T14:19:20Z</time>
      </trkpt>
      <trkpt lat="48.40386" lon="2.65542">
        <ele>90.800003051758</ele>
        <time>2021-06-03T14:20:05Z</time>
      </trkpt>
      <trkpt lat="48.40386" lon="2.65543">
        <ele>90.800003051758</ele>
        <time>2021-06-03T14:20:11Z</time>
      </trkpt>
      <trkpt lat="48.40385" lon="2.65543">
        <ele>90.800003051758</ele>
        <time>2021-06-03T14:20:16Z</time>
      </trkpt>
      <trkpt lat="48.40384" lon="2.65543">
        <ele>90.800003051758</ele>
        <time>2021-06-03T14:20:21Z</time>
      </trkpt>
      <trkpt lat="48.40384" lon="2.65542">
        <ele>90.800003051758</ele>
        <time>2021-06-03T14:20:26Z</time>
      </trkpt>
      <trkpt lat="48.40384" lon="2.65541">
        <ele>90.800003051758</ele>
        <time>2021-06-03T14:20:33Z</time>
      </trkpt>
      <trkpt lat="48.40381" lon="2.6555">
        <ele>90.800003051758</ele>
        <time>2021-06-03T14:21:05Z</time>
      </trkpt>
      <trkpt lat="48.40381" lon="2.65556">
        <ele>91</ele>
        <time>2021-06-03T14:21:10Z</time>
      </trkpt>
      <trkpt lat="48.40382" lon="2.65562">
        <ele>91.199996948242</ele>
        <time>2021-06-03T14:21:15Z</time>
      </trkpt>
      <trkpt lat="48.40385" lon="2.65566">
        <ele>91.199996948242</ele>
        <time>2021-06-03T14:21:20Z</time>
      </trkpt>
      <trkpt lat="48.40385" lon="2.65573">
        <ele>91</ele>
        <time>2021-06-03T14:21:25Z</time>
      </trkpt>
      <trkpt lat="48.40388" lon="2.65579">
        <ele>91.199996948242</ele>
        <time>2021-06-03T14:21:30Z</time>
      </trkpt>
      <trkpt lat="48.40389" lon="2.65585">
        <ele>91.199996948242</ele>
        <time>2021-06-03T14:21:35Z</time>
      </trkpt>
      <trkpt lat="48.40391" lon="2.65592">
        <ele>91.199996948242</ele>
        <time>2021-06-03T14:21:40Z</time>
      </trkpt>
      <trkpt lat="48.40393" lon="2.656">
        <ele>91.199996948242</ele>
        <time>2021-06-03T14:21:45Z</time>
      </trkpt>
      <trkpt lat="48.40396" lon="2.65608">
        <ele>91.199996948242</ele>
        <time>2021-06-03T14:21:50Z</time>
      </trkpt>
      <trkpt lat="48.40398" lon="2.65616">
        <ele>91.199996948242</ele>
        <time>2021-06-03T14:21:55Z</time>
      </trkpt>
      <trkpt lat="48.40401" lon="2.65624">
        <ele>91.199996948242</ele>
        <time>2021-06-03T14:22:00Z</time>
      </trkpt>
      <trkpt lat="48.40405" lon="2.65632">
        <ele>91.400001525879</ele>
        <time>2021-06-03T14:22:05Z</time>
      </trkpt>
      <trkpt lat="48.40407" lon="2.6564">
        <ele>91.800003051758</ele>
        <time>2021-06-03T14:22:10Z</time>
      </trkpt>
      <trkpt lat="48.40411" lon="2.65646">
        <ele>92</ele>
        <time>2021-06-03T14:22:15Z</time>
      </trkpt>
      <trkpt lat="48.40415" lon="2.6565">
        <ele>92.199996948242</ele>
        <time>2021-06-03T14:22:20Z</time>
      </trkpt>
      <trkpt lat="48.4042" lon="2.65654">
        <ele>92.400001525879</ele>
        <time>2021-06-03T14:22:25Z</time>
      </trkpt>
      <trkpt lat="48.40423" lon="2.65661">
        <ele>92.599998474121</ele>
        <time>2021-06-03T14:22:30Z</time>
      </trkpt>
      <trkpt lat="48.40426" lon="2.65667">
        <ele>92.800003051758</ele>
        <time>2021-06-03T14:22:35Z</time>
      </trkpt>
      <trkpt lat="48.40429" lon="2.65674">
        <ele>92.800003051758</ele>
        <time>2021-06-03T14:22:40Z</time>
      </trkpt>
      <trkpt lat="48.40433" lon="2.65677">
        <ele>93</ele>
        <time>2021-06-03T14:22:45Z</time>
      </trkpt>
      <trkpt lat="48.40437" lon="2.65682">
        <ele>93.199996948242</ele>
        <time>2021-06-03T14:22:50Z</time>
      </trkpt>
      <trkpt lat="48.4044" lon="2.6569">
        <ele>93.199996948242</ele>
        <time>2021-06-03T14:22:55Z</time>
      </trkpt>
      <trkpt lat="48.40443" lon="2.65697">
        <ele>93.199996948242</ele>
        <time>2021-06-03T14:23:00Z</time>
      </trkpt>
      <trkpt lat="48.40446" lon="2.65704">
        <ele>93.400001525879</ele>
        <time>2021-06-03T14:23:05Z</time>
      </trkpt>
      <trkpt lat="48.40449" lon="2.65711">
        <ele>93.400001525879</ele>
        <time>2021-06-03T14:23:10Z</time>
      </trkpt>
      <trkpt lat="48.40452" lon="2.65717">
        <ele>93.800003051758</ele>
        <time>2021-06-03T14:23:15Z</time>
      </trkpt>
      <trkpt lat="48.40456" lon="2.65721">
        <ele>94</ele>
        <time>2021-06-03T14:23:20Z</time>
      </trkpt>
      <trkpt lat="48.4046" lon="2.65725">
        <ele>94.199996948242</ele>
        <time>2021-06-03T14:23:25Z</time>
      </trkpt>
      <trkpt lat="48.40463" lon="2.6573">
        <ele>94.599998474121</ele>
        <time>2021-06-03T14:23:30Z</time>
      </trkpt>
      <trkpt lat="48.40466" lon="2.65737">
        <ele>94.800003051758</ele>
        <time>2021-06-03T14:23:35Z</time>
      </trkpt>
      <trkpt lat="48.4047" lon="2.65741">
        <ele>95</ele>
        <time>2021-06-03T14:23:40Z</time>
      </trkpt>
      <trkpt lat="48.40476" lon="2.65742">
        <ele>95.199996948242</ele>
        <time>2021-06-03T14:23:45Z</time>
      </trkpt>
      <trkpt lat="48.40478" lon="2.65747">
        <ele>95.599998474121</ele>
        <time>2021-06-03T14:23:50Z</time>
      </trkpt>
      <trkpt lat="48.40478" lon="2.65752">
        <ele>95.800003051758</ele>
        <time>2021-06-03T14:23:55Z</time>
      </trkpt>
      <trkpt lat="48.40478" lon="2.6576">
        <ele>95.800003051758</ele>
        <time>2021-06-03T14:24:00Z</time>
      </trkpt>
      <trkpt lat="48.40478" lon="2.65767">
        <ele>96.599998474121</ele>
        <time>2021-06-03T14:24:05Z</time>
      </trkpt>
      <trkpt lat="48.40477" lon="2.65774">
        <ele>97.400001525879</ele>
        <time>2021-06-03T14:24:10Z</time>
      </trkpt>
      <trkpt lat="48.40475" lon="2.65776">
        <ele>98</ele>
        <time>2021-06-03T14:24:15Z</time>
      </trkpt>
      <trkpt lat="48.40471" lon="2.65782">
        <ele>98.599998474121</ele>
        <time>2021-06-03T14:24:20Z</time>
      </trkpt>
      <trkpt lat="48.40468" lon="2.65782">
        <ele>98.800003051758</ele>
        <time>2021-06-03T14:24:25Z</time>
      </trkpt>
      <trkpt lat="48.40466" lon="2.65783">
        <ele>99</ele>
        <time>2021-06-03T14:24:30Z</time>
      </trkpt>
      <trkpt lat="48.40463" lon="2.65783">
        <ele>99.199996948242</ele>
        <time>2021-06-03T14:24:35Z</time>
      </trkpt>
      <trkpt lat="48.40457" lon="2.65785">
        <ele>99.199996948242</ele>
        <time>2021-06-03T14:24:40Z</time>
      </trkpt>
      <trkpt lat="48.40454" lon="2.65787">
        <ele>99</ele>
        <time>2021-06-03T14:24:45Z</time>
      </trkpt>
      <trkpt lat="48.40454" lon="2.65793">
        <ele>99</ele>
        <time>2021-06-03T14:24:50Z</time>
      </trkpt>
      <trkpt lat="48.40454" lon="2.658">
        <ele>99.199996948242</ele>
        <time>2021-06-03T14:24:55Z</time>
      </trkpt>
      <trkpt lat="48.40454" lon="2.65805">
        <ele>99.800003051758</ele>
        <time>2021-06-03T14:25:00Z</time>
      </trkpt>
      <trkpt lat="48.40455" lon="2.6581">
        <ele>100.40000152588</ele>
        <time>2021-06-03T14:25:05Z</time>
      </trkpt>
      <trkpt lat="48.40457" lon="2.65814">
        <ele>101.19999694824</ele>
        <time>2021-06-03T14:25:10Z</time>
      </trkpt>
      <trkpt lat="48.40461" lon="2.65818">
        <ele>101</ele>
        <time>2021-06-03T14:25:15Z</time>
      </trkpt>
      <trkpt lat="48.40463" lon="2.65822">
        <ele>100.59999847412</ele>
        <time>2021-06-03T14:25:20Z</time>
      </trkpt>
      <trkpt lat="48.40463" lon="2.65825">
        <ele>100.59999847412</ele>
        <time>2021-06-03T14:25:25Z</time>
      </trkpt>
      <trkpt lat="48.40461" lon="2.65825">
        <ele>100.59999847412</ele>
        <time>2021-06-03T14:25:30Z</time>
      </trkpt>
      <trkpt lat="48.40459" lon="2.65827">
        <ele>100.80000305176</ele>
        <time>2021-06-03T14:25:35Z</time>
      </trkpt>
      <trkpt lat="48.40454" lon="2.65837">
        <ele>101</ele>
        <time>2021-06-03T14:25:40Z</time>
      </trkpt>
      <trkpt lat="48.40451" lon="2.65844">
        <ele>101</ele>
        <time>2021-06-03T14:25:45Z</time>
      </trkpt>
      <trkpt lat="48.40448" lon="2.65846">
        <ele>101</ele>
        <time>2021-06-03T14:25:50Z</time>
      </trkpt>
      <trkpt lat="48.40446" lon="2.65853">
        <ele>101.19999694824</ele>
        <time>2021-06-03T14:25:55Z</time>
      </trkpt>
      <trkpt lat="48.40446" lon="2.6586">
        <ele>100.80000305176</ele>
        <time>2021-06-03T14:26:00Z</time>
      </trkpt>
      <trkpt lat="48.40447" lon="2.65867">
        <ele>100.40000152588</ele>
        <time>2021-06-03T14:26:05Z</time>
      </trkpt>
      <trkpt lat="48.40447" lon="2.65875">
        <ele>99.800003051758</ele>
        <time>2021-06-03T14:26:10Z</time>
      </trkpt>
      <trkpt lat="48.40445" lon="2.6588">
        <ele>99.599998474121</ele>
        <time>2021-06-03T14:26:15Z</time>
      </trkpt>
      <trkpt lat="48.40445" lon="2.65886">
        <ele>99.599998474121</ele>
        <time>2021-06-03T14:26:20Z</time>
      </trkpt>
      <trkpt lat="48.40445" lon="2.65892">
        <ele>99.800003051758</ele>
        <time>2021-06-03T14:26:25Z</time>
      </trkpt>
      <trkpt lat="48.40443" lon="2.65899">
        <ele>100</ele>
        <time>2021-06-03T14:26:30Z</time>
      </trkpt>
      <trkpt lat="48.4044" lon="2.65906">
        <ele>99.800003051758</ele>
        <time>2021-06-03T14:26:35Z</time>
      </trkpt>
      <trkpt lat="48.40437" lon="2.65911">
        <ele>100.19999694824</ele>
        <time>2021-06-03T14:26:40Z</time>
      </trkpt>
      <trkpt lat="48.40433" lon="2.65915">
        <ele>100.59999847412</ele>
        <time>2021-06-03T14:26:45Z</time>
      </trkpt>
      <trkpt lat="48.40431" lon="2.6592">
        <ele>100.40000152588</ele>
        <time>2021-06-03T14:26:50Z</time>
      </trkpt>
      <trkpt lat="48.40432" lon="2.65926">
        <ele>100.40000152588</ele>
        <time>2021-06-03T14:26:55Z</time>
      </trkpt>
      <trkpt lat="48.40434" lon="2.6593">
        <ele>100.59999847412</ele>
        <time>2021-06-03T14:27:00Z</time>
      </trkpt>
      <trkpt lat="48.40437" lon="2.65935">
        <ele>101</ele>
        <time>2021-06-03T14:27:05Z</time>
      </trkpt>
      <trkpt lat="48.4044" lon="2.65942">
        <ele>101.40000152588</ele>
        <time>2021-06-03T14:27:10Z</time>
      </trkpt>
      <trkpt lat="48.4044" lon="2.65948">
        <ele>101.59999847412</ele>
        <time>2021-06-03T14:27:15Z</time>
      </trkpt>
      <trkpt lat="48.4044" lon="2.65951">
        <ele>102</ele>
        <time>2021-06-03T14:27:20Z</time>
      </trkpt>
      <trkpt lat="48.40441" lon="2.65955">
        <ele>102.19999694824</ele>
        <time>2021-06-03T14:27:25Z</time>
      </trkpt>
      <trkpt lat="48.40444" lon="2.65961">
        <ele>102.19999694824</ele>
        <time>2021-06-03T14:27:30Z</time>
      </trkpt>
      <trkpt lat="48.40446" lon="2.65966">
        <ele>102.40000152588</ele>
        <time>2021-06-03T14:27:35Z</time>
      </trkpt>
      <trkpt lat="48.40447" lon="2.65971">
        <ele>102.40000152588</ele>
        <time>2021-06-03T14:27:40Z</time>
      </trkpt>
      <trkpt lat="48.40446" lon="2.65978">
        <ele>102.40000152588</ele>
        <time>2021-06-03T14:27:45Z</time>
      </trkpt>
      <trkpt lat="48.40449" lon="2.65985">
        <ele>102</ele>
        <time>2021-06-03T14:27:50Z</time>
      </trkpt>
      <trkpt lat="48.40451" lon="2.65992">
        <ele>101.59999847412</ele>
        <time>2021-06-03T14:27:55Z</time>
      </trkpt>
      <trkpt lat="48.40451" lon="2.65996">
        <ele>101.40000152588</ele>
        <time>2021-06-03T14:28:00Z</time>
      </trkpt>
      <trkpt lat="48.40451" lon="2.65999">
        <ele>100.80000305176</ele>
        <time>2021-06-03T14:28:05Z</time>
      </trkpt>
      <trkpt lat="48.4045" lon="2.66005">
        <ele>100.59999847412</ele>
        <time>2021-06-03T14:28:10Z</time>
      </trkpt>
      <trkpt lat="48.40451" lon="2.66012">
        <ele>100.19999694824</ele>
        <time>2021-06-03T14:28:15Z</time>
      </trkpt>
      <trkpt lat="48.40451" lon="2.66019">
        <ele>100</ele>
        <time>2021-06-03T14:28:20Z</time>
      </trkpt>
      <trkpt lat="48.40447" lon="2.66024">
        <ele>99.800003051758</ele>
        <time>2021-06-03T14:28:25Z</time>
      </trkpt>
      <trkpt lat="48.40443" lon="2.66028">
        <ele>99.599998474121</ele>
        <time>2021-06-03T14:28:30Z</time>
      </trkpt>
      <trkpt lat="48.4044" lon="2.66031">
        <ele>99.800003051758</ele>
        <time>2021-06-03T14:28:35Z</time>
      </trkpt>
      <trkpt lat="48.40435" lon="2.66031">
        <ele>99.800003051758</ele>
        <time>2021-06-03T14:28:40Z</time>
      </trkpt>
      <trkpt lat="48.40432" lon="2.66036">
        <ele>99.800003051758</ele>
        <time>2021-06-03T14:28:45Z</time>
      </trkpt>
      <trkpt lat="48.40434" lon="2.66042">
        <ele>99.599998474121</ele>
        <time>2021-06-03T14:28:50Z</time>
      </trkpt>
      <trkpt lat="48.40433" lon="2.66047">
        <ele>99.400001525879</ele>
        <time>2021-06-03T14:28:55Z</time>
      </trkpt>
      <trkpt lat="48.40432" lon="2.66052">
        <ele>99.199996948242</ele>
        <time>2021-06-03T14:29:00Z</time>
      </trkpt>
      <trkpt lat="48.40431" lon="2.66055">
        <ele>98.599998474121</ele>
        <time>2021-06-03T14:29:05Z</time>
      </trkpt>
      <trkpt lat="48.4043" lon="2.6606">
        <ele>98.599998474121</ele>
        <time>2021-06-03T14:29:10Z</time>
      </trkpt>
      <trkpt lat="48.40427" lon="2.6606">
        <ele>98</ele>
        <time>2021-06-03T14:29:15Z</time>
      </trkpt>
      <trkpt lat="48.40424" lon="2.66061">
        <ele>97</ele>
        <time>2021-06-03T14:29:20Z</time>
      </trkpt>
      <trkpt lat="48.40421" lon="2.66061">
        <ele>96.199996948242</ele>
        <time>2021-06-03T14:29:25Z</time>
      </trkpt>
      <trkpt lat="48.40418" lon="2.6606">
        <ele>96</ele>
        <time>2021-06-03T14:29:30Z</time>
      </trkpt>
      <trkpt lat="48.40418" lon="2.6606">
        <ele>95.599998474121</ele>
        <time>2021-06-03T14:29:35Z</time>
      </trkpt>
      <trkpt lat="48.40415" lon="2.66063">
        <ele>95.400001525879</ele>
        <time>2021-06-03T14:29:40Z</time>
      </trkpt>
      <trkpt lat="48.40413" lon="2.66062">
        <ele>94.800003051758</ele>
        <time>2021-06-03T14:29:45Z</time>
      </trkpt>
      <trkpt lat="48.40406" lon="2.66065">
        <ele>94.199996948242</ele>
        <time>2021-06-03T14:29:50Z</time>
      </trkpt>
      <trkpt lat="48.404" lon="2.66065">
        <ele>93.800003051758</ele>
        <time>2021-06-03T14:29:55Z</time>
      </trkpt>
      <trkpt lat="48.40397" lon="2.66064">
        <ele>92.800003051758</ele>
        <time>2021-06-03T14:30:00Z</time>
      </trkpt>
      <trkpt lat="48.40393" lon="2.66064">
        <ele>92</ele>
        <time>2021-06-03T14:30:05Z</time>
      </trkpt>
      <trkpt lat="48.40388" lon="2.66064">
        <ele>91.800003051758</ele>
        <time>2021-06-03T14:30:10Z</time>
      </trkpt>
      <trkpt lat="48.40384" lon="2.66067">
        <ele>91.400001525879</ele>
        <time>2021-06-03T14:30:15Z</time>
      </trkpt>
      <trkpt lat="48.40381" lon="2.66069">
        <ele>91.199996948242</ele>
        <time>2021-06-03T14:30:20Z</time>
      </trkpt>
      <trkpt lat="48.40377" lon="2.66072">
        <ele>91.199996948242</ele>
        <time>2021-06-03T14:30:25Z</time>
      </trkpt>
      <trkpt lat="48.40374" lon="2.66075">
        <ele>91</ele>
        <time>2021-06-03T14:30:30Z</time>
      </trkpt>
      <trkpt lat="48.40371" lon="2.66078">
        <ele>91</ele>
        <time>2021-06-03T14:30:35Z</time>
      </trkpt>
      <trkpt lat="48.40368" lon="2.66083">
        <ele>90.800003051758</ele>
        <time>2021-06-03T14:30:40Z</time>
      </trkpt>
      <trkpt lat="48.40366" lon="2.66085">
        <ele>90.599998474121</ele>
        <time>2021-06-03T14:30:45Z</time>
      </trkpt>
      <trkpt lat="48.40362" lon="2.66089">
        <ele>90.599998474121</ele>
        <time>2021-06-03T14:30:50Z</time>
      </trkpt>
      <trkpt lat="48.40361" lon="2.66096">
        <ele>90.599998474121</ele>
        <time>2021-06-03T14:30:55Z</time>
      </trkpt>
      <trkpt lat="48.40358" lon="2.66101">
        <ele>90.599998474121</ele>
        <time>2021-06-03T14:31:00Z</time>
      </trkpt>
      <trkpt lat="48.40357" lon="2.66106">
        <ele>90.599998474121</ele>
        <time>2021-06-03T14:31:05Z</time>
      </trkpt>
      <trkpt lat="48.40355" lon="2.66112">
        <ele>90.400001525879</ele>
        <time>2021-06-03T14:31:10Z</time>
      </trkpt>
      <trkpt lat="48.40352" lon="2.66118">
        <ele>90.400001525879</ele>
        <time>2021-06-03T14:31:15Z</time>
      </trkpt>
      <trkpt lat="48.4035" lon="2.66122">
        <ele>90.400001525879</ele>
        <time>2021-06-03T14:31:20Z</time>
      </trkpt>
      <trkpt lat="48.40346" lon="2.6613">
        <ele>90.400001525879</ele>
        <time>2021-06-03T14:31:25Z</time>
      </trkpt>
      <trkpt lat="48.40343" lon="2.66136">
        <ele>90.400001525879</ele>
        <time>2021-06-03T14:31:30Z</time>
      </trkpt>
      <trkpt lat="48.4034" lon="2.66142">
        <ele>90.599998474121</ele>
        <time>2021-06-03T14:31:35Z</time>
      </trkpt>
      <trkpt lat="48.40337" lon="2.66148">
        <ele>90.800003051758</ele>
        <time>2021-06-03T14:31:40Z</time>
      </trkpt>
      <trkpt lat="48.40335" lon="2.66152">
        <ele>91</ele>
        <time>2021-06-03T14:31:45Z</time>
      </trkpt>
      <trkpt lat="48.40331" lon="2.66159">
        <ele>91.199996948242</ele>
        <time>2021-06-03T14:31:50Z</time>
      </trkpt>
      <trkpt lat="48.4033" lon="2.66166">
        <ele>91.199996948242</ele>
        <time>2021-06-03T14:31:55Z</time>
      </trkpt>
      <trkpt lat="48.40327" lon="2.66171">
        <ele>91.400001525879</ele>
        <time>2021-06-03T14:32:00Z</time>
      </trkpt>
      <trkpt lat="48.40325" lon="2.66177">
        <ele>91.599998474121</ele>
        <time>2021-06-03T14:32:05Z</time>
      </trkpt>
      <trkpt lat="48.4032" lon="2.66184">
        <ele>91.800003051758</ele>
        <time>2021-06-03T14:32:10Z</time>
      </trkpt>
      <trkpt lat="48.40318" lon="2.66189">
        <ele>91.800003051758</ele>
        <time>2021-06-03T14:32:15Z</time>
      </trkpt>
      <trkpt lat="48.40316" lon="2.66195">
        <ele>92</ele>
        <time>2021-06-03T14:32:20Z</time>
      </trkpt>
      <trkpt lat="48.40312" lon="2.662">
        <ele>92.400001525879</ele>
        <time>2021-06-03T14:32:25Z</time>
      </trkpt>
      <trkpt lat="48.40309" lon="2.66206">
        <ele>93</ele>
        <time>2021-06-03T14:32:30Z</time>
      </trkpt>
      <trkpt lat="48.40304" lon="2.66212">
        <ele>93.400001525879</ele>
        <time>2021-06-03T14:32:35Z</time>
      </trkpt>
      <trkpt lat="48.403" lon="2.66215">
        <ele>94</ele>
        <time>2021-06-03T14:32:40Z</time>
      </trkpt>
      <trkpt lat="48.40297" lon="2.6622">
        <ele>94.400001525879</ele>
        <time>2021-06-03T14:32:45Z</time>
      </trkpt>
      <trkpt lat="48.40294" lon="2.66225">
        <ele>95</ele>
        <time>2021-06-03T14:32:50Z</time>
      </trkpt>
      <trkpt lat="48.40293" lon="2.6623">
        <ele>95.599998474121</ele>
        <time>2021-06-03T14:32:55Z</time>
      </trkpt>
      <trkpt lat="48.40289" lon="2.66232">
        <ele>96.199996948242</ele>
        <time>2021-06-03T14:33:00Z</time>
      </trkpt>
      <trkpt lat="48.40285" lon="2.66233">
        <ele>97.400001525879</ele>
        <time>2021-06-03T14:33:05Z</time>
      </trkpt>
      <trkpt lat="48.4028" lon="2.66237">
        <ele>97.400001525879</ele>
        <time>2021-06-03T14:33:10Z</time>
      </trkpt>
      <trkpt lat="48.40275" lon="2.6624">
        <ele>97.400001525879</ele>
        <time>2021-06-03T14:33:15Z</time>
      </trkpt>
      <trkpt lat="48.40272" lon="2.66246">
        <ele>97.400001525879</ele>
        <time>2021-06-03T14:33:20Z</time>
      </trkpt>
      <trkpt lat="48.40269" lon="2.66248">
        <ele>97.800003051758</ele>
        <time>2021-06-03T14:33:25Z</time>
      </trkpt>
      <trkpt lat="48.40265" lon="2.6625">
        <ele>98.400001525879</ele>
        <time>2021-06-03T14:33:30Z</time>
      </trkpt>
      <trkpt lat="48.40261" lon="2.66251">
        <ele>98</ele>
        <time>2021-06-03T14:33:35Z</time>
      </trkpt>
      <trkpt lat="48.40257" lon="2.66256">
        <ele>98</ele>
        <time>2021-06-03T14:33:40Z</time>
      </trkpt>
      <trkpt lat="48.40253" lon="2.66259">
        <ele>98</ele>
        <time>2021-06-03T14:33:45Z</time>
      </trkpt>
      <trkpt lat="48.40248" lon="2.66264">
        <ele>98.199996948242</ele>
        <time>2021-06-03T14:33:50Z</time>
      </trkpt>
      <trkpt lat="48.40242" lon="2.66266">
        <ele>98.400001525879</ele>
        <time>2021-06-03T14:33:55Z</time>
      </trkpt>
      <trkpt lat="48.4024" lon="2.66268">
        <ele>98.599998474121</ele>
        <time>2021-06-03T14:34:00Z</time>
      </trkpt>
      <trkpt lat="48.40238" lon="2.66272">
        <ele>99</ele>
        <time>2021-06-03T14:34:05Z</time>
      </trkpt>
      <trkpt lat="48.40238" lon="2.66276">
        <ele>99.400001525879</ele>
        <time>2021-06-03T14:34:10Z</time>
      </trkpt>
      <trkpt lat="48.40237" lon="2.66276">
        <ele>99.599998474121</ele>
        <time>2021-06-03T14:34:15Z</time>
      </trkpt>
      <trkpt lat="48.40233" lon="2.66277">
        <ele>99.599998474121</ele>
        <time>2021-06-03T14:34:20Z</time>
      </trkpt>
      <trkpt lat="48.40227" lon="2.66279">
        <ele>99.400001525879</ele>
        <time>2021-06-03T14:34:25Z</time>
      </trkpt>
      <trkpt lat="48.40223" lon="2.6628">
        <ele>99</ele>
        <time>2021-06-03T14:34:30Z</time>
      </trkpt>
      <trkpt lat="48.40219" lon="2.66282">
        <ele>98.599998474121</ele>
        <time>2021-06-03T14:34:35Z</time>
      </trkpt>
      <trkpt lat="48.40215" lon="2.66284">
        <ele>98.199996948242</ele>
        <time>2021-06-03T14:34:40Z</time>
      </trkpt>
      <trkpt lat="48.40209" lon="2.66286">
        <ele>98.199996948242</ele>
        <time>2021-06-03T14:34:45Z</time>
      </trkpt>
      <trkpt lat="48.40206" lon="2.66289">
        <ele>98.400001525879</ele>
        <time>2021-06-03T14:34:50Z</time>
      </trkpt>
      <trkpt lat="48.40202" lon="2.66289">
        <ele>98.800003051758</ele>
        <time>2021-06-03T14:34:55Z</time>
      </trkpt>
      <trkpt lat="48.40199" lon="2.66293">
        <ele>98.800003051758</ele>
        <time>2021-06-03T14:35:00Z</time>
      </trkpt>
      <trkpt lat="48.40197" lon="2.66297">
        <ele>98.800003051758</ele>
        <time>2021-06-03T14:35:05Z</time>
      </trkpt>
      <trkpt lat="48.40196" lon="2.66304">
        <ele>98.800003051758</ele>
        <time>2021-06-03T14:35:10Z</time>
      </trkpt>
      <trkpt lat="48.40195" lon="2.6631">
        <ele>98.800003051758</ele>
        <time>2021-06-03T14:35:15Z</time>
      </trkpt>
      <trkpt lat="48.40195" lon="2.66313">
        <ele>98.800003051758</ele>
        <time>2021-06-03T14:35:20Z</time>
      </trkpt>
      <trkpt lat="48.40192" lon="2.66315">
        <ele>98.800003051758</ele>
        <time>2021-06-03T14:35:25Z</time>
      </trkpt>
      <trkpt lat="48.40191" lon="2.66318">
        <ele>98.800003051758</ele>
        <time>2021-06-03T14:35:30Z</time>
      </trkpt>
      <trkpt lat="48.40191" lon="2.66321">
        <ele>98.800003051758</ele>
        <time>2021-06-03T14:35:35Z</time>
      </trkpt>
      <trkpt lat="48.4019" lon="2.66326">
        <ele>98.800003051758</ele>
        <time>2021-06-03T14:35:40Z</time>
      </trkpt>
      <trkpt lat="48.40188" lon="2.66329">
        <ele>98.800003051758</ele>
        <time>2021-06-03T14:35:45Z</time>
      </trkpt>
      <trkpt lat="48.40186" lon="2.66331">
        <ele>98.800003051758</ele>
        <time>2021-06-03T14:35:50Z</time>
      </trkpt>
      <trkpt lat="48.40182" lon="2.66336">
        <ele>98.800003051758</ele>
        <time>2021-06-03T14:35:55Z</time>
      </trkpt>
      <trkpt lat="48.4018" lon="2.66342">
        <ele>102.80000305176</ele>
        <time>2021-06-03T14:36:00Z</time>
      </trkpt>
      <trkpt lat="48.40177" lon="2.66347">
        <ele>102.80000305176</ele>
        <time>2021-06-03T14:36:05Z</time>
      </trkpt>
      <trkpt lat="48.40177" lon="2.66353">
        <ele>103</ele>
        <time>2021-06-03T14:36:10Z</time>
      </trkpt>
      <trkpt lat="48.40176" lon="2.66359">
        <ele>102.80000305176</ele>
        <time>2021-06-03T14:36:15Z</time>
      </trkpt>
      <trkpt lat="48.40174" lon="2.66366">
        <ele>102.59999847412</ele>
        <time>2021-06-03T14:36:20Z</time>
      </trkpt>
      <trkpt lat="48.40174" lon="2.66372">
        <ele>102.59999847412</ele>
        <time>2021-06-03T14:36:25Z</time>
      </trkpt>
      <trkpt lat="48.40174" lon="2.66374">
        <ele>103</ele>
        <time>2021-06-03T14:36:30Z</time>
      </trkpt>
      <trkpt lat="48.4017" lon="2.6638">
        <ele>103</ele>
        <time>2021-06-03T14:36:35Z</time>
      </trkpt>
      <trkpt lat="48.40167" lon="2.66385">
        <ele>102.80000305176</ele>
        <time>2021-06-03T14:36:40Z</time>
      </trkpt>
      <trkpt lat="48.40166" lon="2.66388">
        <ele>103.19999694824</ele>
        <time>2021-06-03T14:36:45Z</time>
      </trkpt>
      <trkpt lat="48.40166" lon="2.66394">
        <ele>103.59999847412</ele>
        <time>2021-06-03T14:36:50Z</time>
      </trkpt>
      <trkpt lat="48.40168" lon="2.66397">
        <ele>104.19999694824</ele>
        <time>2021-06-03T14:36:55Z</time>
      </trkpt>
      <trkpt lat="48.40169" lon="2.66402">
        <ele>105</ele>
        <time>2021-06-03T14:37:00Z</time>
      </trkpt>
      <trkpt lat="48.40171" lon="2.66407">
        <ele>105.59999847412</ele>
        <time>2021-06-03T14:37:05Z</time>
      </trkpt>
      <trkpt lat="48.40173" lon="2.66408">
        <ele>106</ele>
        <time>2021-06-03T14:37:10Z</time>
      </trkpt>
      <trkpt lat="48.40174" lon="2.6641">
        <ele>107</ele>
        <time>2021-06-03T14:37:15Z</time>
      </trkpt>
      <trkpt lat="48.40177" lon="2.66413">
        <ele>107.19999694824</ele>
        <time>2021-06-03T14:37:20Z</time>
      </trkpt>
      <trkpt lat="48.40179" lon="2.66418">
        <ele>107.19999694824</ele>
        <time>2021-06-03T14:37:25Z</time>
      </trkpt>
      <trkpt lat="48.40178" lon="2.66423">
        <ele>107</ele>
        <time>2021-06-03T14:37:30Z</time>
      </trkpt>
      <trkpt lat="48.40178" lon="2.66428">
        <ele>106.40000152588</ele>
        <time>2021-06-03T14:37:35Z</time>
      </trkpt>
      <trkpt lat="48.4018" lon="2.66431">
        <ele>106.40000152588</ele>
        <time>2021-06-03T14:37:40Z</time>
      </trkpt>
      <trkpt lat="48.4018" lon="2.66432">
        <ele>106.40000152588</ele>
        <time>2021-06-03T14:37:45Z</time>
      </trkpt>
      <trkpt lat="48.40181" lon="2.66434">
        <ele>106.40000152588</ele>
        <time>2021-06-03T14:37:50Z</time>
      </trkpt>
      <trkpt lat="48.40181" lon="2.66436">
        <ele>106.40000152588</ele>
        <time>2021-06-03T14:37:55Z</time>
      </trkpt>
      <trkpt lat="48.4018" lon="2.66436">
        <ele>106.40000152588</ele>
        <time>2021-06-03T14:38:00Z</time>
      </trkpt>
      <trkpt lat="48.4018" lon="2.66435">
        <ele>106.40000152588</ele>
        <time>2021-06-03T14:38:05Z</time>
      </trkpt>
      <trkpt lat="48.4018" lon="2.66435">
        <ele>106.40000152588</ele>
        <time>2021-06-03T14:38:10Z</time>
      </trkpt>
      <trkpt lat="48.40181" lon="2.6644">
        <ele>106.19999694824</ele>
        <time>2021-06-03T14:38:15Z</time>
      </trkpt>
      <trkpt lat="48.40182" lon="2.66445">
        <ele>106</ele>
        <time>2021-06-03T14:38:20Z</time>
      </trkpt>
      <trkpt lat="48.40181" lon="2.66452">
        <ele>105.59999847412</ele>
        <time>2021-06-03T14:38:25Z</time>
      </trkpt>
      <trkpt lat="48.40182" lon="2.66457">
        <ele>105.19999694824</ele>
        <time>2021-06-03T14:38:30Z</time>
      </trkpt>
      <trkpt lat="48.40183" lon="2.66461">
        <ele>105.40000152588</ele>
        <time>2021-06-03T14:38:35Z</time>
      </trkpt>
      <trkpt lat="48.40185" lon="2.66467">
        <ele>105.59999847412</ele>
        <time>2021-06-03T14:38:40Z</time>
      </trkpt>
      <trkpt lat="48.40187" lon="2.66473">
        <ele>105.59999847412</ele>
        <time>2021-06-03T14:38:45Z</time>
      </trkpt>
      <trkpt lat="48.40191" lon="2.66479">
        <ele>105.59999847412</ele>
        <time>2021-06-03T14:38:50Z</time>
      </trkpt>
      <trkpt lat="48.40192" lon="2.66485">
        <ele>106</ele>
        <time>2021-06-03T14:38:55Z</time>
      </trkpt>
      <trkpt lat="48.40192" lon="2.66489">
        <ele>106.59999847412</ele>
        <time>2021-06-03T14:39:00Z</time>
      </trkpt>
      <trkpt lat="48.40192" lon="2.66493">
        <ele>107.19999694824</ele>
        <time>2021-06-03T14:39:05Z</time>
      </trkpt>
      <trkpt lat="48.40193" lon="2.66497">
        <ele>107.59999847412</ele>
        <time>2021-06-03T14:39:10Z</time>
      </trkpt>
      <trkpt lat="48.40193" lon="2.66501">
        <ele>108.19999694824</ele>
        <time>2021-06-03T14:39:15Z</time>
      </trkpt>
      <trkpt lat="48.40194" lon="2.66504">
        <ele>108.80000305176</ele>
        <time>2021-06-03T14:39:20Z</time>
      </trkpt>
      <trkpt lat="48.40193" lon="2.6651">
        <ele>109.19999694824</ele>
        <time>2021-06-03T14:39:25Z</time>
      </trkpt>
      <trkpt lat="48.40193" lon="2.66514">
        <ele>109.40000152588</ele>
        <time>2021-06-03T14:39:30Z</time>
      </trkpt>
      <trkpt lat="48.40194" lon="2.66516">
        <ele>110.19999694824</ele>
        <time>2021-06-03T14:39:35Z</time>
      </trkpt>
      <trkpt lat="48.40195" lon="2.66518">
        <ele>110.80000305176</ele>
        <time>2021-06-03T14:39:40Z</time>
      </trkpt>
      <trkpt lat="48.40196" lon="2.66524">
        <ele>111.59999847412</ele>
        <time>2021-06-03T14:39:45Z</time>
      </trkpt>
      <trkpt lat="48.40197" lon="2.66528">
        <ele>112</ele>
        <time>2021-06-03T14:39:50Z</time>
      </trkpt>
      <trkpt lat="48.40199" lon="2.66529">
        <ele>112.40000152588</ele>
        <time>2021-06-03T14:39:55Z</time>
      </trkpt>
      <trkpt lat="48.40202" lon="2.66532">
        <ele>112.80000305176</ele>
        <time>2021-06-03T14:40:00Z</time>
      </trkpt>
      <trkpt lat="48.40206" lon="2.66533">
        <ele>112.80000305176</ele>
        <time>2021-06-03T14:40:05Z</time>
      </trkpt>
      <trkpt lat="48.40208" lon="2.6653">
        <ele>113.19999694824</ele>
        <time>2021-06-03T14:40:10Z</time>
      </trkpt>
      <trkpt lat="48.40208" lon="2.66527">
        <ele>113.59999847412</ele>
        <time>2021-06-03T14:40:15Z</time>
      </trkpt>
      <trkpt lat="48.40207" lon="2.66525">
        <ele>113.59999847412</ele>
        <time>2021-06-03T14:40:20Z</time>
      </trkpt>
      <trkpt lat="48.40207" lon="2.66523">
        <ele>113.59999847412</ele>
        <time>2021-06-03T14:40:25Z</time>
      </trkpt>
      <trkpt lat="48.40206" lon="2.66524">
        <ele>113.40000152588</ele>
        <time>2021-06-03T14:40:30Z</time>
      </trkpt>
      <trkpt lat="48.40208" lon="2.66523">
        <ele>113.19999694824</ele>
        <time>2021-06-03T14:40:35Z</time>
      </trkpt>
      <trkpt lat="48.40208" lon="2.66515">
        <ele>113.19999694824</ele>
        <time>2021-06-03T14:40:40Z</time>
      </trkpt>
      <trkpt lat="48.40208" lon="2.66509">
        <ele>113.19999694824</ele>
        <time>2021-06-03T14:40:45Z</time>
      </trkpt>
      <trkpt lat="48.40207" lon="2.66504">
        <ele>113.40000152588</ele>
        <time>2021-06-03T14:40:50Z</time>
      </trkpt>
      <trkpt lat="48.40208" lon="2.66501">
        <ele>113.40000152588</ele>
        <time>2021-06-03T14:40:55Z</time>
      </trkpt>
      <trkpt lat="48.40208" lon="2.66501">
        <ele>113.59999847412</ele>
        <time>2021-06-03T14:41:00Z</time>
      </trkpt>
      <trkpt lat="48.40208" lon="2.66501">
        <ele>113.59999847412</ele>
        <time>2021-06-03T14:41:05Z</time>
      </trkpt>
      <trkpt lat="48.40208" lon="2.66501">
        <ele>113.40000152588</ele>
        <time>2021-06-03T14:41:10Z</time>
      </trkpt>
      <trkpt lat="48.40211" lon="2.665">
        <ele>113.59999847412</ele>
        <time>2021-06-03T14:41:15Z</time>
      </trkpt>
      <trkpt lat="48.40212" lon="2.665">
        <ele>113.80000305176</ele>
        <time>2021-06-03T14:41:20Z</time>
      </trkpt>
      <trkpt lat="48.40213" lon="2.66498">
        <ele>113.80000305176</ele>
        <time>2021-06-03T14:41:25Z</time>
      </trkpt>
      <trkpt lat="48.40214" lon="2.66496">
        <ele>113.80000305176</ele>
        <time>2021-06-03T14:41:30Z</time>
      </trkpt>
      <trkpt lat="48.40219" lon="2.66495">
        <ele>113.80000305176</ele>
        <time>2021-06-03T14:41:35Z</time>
      </trkpt>
      <trkpt lat="48.40222" lon="2.66495">
        <ele>113.80000305176</ele>
        <time>2021-06-03T14:41:40Z</time>
      </trkpt>
      <trkpt lat="48.40224" lon="2.66499">
        <ele>113.80000305176</ele>
        <time>2021-06-03T14:41:45Z</time>
      </trkpt>
      <trkpt lat="48.40226" lon="2.66503">
        <ele>113.80000305176</ele>
        <time>2021-06-03T14:41:50Z</time>
      </trkpt>
      <trkpt lat="48.40224" lon="2.66502">
        <ele>113.80000305176</ele>
        <time>2021-06-03T14:41:55Z</time>
      </trkpt>
      <trkpt lat="48.40228" lon="2.66496">
        <ele>114</ele>
        <time>2021-06-03T14:42:00Z</time>
      </trkpt>
      <trkpt lat="48.40234" lon="2.66486">
        <ele>114.19999694824</ele>
        <time>2021-06-03T14:42:05Z</time>
      </trkpt>
      <trkpt lat="48.40248" lon="2.66476">
        <ele>114.59999847412</ele>
        <time>2021-06-03T14:42:10Z</time>
      </trkpt>
      <trkpt lat="48.40256" lon="2.66471">
        <ele>114.59999847412</ele>
        <time>2021-06-03T14:42:15Z</time>
      </trkpt>
      <trkpt lat="48.40245" lon="2.66478">
        <ele>114.80000305176</ele>
        <time>2021-06-03T14:42:20Z</time>
      </trkpt>
      <trkpt lat="48.40234" lon="2.66489">
        <ele>115.59999847412</ele>
        <time>2021-06-03T14:42:25Z</time>
      </trkpt>
      <trkpt lat="48.40239" lon="2.6649">
        <ele>116.40000152588</ele>
        <time>2021-06-03T14:42:30Z</time>
      </trkpt>
      <trkpt lat="48.40242" lon="2.66489">
        <ele>117.59999847412</ele>
        <time>2021-06-03T14:42:35Z</time>
      </trkpt>
      <trkpt lat="48.40242" lon="2.66488">
        <ele>117.80000305176</ele>
        <time>2021-06-03T14:42:40Z</time>
      </trkpt>
      <trkpt lat="48.4024" lon="2.66487">
        <ele>117.80000305176</ele>
        <time>2021-06-03T14:42:45Z</time>
      </trkpt>
      <trkpt lat="48.40239" lon="2.66489">
        <ele>118</ele>
        <time>2021-06-03T14:42:50Z</time>
      </trkpt>
      <trkpt lat="48.40238" lon="2.6649">
        <ele>118.40000152588</ele>
        <time>2021-06-03T14:42:55Z</time>
      </trkpt>
      <trkpt lat="48.40236" lon="2.66492">
        <ele>118.40000152588</ele>
        <time>2021-06-03T14:43:00Z</time>
      </trkpt>
      <trkpt lat="48.40235" lon="2.66491">
        <ele>118.19999694824</ele>
        <time>2021-06-03T14:43:05Z</time>
      </trkpt>
      <trkpt lat="48.40236" lon="2.66491">
        <ele>118</ele>
        <time>2021-06-03T14:43:10Z</time>
      </trkpt>
      <trkpt lat="48.40235" lon="2.66491">
        <ele>118.19999694824</ele>
        <time>2021-06-03T14:43:15Z</time>
      </trkpt>
      <trkpt lat="48.40235" lon="2.66491">
        <ele>118</ele>
        <time>2021-06-03T14:43:20Z</time>
      </trkpt>
      <trkpt lat="48.40237" lon="2.66489">
        <ele>118</ele>
        <time>2021-06-03T14:43:25Z</time>
      </trkpt>
      <trkpt lat="48.40236" lon="2.6649">
        <ele>118.19999694824</ele>
        <time>2021-06-03T14:43:30Z</time>
      </trkpt>
      <trkpt lat="48.40236" lon="2.66491">
        <ele>118.19999694824</ele>
        <time>2021-06-03T14:43:35Z</time>
      </trkpt>
      <trkpt lat="48.40238" lon="2.66489">
        <ele>118</ele>
        <time>2021-06-03T14:43:40Z</time>
      </trkpt>
      <trkpt lat="48.40237" lon="2.66486">
        <ele>118.40000152588</ele>
        <time>2021-06-03T14:43:45Z</time>
      </trkpt>
      <trkpt lat="48.40236" lon="2.66483">
        <ele>118.59999847412</ele>
        <time>2021-06-03T14:43:50Z</time>
      </trkpt>
      <trkpt lat="48.40236" lon="2.6648">
        <ele>119.19999694824</ele>
        <time>2021-06-03T14:43:55Z</time>
      </trkpt>
      <trkpt lat="48.40238" lon="2.66479">
        <ele>119.19999694824</ele>
        <time>2021-06-03T14:44:00Z</time>
      </trkpt>
      <trkpt lat="48.40239" lon="2.66477">
        <ele>119.19999694824</ele>
        <time>2021-06-03T14:44:05Z</time>
      </trkpt>
      <trkpt lat="48.40239" lon="2.66476">
        <ele>119.59999847412</ele>
        <time>2021-06-03T14:44:10Z</time>
      </trkpt>
      <trkpt lat="48.40239" lon="2.66472">
        <ele>119.59999847412</ele>
        <time>2021-06-03T14:44:17Z</time>
      </trkpt>
      <trkpt lat="48.40239" lon="2.6647">
        <ele>119.59999847412</ele>
        <time>2021-06-03T14:44:22Z</time>
      </trkpt>
      <trkpt lat="48.4024" lon="2.66468">
        <ele>119.40000152588</ele>
        <time>2021-06-03T14:44:27Z</time>
      </trkpt>
      <trkpt lat="48.40239" lon="2.66467">
        <ele>119.19999694824</ele>
        <time>2021-06-03T14:44:32Z</time>
      </trkpt>
      <trkpt lat="48.40239" lon="2.66466">
        <ele>119</ele>
        <time>2021-06-03T14:44:37Z</time>
      </trkpt>
      <trkpt lat="48.4024" lon="2.66465">
        <ele>119.19999694824</ele>
        <time>2021-06-03T14:44:42Z</time>
      </trkpt>
      <trkpt lat="48.40241" lon="2.66465">
        <ele>118.80000305176</ele>
        <time>2021-06-03T14:44:47Z</time>
      </trkpt>
      <trkpt lat="48.40241" lon="2.66466">
        <ele>118.59999847412</ele>
        <time>2021-06-03T14:44:52Z</time>
      </trkpt>
      <trkpt lat="48.40242" lon="2.66466">
        <ele>118.80000305176</ele>
        <time>2021-06-03T14:44:57Z</time>
      </trkpt>
      <trkpt lat="48.40242" lon="2.66467">
        <ele>119</ele>
        <time>2021-06-03T14:45:02Z</time>
      </trkpt>
      <trkpt lat="48.40242" lon="2.66467">
        <ele>119.19999694824</ele>
        <time>2021-06-03T14:45:07Z</time>
      </trkpt>
      <trkpt lat="48.40242" lon="2.66468">
        <ele>119.19999694824</ele>
        <time>2021-06-03T14:45:12Z</time>
      </trkpt>
      <trkpt lat="48.40241" lon="2.66469">
        <ele>119.19999694824</ele>
        <time>2021-06-03T14:45:17Z</time>
      </trkpt>
      <trkpt lat="48.40242" lon="2.6647">
        <ele>119.19999694824</ele>
        <time>2021-06-03T14:45:22Z</time>
      </trkpt>
      <trkpt lat="48.40242" lon="2.66471">
        <ele>119.19999694824</ele>
        <time>2021-06-03T14:45:27Z</time>
      </trkpt>
      <trkpt lat="48.40242" lon="2.66471">
        <ele>119.19999694824</ele>
        <time>2021-06-03T14:45:32Z</time>
      </trkpt>
      <trkpt lat="48.40242" lon="2.66472">
        <ele>119.19999694824</ele>
        <time>2021-06-03T14:45:37Z</time>
      </trkpt>
      <trkpt lat="48.40242" lon="2.66474">
        <ele>119.19999694824</ele>
        <time>2021-06-03T14:45:42Z</time>
      </trkpt>
      <trkpt lat="48.40242" lon="2.66476">
        <ele>119.19999694824</ele>
        <time>2021-06-03T14:45:47Z</time>
      </trkpt>
      <trkpt lat="48.40242" lon="2.66477">
        <ele>119.19999694824</ele>
        <time>2021-06-03T14:45:52Z</time>
      </trkpt>
      <trkpt lat="48.40242" lon="2.66476">
        <ele>119.19999694824</ele>
        <time>2021-06-03T14:45:57Z</time>
      </trkpt>
      <trkpt lat="48.40241" lon="2.66476">
        <ele>119.19999694824</ele>
        <time>2021-06-03T14:46:02Z</time>
      </trkpt>
      <trkpt lat="48.40241" lon="2.66475">
        <ele>119.19999694824</ele>
        <time>2021-06-03T14:46:07Z</time>
      </trkpt>
      <trkpt lat="48.40242" lon="2.66473">
        <ele>119.19999694824</ele>
        <time>2021-06-03T14:46:12Z</time>
      </trkpt>
      <trkpt lat="48.40241" lon="2.66472">
        <ele>119.19999694824</ele>
        <time>2021-06-03T14:46:17Z</time>
      </trkpt>
      <trkpt lat="48.40241" lon="2.66471">
        <ele>119.19999694824</ele>
        <time>2021-06-03T14:46:22Z</time>
      </trkpt>
      <trkpt lat="48.40241" lon="2.6647">
        <ele>119.19999694824</ele>
        <time>2021-06-03T14:46:27Z</time>
      </trkpt>
      <trkpt lat="48.4024" lon="2.6647">
        <ele>119.19999694824</ele>
        <time>2021-06-03T14:46:32Z</time>
      </trkpt>
      <trkpt lat="48.40241" lon="2.66469">
        <ele>119.19999694824</ele>
        <time>2021-06-03T14:46:37Z</time>
      </trkpt>
      <trkpt lat="48.40242" lon="2.6647">
        <ele>119.19999694824</ele>
        <time>2021-06-03T14:46:42Z</time>
      </trkpt>
      <trkpt lat="48.40243" lon="2.6647">
        <ele>119.19999694824</ele>
        <time>2021-06-03T14:46:47Z</time>
      </trkpt>
      <trkpt lat="48.40243" lon="2.66469">
        <ele>119.19999694824</ele>
        <time>2021-06-03T14:46:52Z</time>
      </trkpt>
      <trkpt lat="48.40243" lon="2.6647">
        <ele>119.19999694824</ele>
        <time>2021-06-03T14:46:57Z</time>
      </trkpt>
      <trkpt lat="48.40243" lon="2.6647">
        <ele>119.19999694824</ele>
        <time>2021-06-03T14:47:02Z</time>
      </trkpt>
      <trkpt lat="48.40243" lon="2.6647">
        <ele>119.19999694824</ele>
        <time>2021-06-03T14:47:07Z</time>
      </trkpt>
      <trkpt lat="48.40243" lon="2.66472">
        <ele>119.19999694824</ele>
        <time>2021-06-03T14:47:12Z</time>
      </trkpt>
      <trkpt lat="48.40242" lon="2.66472">
        <ele>119.19999694824</ele>
        <time>2021-06-03T14:47:17Z</time>
      </trkpt>
      <trkpt lat="48.40242" lon="2.66473">
        <ele>119.19999694824</ele>
        <time>2021-06-03T14:47:22Z</time>
      </trkpt>
      <trkpt lat="48.40242" lon="2.66473">
        <ele>119.19999694824</ele>
        <time>2021-06-03T14:47:27Z</time>
      </trkpt>
      <trkpt lat="48.40241" lon="2.66472">
        <ele>119.19999694824</ele>
        <time>2021-06-03T14:47:32Z</time>
      </trkpt>
      <trkpt lat="48.40241" lon="2.66471">
        <ele>119.19999694824</ele>
        <time>2021-06-03T14:47:37Z</time>
      </trkpt>
      <trkpt lat="48.4024" lon="2.66472">
        <ele>119.19999694824</ele>
        <time>2021-06-03T14:47:42Z</time>
      </trkpt>
      <trkpt lat="48.40239" lon="2.66471">
        <ele>119.19999694824</ele>
        <time>2021-06-03T14:47:47Z</time>
      </trkpt>
      <trkpt lat="48.40239" lon="2.66472">
        <ele>119.19999694824</ele>
        <time>2021-06-03T14:47:52Z</time>
      </trkpt>
      <trkpt lat="48.40239" lon="2.66471">
        <ele>119.19999694824</ele>
        <time>2021-06-03T14:47:57Z</time>
      </trkpt>
      <trkpt lat="48.40239" lon="2.66471">
        <ele>119.19999694824</ele>
        <time>2021-06-03T14:48:02Z</time>
      </trkpt>
      <trkpt lat="48.40239" lon="2.6647">
        <ele>119.19999694824</ele>
        <time>2021-06-03T14:48:07Z</time>
      </trkpt>
      <trkpt lat="48.40239" lon="2.6647">
        <ele>119.19999694824</ele>
        <time>2021-06-03T14:48:12Z</time>
      </trkpt>
      <trkpt lat="48.40239" lon="2.6647">
        <ele>119.19999694824</ele>
        <time>2021-06-03T14:48:17Z</time>
      </trkpt>
      <trkpt lat="48.40239" lon="2.66468">
        <ele>119.19999694824</ele>
        <time>2021-06-03T14:48:22Z</time>
      </trkpt>
      <trkpt lat="48.40238" lon="2.66467">
        <ele>119.19999694824</ele>
        <time>2021-06-03T14:48:27Z</time>
      </trkpt>
      <trkpt lat="48.40238" lon="2.66467">
        <ele>119.19999694824</ele>
        <time>2021-06-03T14:48:32Z</time>
      </trkpt>
      <trkpt lat="48.40237" lon="2.66467">
        <ele>119.19999694824</ele>
        <time>2021-06-03T14:48:37Z</time>
      </trkpt>
      <trkpt lat="48.40235" lon="2.66467">
        <ele>119.19999694824</ele>
        <time>2021-06-03T14:48:42Z</time>
      </trkpt>
      <trkpt lat="48.40234" lon="2.66467">
        <ele>119.19999694824</ele>
        <time>2021-06-03T14:48:47Z</time>
      </trkpt>
      <trkpt lat="48.40234" lon="2.66468">
        <ele>119.19999694824</ele>
        <time>2021-06-03T14:48:52Z</time>
      </trkpt>
      <trkpt lat="48.40235" lon="2.66468">
        <ele>119.19999694824</ele>
        <time>2021-06-03T14:48:57Z</time>
      </trkpt>
      <trkpt lat="48.40236" lon="2.66469">
        <ele>119.19999694824</ele>
        <time>2021-06-03T14:49:02Z</time>
      </trkpt>
      <trkpt lat="48.40237" lon="2.66469">
        <ele>119.19999694824</ele>
        <time>2021-06-03T14:49:07Z</time>
      </trkpt>
      <trkpt lat="48.40237" lon="2.66469">
        <ele>119.19999694824</ele>
        <time>2021-06-03T14:49:12Z</time>
      </trkpt>
      <trkpt lat="48.40237" lon="2.66468">
        <ele>119.19999694824</ele>
        <time>2021-06-03T14:49:17Z</time>
      </trkpt>
      <trkpt lat="48.40237" lon="2.66468">
        <ele>119.19999694824</ele>
        <time>2021-06-03T14:49:22Z</time>
      </trkpt>
      <trkpt lat="48.40237" lon="2.66468">
        <ele>119.19999694824</ele>
        <time>2021-06-03T14:49:27Z</time>
      </trkpt>
      <trkpt lat="48.40237" lon="2.66469">
        <ele>119.19999694824</ele>
        <time>2021-06-03T14:49:32Z</time>
      </trkpt>
      <trkpt lat="48.40237" lon="2.66469">
        <ele>119.19999694824</ele>
        <time>2021-06-03T14:49:37Z</time>
      </trkpt>
      <trkpt lat="48.40237" lon="2.6647">
        <ele>119.19999694824</ele>
        <time>2021-06-03T14:49:42Z</time>
      </trkpt>
      <trkpt lat="48.40236" lon="2.6647">
        <ele>119.19999694824</ele>
        <time>2021-06-03T14:49:47Z</time>
      </trkpt>
      <trkpt lat="48.40236" lon="2.66469">
        <ele>119.19999694824</ele>
        <time>2021-06-03T14:49:52Z</time>
      </trkpt>
      <trkpt lat="48.40236" lon="2.66468">
        <ele>119.19999694824</ele>
        <time>2021-06-03T14:49:57Z</time>
      </trkpt>
      <trkpt lat="48.40236" lon="2.66468">
        <ele>119.19999694824</ele>
        <time>2021-06-03T14:50:02Z</time>
      </trkpt>
      <trkpt lat="48.40236" lon="2.66467">
        <ele>119.19999694824</ele>
        <time>2021-06-03T14:50:07Z</time>
      </trkpt>
      <trkpt lat="48.40236" lon="2.66467">
        <ele>119.19999694824</ele>
        <time>2021-06-03T14:50:12Z</time>
      </trkpt>
      <trkpt lat="48.40237" lon="2.66467">
        <ele>119.19999694824</ele>
        <time>2021-06-03T14:50:17Z</time>
      </trkpt>
      <trkpt lat="48.40238" lon="2.66467">
        <ele>119.19999694824</ele>
        <time>2021-06-03T14:50:22Z</time>
      </trkpt>
      <trkpt lat="48.40239" lon="2.66467">
        <ele>119.19999694824</ele>
        <time>2021-06-03T14:50:27Z</time>
      </trkpt>
      <trkpt lat="48.40239" lon="2.66464">
        <ele>119.19999694824</ele>
        <time>2021-06-03T14:50:32Z</time>
      </trkpt>
      <trkpt lat="48.40241" lon="2.66458">
        <ele>119.19999694824</ele>
        <time>2021-06-03T14:50:37Z</time>
      </trkpt>
      <trkpt lat="48.40242" lon="2.66453">
        <ele>119.19999694824</ele>
        <time>2021-06-03T14:50:42Z</time>
      </trkpt>
      <trkpt lat="48.40241" lon="2.66449">
        <ele>118</ele>
        <time>2021-06-03T14:50:47Z</time>
      </trkpt>
      <trkpt lat="48.40242" lon="2.66447">
        <ele>117.59999847412</ele>
        <time>2021-06-03T14:50:52Z</time>
      </trkpt>
      <trkpt lat="48.40243" lon="2.66443">
        <ele>117.19999694824</ele>
        <time>2021-06-03T14:50:57Z</time>
      </trkpt>
      <trkpt lat="48.40245" lon="2.66435">
        <ele>116.80000305176</ele>
        <time>2021-06-03T14:51:02Z</time>
      </trkpt>
      <trkpt lat="48.40248" lon="2.66432">
        <ele>116.80000305176</ele>
        <time>2021-06-03T14:51:07Z</time>
      </trkpt>
      <trkpt lat="48.40251" lon="2.66429">
        <ele>116.59999847412</ele>
        <time>2021-06-03T14:51:12Z</time>
      </trkpt>
      <trkpt lat="48.40254" lon="2.66427">
        <ele>116.59999847412</ele>
        <time>2021-06-03T14:51:17Z</time>
      </trkpt>
      <trkpt lat="48.40257" lon="2.66422">
        <ele>116.40000152588</ele>
        <time>2021-06-03T14:51:22Z</time>
      </trkpt>
      <trkpt lat="48.40263" lon="2.66419">
        <ele>116.19999694824</ele>
        <time>2021-06-03T14:51:27Z</time>
      </trkpt>
      <trkpt lat="48.40267" lon="2.66416">
        <ele>116</ele>
        <time>2021-06-03T14:51:32Z</time>
      </trkpt>
      <trkpt lat="48.40271" lon="2.66414">
        <ele>115.80000305176</ele>
        <time>2021-06-03T14:51:37Z</time>
      </trkpt>
      <trkpt lat="48.40275" lon="2.66412">
        <ele>115.80000305176</ele>
        <time>2021-06-03T14:51:42Z</time>
      </trkpt>
      <trkpt lat="48.4028" lon="2.66409">
        <ele>115.40000152588</ele>
        <time>2021-06-03T14:51:47Z</time>
      </trkpt>
      <trkpt lat="48.40284" lon="2.66405">
        <ele>115</ele>
        <time>2021-06-03T14:51:52Z</time>
      </trkpt>
      <trkpt lat="48.40289" lon="2.66406">
        <ele>114.59999847412</ele>
        <time>2021-06-03T14:51:57Z</time>
      </trkpt>
      <trkpt lat="48.40295" lon="2.66408">
        <ele>114</ele>
        <time>2021-06-03T14:52:03Z</time>
      </trkpt>
      <trkpt lat="48.40299" lon="2.66408">
        <ele>113.19999694824</ele>
        <time>2021-06-03T14:52:08Z</time>
      </trkpt>
      <trkpt lat="48.40304" lon="2.66406">
        <ele>112.80000305176</ele>
        <time>2021-06-03T14:52:13Z</time>
      </trkpt>
      <trkpt lat="48.40307" lon="2.66405">
        <ele>112</ele>
        <time>2021-06-03T14:52:18Z</time>
      </trkpt>
      <trkpt lat="48.40311" lon="2.664">
        <ele>111.19999694824</ele>
        <time>2021-06-03T14:52:23Z</time>
      </trkpt>
      <trkpt lat="48.40314" lon="2.66396">
        <ele>110.80000305176</ele>
        <time>2021-06-03T14:52:28Z</time>
      </trkpt>
      <trkpt lat="48.40317" lon="2.66391">
        <ele>110.59999847412</ele>
        <time>2021-06-03T14:52:33Z</time>
      </trkpt>
      <trkpt lat="48.40319" lon="2.66388">
        <ele>110.40000152588</ele>
        <time>2021-06-03T14:52:38Z</time>
      </trkpt>
      <trkpt lat="48.40324" lon="2.66385">
        <ele>110.40000152588</ele>
        <time>2021-06-03T14:52:43Z</time>
      </trkpt>
      <trkpt lat="48.40328" lon="2.66382">
        <ele>110.40000152588</ele>
        <time>2021-06-03T14:52:48Z</time>
      </trkpt>
      <trkpt lat="48.40333" lon="2.6638">
        <ele>110.40000152588</ele>
        <time>2021-06-03T14:52:53Z</time>
      </trkpt>
      <trkpt lat="48.40338" lon="2.6638">
        <ele>110.19999694824</ele>
        <time>2021-06-03T14:52:58Z</time>
      </trkpt>
      <trkpt lat="48.40343" lon="2.66379">
        <ele>110.19999694824</ele>
        <time>2021-06-03T14:53:03Z</time>
      </trkpt>
      <trkpt lat="48.40349" lon="2.66382">
        <ele>110.19999694824</ele>
        <time>2021-06-03T14:53:08Z</time>
      </trkpt>
      <trkpt lat="48.40355" lon="2.66384">
        <ele>110.19999694824</ele>
        <time>2021-06-03T14:53:13Z</time>
      </trkpt>
      <trkpt lat="48.40361" lon="2.66389">
        <ele>110.19999694824</ele>
        <time>2021-06-03T14:53:18Z</time>
      </trkpt>
      <trkpt lat="48.40366" lon="2.66394">
        <ele>110</ele>
        <time>2021-06-03T14:53:23Z</time>
      </trkpt>
      <trkpt lat="48.40371" lon="2.66395">
        <ele>109.19999694824</ele>
        <time>2021-06-03T14:53:28Z</time>
      </trkpt>
      <trkpt lat="48.40374" lon="2.66397">
        <ele>109</ele>
        <time>2021-06-03T14:53:33Z</time>
      </trkpt>
      <trkpt lat="48.40376" lon="2.66402">
        <ele>109</ele>
        <time>2021-06-03T14:53:38Z</time>
      </trkpt>
      <trkpt lat="48.40379" lon="2.66403">
        <ele>109.40000152588</ele>
        <time>2021-06-03T14:53:43Z</time>
      </trkpt>
      <trkpt lat="48.40384" lon="2.66403">
        <ele>110.19999694824</ele>
        <time>2021-06-03T14:53:48Z</time>
      </trkpt>
      <trkpt lat="48.40389" lon="2.66404">
        <ele>110.80000305176</ele>
        <time>2021-06-03T14:53:53Z</time>
      </trkpt>
      <trkpt lat="48.40393" lon="2.66409">
        <ele>111.19999694824</ele>
        <time>2021-06-03T14:53:58Z</time>
      </trkpt>
      <trkpt lat="48.40397" lon="2.66412">
        <ele>112</ele>
        <time>2021-06-03T14:54:03Z</time>
      </trkpt>
      <trkpt lat="48.40401" lon="2.66415">
        <ele>112.59999847412</ele>
        <time>2021-06-03T14:54:08Z</time>
      </trkpt>
      <trkpt lat="48.40405" lon="2.66417">
        <ele>113.19999694824</ele>
        <time>2021-06-03T14:54:13Z</time>
      </trkpt>
      <trkpt lat="48.4041" lon="2.66421">
        <ele>113.59999847412</ele>
        <time>2021-06-03T14:54:18Z</time>
      </trkpt>
      <trkpt lat="48.40414" lon="2.66425">
        <ele>114.40000152588</ele>
        <time>2021-06-03T14:54:23Z</time>
      </trkpt>
      <trkpt lat="48.40419" lon="2.66426">
        <ele>114.80000305176</ele>
        <time>2021-06-03T14:54:28Z</time>
      </trkpt>
      <trkpt lat="48.40423" lon="2.66427">
        <ele>115.40000152588</ele>
        <time>2021-06-03T14:54:33Z</time>
      </trkpt>
      <trkpt lat="48.40428" lon="2.66428">
        <ele>115.80000305176</ele>
        <time>2021-06-03T14:54:38Z</time>
      </trkpt>
      <trkpt lat="48.40433" lon="2.66429">
        <ele>116.19999694824</ele>
        <time>2021-06-03T14:54:43Z</time>
      </trkpt>
      <trkpt lat="48.40437" lon="2.66432">
        <ele>116.19999694824</ele>
        <time>2021-06-03T14:54:48Z</time>
      </trkpt>
      <trkpt lat="48.40441" lon="2.66434">
        <ele>116.19999694824</ele>
        <time>2021-06-03T14:54:53Z</time>
      </trkpt>
      <trkpt lat="48.40445" lon="2.66433">
        <ele>116.59999847412</ele>
        <time>2021-06-03T14:54:58Z</time>
      </trkpt>
      <trkpt lat="48.40449" lon="2.66429">
        <ele>117</ele>
        <time>2021-06-03T14:55:03Z</time>
      </trkpt>
      <trkpt lat="48.40452" lon="2.66427">
        <ele>117.59999847412</ele>
        <time>2021-06-03T14:55:08Z</time>
      </trkpt>
      <trkpt lat="48.40457" lon="2.66427">
        <ele>118</ele>
        <time>2021-06-03T14:55:13Z</time>
      </trkpt>
      <trkpt lat="48.40464" lon="2.66429">
        <ele>118.40000152588</ele>
        <time>2021-06-03T14:55:18Z</time>
      </trkpt>
      <trkpt lat="48.4047" lon="2.6643">
        <ele>118.40000152588</ele>
        <time>2021-06-03T14:55:23Z</time>
      </trkpt>
      <trkpt lat="48.40474" lon="2.66431">
        <ele>118.40000152588</ele>
        <time>2021-06-03T14:55:28Z</time>
      </trkpt>
      <trkpt lat="48.40477" lon="2.66429">
        <ele>118.80000305176</ele>
        <time>2021-06-03T14:55:33Z</time>
      </trkpt>
      <trkpt lat="48.4048" lon="2.66426">
        <ele>119.19999694824</ele>
        <time>2021-06-03T14:55:38Z</time>
      </trkpt>
      <trkpt lat="48.40484" lon="2.66422">
        <ele>119.59999847412</ele>
        <time>2021-06-03T14:55:43Z</time>
      </trkpt>
      <trkpt lat="48.40486" lon="2.66418">
        <ele>119.80000305176</ele>
        <time>2021-06-03T14:55:48Z</time>
      </trkpt>
      <trkpt lat="48.40488" lon="2.66413">
        <ele>120.19999694824</ele>
        <time>2021-06-03T14:55:53Z</time>
      </trkpt>
      <trkpt lat="48.40491" lon="2.66407">
        <ele>120.80000305176</ele>
        <time>2021-06-03T14:55:58Z</time>
      </trkpt>
      <trkpt lat="48.40492" lon="2.66402">
        <ele>121.40000152588</ele>
        <time>2021-06-03T14:56:03Z</time>
      </trkpt>
      <trkpt lat="48.40494" lon="2.66396">
        <ele>121.80000305176</ele>
        <time>2021-06-03T14:56:08Z</time>
      </trkpt>
      <trkpt lat="48.40496" lon="2.66391">
        <ele>122</ele>
        <time>2021-06-03T14:56:13Z</time>
      </trkpt>
      <trkpt lat="48.40498" lon="2.66387">
        <ele>122.59999847412</ele>
        <time>2021-06-03T14:56:18Z</time>
      </trkpt>
      <trkpt lat="48.40502" lon="2.66381">
        <ele>123</ele>
        <time>2021-06-03T14:56:23Z</time>
      </trkpt>
      <trkpt lat="48.40504" lon="2.66376">
        <ele>123.19999694824</ele>
        <time>2021-06-03T14:56:28Z</time>
      </trkpt>
      <trkpt lat="48.40505" lon="2.66369">
        <ele>123.40000152588</ele>
        <time>2021-06-03T14:56:33Z</time>
      </trkpt>
      <trkpt lat="48.40506" lon="2.66362">
        <ele>123.59999847412</ele>
        <time>2021-06-03T14:56:38Z</time>
      </trkpt>
      <trkpt lat="48.40508" lon="2.66356">
        <ele>123.59999847412</ele>
        <time>2021-06-03T14:56:43Z</time>
      </trkpt>
      <trkpt lat="48.40509" lon="2.66349">
        <ele>123.40000152588</ele>
        <time>2021-06-03T14:56:48Z</time>
      </trkpt>
      <trkpt lat="48.40509" lon="2.66343">
        <ele>123.19999694824</ele>
        <time>2021-06-03T14:56:53Z</time>
      </trkpt>
      <trkpt lat="48.40512" lon="2.66335">
        <ele>123.19999694824</ele>
        <time>2021-06-03T14:56:58Z</time>
      </trkpt>
      <trkpt lat="48.40511" lon="2.66327">
        <ele>123.19999694824</ele>
        <time>2021-06-03T14:57:03Z</time>
      </trkpt>
      <trkpt lat="48.40512" lon="2.6632">
        <ele>123.40000152588</ele>
        <time>2021-06-03T14:57:08Z</time>
      </trkpt>
      <trkpt lat="48.40513" lon="2.66313">
        <ele>123.59999847412</ele>
        <time>2021-06-03T14:57:13Z</time>
      </trkpt>
      <trkpt lat="48.40513" lon="2.66308">
        <ele>123.80000305176</ele>
        <time>2021-06-03T14:57:18Z</time>
      </trkpt>
      <trkpt lat="48.4051" lon="2.66304">
        <ele>124.59999847412</ele>
        <time>2021-06-03T14:57:23Z</time>
      </trkpt>
      <trkpt lat="48.40508" lon="2.66297">
        <ele>125.59999847412</ele>
        <time>2021-06-03T14:57:29Z</time>
      </trkpt>
      <trkpt lat="48.40505" lon="2.66292">
        <ele>126</ele>
        <time>2021-06-03T14:57:34Z</time>
      </trkpt>
      <trkpt lat="48.40501" lon="2.66288">
        <ele>126.40000152588</ele>
        <time>2021-06-03T14:57:39Z</time>
      </trkpt>
      <trkpt lat="48.40499" lon="2.66286">
        <ele>126.80000305176</ele>
        <time>2021-06-03T14:57:44Z</time>
      </trkpt>
      <trkpt lat="48.40495" lon="2.66283">
        <ele>127.40000152588</ele>
        <time>2021-06-03T14:57:49Z</time>
      </trkpt>
      <trkpt lat="48.40491" lon="2.66281">
        <ele>127.80000305176</ele>
        <time>2021-06-03T14:57:54Z</time>
      </trkpt>
      <trkpt lat="48.40487" lon="2.66278">
        <ele>128.19999694824</ele>
        <time>2021-06-03T14:57:59Z</time>
      </trkpt>
      <trkpt lat="48.40484" lon="2.66278">
        <ele>128.60000610352</ele>
        <time>2021-06-03T14:58:04Z</time>
      </trkpt>
      <trkpt lat="48.4048" lon="2.6628">
        <ele>129.19999694824</ele>
        <time>2021-06-03T14:58:09Z</time>
      </trkpt>
      <trkpt lat="48.40477" lon="2.6628">
        <ele>129.80000305176</ele>
        <time>2021-06-03T14:58:14Z</time>
      </trkpt>
      <trkpt lat="48.40475" lon="2.66283">
        <ele>130.19999694824</ele>
        <time>2021-06-03T14:58:19Z</time>
      </trkpt>
      <trkpt lat="48.40473" lon="2.66284">
        <ele>130.80000305176</ele>
        <time>2021-06-03T14:58:24Z</time>
      </trkpt>
      <trkpt lat="48.40472" lon="2.66287">
        <ele>131.60000610352</ele>
        <time>2021-06-03T14:58:29Z</time>
      </trkpt>
      <trkpt lat="48.40472" lon="2.66291">
        <ele>132.39999389648</ele>
        <time>2021-06-03T14:58:34Z</time>
      </trkpt>
      <trkpt lat="48.40473" lon="2.66298">
        <ele>133.19999694824</ele>
        <time>2021-06-03T14:58:39Z</time>
      </trkpt>
      <trkpt lat="48.40475" lon="2.66302">
        <ele>133.39999389648</ele>
        <time>2021-06-03T14:58:44Z</time>
      </trkpt>
      <trkpt lat="48.40475" lon="2.66305">
        <ele>133.60000610352</ele>
        <time>2021-06-03T14:58:49Z</time>
      </trkpt>
      <trkpt lat="48.40477" lon="2.66308">
        <ele>133.60000610352</ele>
        <time>2021-06-03T14:58:54Z</time>
      </trkpt>
      <trkpt lat="48.40478" lon="2.66311">
        <ele>133.19999694824</ele>
        <time>2021-06-03T14:58:59Z</time>
      </trkpt>
      <trkpt lat="48.40478" lon="2.66311">
        <ele>133.19999694824</ele>
        <time>2021-06-03T14:59:04Z</time>
      </trkpt>
      <trkpt lat="48.40478" lon="2.66311">
        <ele>133.19999694824</ele>
        <time>2021-06-03T14:59:09Z</time>
      </trkpt>
      <trkpt lat="48.40477" lon="2.6631">
        <ele>133.19999694824</ele>
        <time>2021-06-03T14:59:14Z</time>
      </trkpt>
      <trkpt lat="48.40476" lon="2.6631">
        <ele>133.19999694824</ele>
        <time>2021-06-03T14:59:19Z</time>
      </trkpt>
      <trkpt lat="48.40475" lon="2.66309">
        <ele>133.19999694824</ele>
        <time>2021-06-03T14:59:24Z</time>
      </trkpt>
      <trkpt lat="48.40474" lon="2.66308">
        <ele>133.60000610352</ele>
        <time>2021-06-03T14:59:30Z</time>
      </trkpt>
      <trkpt lat="48.40474" lon="2.6631">
        <ele>133.60000610352</ele>
        <time>2021-06-03T14:59:35Z</time>
      </trkpt>
      <trkpt lat="48.40475" lon="2.66309">
        <ele>133.39999389648</ele>
        <time>2021-06-03T14:59:40Z</time>
      </trkpt>
      <trkpt lat="48.40474" lon="2.66309">
        <ele>133.39999389648</ele>
        <time>2021-06-03T14:59:45Z</time>
      </trkpt>
      <trkpt lat="48.40475" lon="2.6631">
        <ele>133.39999389648</ele>
        <time>2021-06-03T14:59:50Z</time>
      </trkpt>
      <trkpt lat="48.40475" lon="2.66311">
        <ele>133.39999389648</ele>
        <time>2021-06-03T14:59:55Z</time>
      </trkpt>
      <trkpt lat="48.40475" lon="2.66312">
        <ele>133.19999694824</ele>
        <time>2021-06-03T15:00:00Z</time>
      </trkpt>
      <trkpt lat="48.40475" lon="2.66314">
        <ele>133.19999694824</ele>
        <time>2021-06-03T15:00:05Z</time>
      </trkpt>
      <trkpt lat="48.40475" lon="2.66316">
        <ele>133.19999694824</ele>
        <time>2021-06-03T15:00:10Z</time>
      </trkpt>
      <trkpt lat="48.40476" lon="2.66318">
        <ele>133.19999694824</ele>
        <time>2021-06-03T15:00:15Z</time>
      </trkpt>
      <trkpt lat="48.40475" lon="2.66318">
        <ele>133.19999694824</ele>
        <time>2021-06-03T15:00:20Z</time>
      </trkpt>
      <trkpt lat="48.40476" lon="2.66318">
        <ele>133.19999694824</ele>
        <time>2021-06-03T15:00:25Z</time>
      </trkpt>
      <trkpt lat="48.40474" lon="2.66319">
        <ele>133.19999694824</ele>
        <time>2021-06-03T15:00:30Z</time>
      </trkpt>
      <trkpt lat="48.40474" lon="2.66319">
        <ele>133.19999694824</ele>
        <time>2021-06-03T15:00:35Z</time>
      </trkpt>
      <trkpt lat="48.40474" lon="2.66319">
        <ele>133.19999694824</ele>
        <time>2021-06-03T15:00:40Z</time>
      </trkpt>
      <trkpt lat="48.40474" lon="2.66319">
        <ele>133.19999694824</ele>
        <time>2021-06-03T15:00:45Z</time>
      </trkpt>
      <trkpt lat="48.40475" lon="2.6632">
        <ele>133.19999694824</ele>
        <time>2021-06-03T15:00:50Z</time>
      </trkpt>
      <trkpt lat="48.40476" lon="2.6632">
        <ele>133.19999694824</ele>
        <time>2021-06-03T15:00:55Z</time>
      </trkpt>
      <trkpt lat="48.40476" lon="2.6632">
        <ele>133.19999694824</ele>
        <time>2021-06-03T15:01:00Z</time>
      </trkpt>
      <trkpt lat="48.40476" lon="2.66319">
        <ele>133.19999694824</ele>
        <time>2021-06-03T15:01:05Z</time>
      </trkpt>
      <trkpt lat="48.40475" lon="2.66318">
        <ele>133.19999694824</ele>
        <time>2021-06-03T15:01:10Z</time>
      </trkpt>
      <trkpt lat="48.40474" lon="2.66318">
        <ele>133.19999694824</ele>
        <time>2021-06-03T15:01:15Z</time>
      </trkpt>
      <trkpt lat="48.40474" lon="2.66319">
        <ele>133.19999694824</ele>
        <time>2021-06-03T15:01:20Z</time>
      </trkpt>
      <trkpt lat="48.40476" lon="2.6632">
        <ele>133.19999694824</ele>
        <time>2021-06-03T15:01:25Z</time>
      </trkpt>
      <trkpt lat="48.40477" lon="2.66321">
        <ele>133.19999694824</ele>
        <time>2021-06-03T15:01:30Z</time>
      </trkpt>
      <trkpt lat="48.40477" lon="2.6632">
        <ele>133.19999694824</ele>
        <time>2021-06-03T15:01:35Z</time>
      </trkpt>
      <trkpt lat="48.40477" lon="2.66318">
        <ele>133.19999694824</ele>
        <time>2021-06-03T15:01:40Z</time>
      </trkpt>
      <trkpt lat="48.40478" lon="2.66318">
        <ele>133.19999694824</ele>
        <time>2021-06-03T15:01:45Z</time>
      </trkpt>
      <trkpt lat="48.4048" lon="2.66318">
        <ele>133.19999694824</ele>
        <time>2021-06-03T15:01:50Z</time>
      </trkpt>
      <trkpt lat="48.40485" lon="2.66319">
        <ele>133.19999694824</ele>
        <time>2021-06-03T15:01:55Z</time>
      </trkpt>
      <trkpt lat="48.40488" lon="2.66326">
        <ele>133.19999694824</ele>
        <time>2021-06-03T15:02:00Z</time>
      </trkpt>
      <trkpt lat="48.40488" lon="2.6633">
        <ele>133.19999694824</ele>
        <time>2021-06-03T15:02:05Z</time>
      </trkpt>
      <trkpt lat="48.40489" lon="2.66337">
        <ele>133.19999694824</ele>
        <time>2021-06-03T15:02:10Z</time>
      </trkpt>
      <trkpt lat="48.40487" lon="2.66343">
        <ele>133.19999694824</ele>
        <time>2021-06-03T15:02:15Z</time>
      </trkpt>
      <trkpt lat="48.40485" lon="2.66348">
        <ele>133.19999694824</ele>
        <time>2021-06-03T15:02:20Z</time>
      </trkpt>
      <trkpt lat="48.40485" lon="2.66353">
        <ele>133.39999389648</ele>
        <time>2021-06-03T15:02:25Z</time>
      </trkpt>
      <trkpt lat="48.40482" lon="2.66358">
        <ele>134.19999694824</ele>
        <time>2021-06-03T15:02:30Z</time>
      </trkpt>
      <trkpt lat="48.40478" lon="2.66364">
        <ele>134.39999389648</ele>
        <time>2021-06-03T15:02:35Z</time>
      </trkpt>
      <trkpt lat="48.40479" lon="2.66372">
        <ele>134.80000305176</ele>
        <time>2021-06-03T15:02:40Z</time>
      </trkpt>
      <trkpt lat="48.40478" lon="2.66377">
        <ele>134.80000305176</ele>
        <time>2021-06-03T15:02:45Z</time>
      </trkpt>
      <trkpt lat="48.40479" lon="2.66377">
        <ele>134.80000305176</ele>
        <time>2021-06-03T15:02:50Z</time>
      </trkpt>
      <trkpt lat="48.4048" lon="2.66375">
        <ele>135</ele>
        <time>2021-06-03T15:02:55Z</time>
      </trkpt>
      <trkpt lat="48.40479" lon="2.66373">
        <ele>134.80000305176</ele>
        <time>2021-06-03T15:03:00Z</time>
      </trkpt>
      <trkpt lat="48.40478" lon="2.66368">
        <ele>134.60000610352</ele>
        <time>2021-06-03T15:03:05Z</time>
      </trkpt>
      <trkpt lat="48.40476" lon="2.66368">
        <ele>134.39999389648</ele>
        <time>2021-06-03T15:03:10Z</time>
      </trkpt>
      <trkpt lat="48.40475" lon="2.66369">
        <ele>134.39999389648</ele>
        <time>2021-06-03T15:03:15Z</time>
      </trkpt>
      <trkpt lat="48.40474" lon="2.66371">
        <ele>134.39999389648</ele>
        <time>2021-06-03T15:03:20Z</time>
      </trkpt>
      <trkpt lat="48.4047" lon="2.66373">
        <ele>135</ele>
        <time>2021-06-03T15:03:25Z</time>
      </trkpt>
      <trkpt lat="48.4047" lon="2.66379">
        <ele>135.39999389648</ele>
        <time>2021-06-03T15:03:30Z</time>
      </trkpt>
      <trkpt lat="48.40469" lon="2.66383">
        <ele>135.80000305176</ele>
        <time>2021-06-03T15:03:35Z</time>
      </trkpt>
      <trkpt lat="48.40468" lon="2.66385">
        <ele>136.60000610352</ele>
        <time>2021-06-03T15:03:40Z</time>
      </trkpt>
      <trkpt lat="48.40468" lon="2.66384">
        <ele>136.60000610352</ele>
        <time>2021-06-03T15:03:45Z</time>
      </trkpt>
      <trkpt lat="48.40467" lon="2.66385">
        <ele>136.60000610352</ele>
        <time>2021-06-03T15:03:50Z</time>
      </trkpt>
      <trkpt lat="48.40467" lon="2.66385">
        <ele>136.60000610352</ele>
        <time>2021-06-03T15:03:55Z</time>
      </trkpt>
      <trkpt lat="48.40467" lon="2.66385">
        <ele>136.39999389648</ele>
        <time>2021-06-03T15:04:00Z</time>
      </trkpt>
      <trkpt lat="48.40467" lon="2.66385">
        <ele>136.39999389648</ele>
        <time>2021-06-03T15:04:05Z</time>
      </trkpt>
      <trkpt lat="48.40467" lon="2.66385">
        <ele>136.39999389648</ele>
        <time>2021-06-03T15:04:10Z</time>
      </trkpt>
      <trkpt lat="48.40467" lon="2.66386">
        <ele>136.39999389648</ele>
        <time>2021-06-03T15:04:15Z</time>
      </trkpt>
      <trkpt lat="48.40467" lon="2.66386">
        <ele>136.39999389648</ele>
        <time>2021-06-03T15:04:20Z</time>
      </trkpt>
      <trkpt lat="48.40467" lon="2.66386">
        <ele>136.39999389648</ele>
        <time>2021-06-03T15:04:25Z</time>
      </trkpt>
      <trkpt lat="48.40467" lon="2.66386">
        <ele>136.39999389648</ele>
        <time>2021-06-03T15:04:30Z</time>
      </trkpt>
      <trkpt lat="48.40467" lon="2.66387">
        <ele>136.39999389648</ele>
        <time>2021-06-03T15:04:35Z</time>
      </trkpt>
      <trkpt lat="48.40466" lon="2.66386">
        <ele>136.39999389648</ele>
        <time>2021-06-03T15:04:40Z</time>
      </trkpt>
      <trkpt lat="48.40466" lon="2.66385">
        <ele>136.60000610352</ele>
        <time>2021-06-03T15:04:45Z</time>
      </trkpt>
      <trkpt lat="48.40466" lon="2.66385">
        <ele>136.60000610352</ele>
        <time>2021-06-03T15:04:50Z</time>
      </trkpt>
      <trkpt lat="48.40466" lon="2.66385">
        <ele>136.60000610352</ele>
        <time>2021-06-03T15:04:55Z</time>
      </trkpt>
      <trkpt lat="48.40466" lon="2.66385">
        <ele>136.60000610352</ele>
        <time>2021-06-03T15:05:00Z</time>
      </trkpt>
      <trkpt lat="48.40466" lon="2.66385">
        <ele>136.60000610352</ele>
        <time>2021-06-03T15:05:05Z</time>
      </trkpt>
      <trkpt lat="48.40466" lon="2.66386">
        <ele>136.60000610352</ele>
        <time>2021-06-03T15:05:10Z</time>
      </trkpt>
      <trkpt lat="48.40467" lon="2.66386">
        <ele>136.60000610352</ele>
        <time>2021-06-03T15:05:15Z</time>
      </trkpt>
      <trkpt lat="48.40468" lon="2.66387">
        <ele>136.60000610352</ele>
        <time>2021-06-03T15:05:20Z</time>
      </trkpt>
      <trkpt lat="48.40468" lon="2.66386">
        <ele>136.60000610352</ele>
        <time>2021-06-03T15:05:25Z</time>
      </trkpt>
      <trkpt lat="48.40466" lon="2.66386">
        <ele>136.60000610352</ele>
        <time>2021-06-03T15:05:30Z</time>
      </trkpt>
      <trkpt lat="48.40466" lon="2.66386">
        <ele>136.60000610352</ele>
        <time>2021-06-03T15:05:35Z</time>
      </trkpt>
      <trkpt lat="48.40467" lon="2.66384">
        <ele>136.60000610352</ele>
        <time>2021-06-03T15:05:40Z</time>
      </trkpt>
      <trkpt lat="48.40465" lon="2.66382">
        <ele>136.60000610352</ele>
        <time>2021-06-03T15:05:45Z</time>
      </trkpt>
      <trkpt lat="48.40463" lon="2.6638">
        <ele>136.60000610352</ele>
        <time>2021-06-03T15:05:50Z</time>
      </trkpt>
      <trkpt lat="48.40461" lon="2.6638">
        <ele>136.60000610352</ele>
        <time>2021-06-03T15:05:55Z</time>
      </trkpt>
      <trkpt lat="48.40462" lon="2.66378">
        <ele>136.60000610352</ele>
        <time>2021-06-03T15:06:00Z</time>
      </trkpt>
      <trkpt lat="48.40464" lon="2.66373">
        <ele>136.60000610352</ele>
        <time>2021-06-03T15:06:05Z</time>
      </trkpt>
      <trkpt lat="48.40465" lon="2.66369">
        <ele>136.60000610352</ele>
        <time>2021-06-03T15:06:10Z</time>
      </trkpt>
      <trkpt lat="48.40463" lon="2.66364">
        <ele>136.60000610352</ele>
        <time>2021-06-03T15:06:15Z</time>
      </trkpt>
      <trkpt lat="48.4046" lon="2.66363">
        <ele>133.39999389648</ele>
        <time>2021-06-03T15:06:20Z</time>
      </trkpt>
      <trkpt lat="48.40456" lon="2.66365">
        <ele>132.80000305176</ele>
        <time>2021-06-03T15:06:25Z</time>
      </trkpt>
      <trkpt lat="48.40452" lon="2.66369">
        <ele>132.60000610352</ele>
        <time>2021-06-03T15:06:30Z</time>
      </trkpt>
      <trkpt lat="48.40448" lon="2.66371">
        <ele>132.80000305176</ele>
        <time>2021-06-03T15:06:35Z</time>
      </trkpt>
      <trkpt lat="48.40445" lon="2.6637">
        <ele>133</ele>
        <time>2021-06-03T15:06:40Z</time>
      </trkpt>
      <trkpt lat="48.40444" lon="2.66369">
        <ele>133</ele>
        <time>2021-06-03T15:06:45Z</time>
      </trkpt>
      <trkpt lat="48.40444" lon="2.66366">
        <ele>132.60000610352</ele>
        <time>2021-06-03T15:06:50Z</time>
      </trkpt>
      <trkpt lat="48.40443" lon="2.66363">
        <ele>132.19999694824</ele>
        <time>2021-06-03T15:06:55Z</time>
      </trkpt>
      <trkpt lat="48.40443" lon="2.66361">
        <ele>131.80000305176</ele>
        <time>2021-06-03T15:07:00Z</time>
      </trkpt>
      <trkpt lat="48.40443" lon="2.66359">
        <ele>131.19999694824</ele>
        <time>2021-06-03T15:07:05Z</time>
      </trkpt>
      <trkpt lat="48.40444" lon="2.66353">
        <ele>130.19999694824</ele>
        <time>2021-06-03T15:07:10Z</time>
      </trkpt>
      <trkpt lat="48.40445" lon="2.66345">
        <ele>129.80000305176</ele>
        <time>2021-06-03T15:07:15Z</time>
      </trkpt>
      <trkpt lat="48.40445" lon="2.66339">
        <ele>130</ele>
        <time>2021-06-03T15:07:20Z</time>
      </trkpt>
      <trkpt lat="48.40443" lon="2.66337">
        <ele>130</ele>
        <time>2021-06-03T15:07:25Z</time>
      </trkpt>
      <trkpt lat="48.40442" lon="2.66336">
        <ele>129.80000305176</ele>
        <time>2021-06-03T15:07:30Z</time>
      </trkpt>
      <trkpt lat="48.40442" lon="2.66335">
        <ele>129.19999694824</ele>
        <time>2021-06-03T15:07:35Z</time>
      </trkpt>
      <trkpt lat="48.40439" lon="2.66331">
        <ele>129</ele>
        <time>2021-06-03T15:07:40Z</time>
      </trkpt>
      <trkpt lat="48.40437" lon="2.66324">
        <ele>128</ele>
        <time>2021-06-03T15:07:45Z</time>
      </trkpt>
      <trkpt lat="48.40436" lon="2.66322">
        <ele>126.80000305176</ele>
        <time>2021-06-03T15:07:50Z</time>
      </trkpt>
      <trkpt lat="48.40435" lon="2.66319">
        <ele>126.19999694824</ele>
        <time>2021-06-03T15:07:55Z</time>
      </trkpt>
      <trkpt lat="48.40435" lon="2.66316">
        <ele>125.80000305176</ele>
        <time>2021-06-03T15:08:00Z</time>
      </trkpt>
      <trkpt lat="48.40435" lon="2.66315">
        <ele>125.19999694824</ele>
        <time>2021-06-03T15:08:05Z</time>
      </trkpt>
      <trkpt lat="48.40433" lon="2.6631">
        <ele>124.59999847412</ele>
        <time>2021-06-03T15:08:10Z</time>
      </trkpt>
      <trkpt lat="48.40433" lon="2.66306">
        <ele>123.80000305176</ele>
        <time>2021-06-03T15:08:15Z</time>
      </trkpt>
      <trkpt lat="48.40435" lon="2.66301">
        <ele>123.40000152588</ele>
        <time>2021-06-03T15:08:20Z</time>
      </trkpt>
      <trkpt lat="48.40436" lon="2.66298">
        <ele>122.59999847412</ele>
        <time>2021-06-03T15:08:25Z</time>
      </trkpt>
      <trkpt lat="48.40436" lon="2.66293">
        <ele>122</ele>
        <time>2021-06-03T15:08:30Z</time>
      </trkpt>
      <trkpt lat="48.40437" lon="2.66289">
        <ele>121.59999847412</ele>
        <time>2021-06-03T15:08:35Z</time>
      </trkpt>
      <trkpt lat="48.40437" lon="2.66287">
        <ele>121.19999694824</ele>
        <time>2021-06-03T15:08:40Z</time>
      </trkpt>
      <trkpt lat="48.40439" lon="2.66283">
        <ele>120.59999847412</ele>
        <time>2021-06-03T15:08:45Z</time>
      </trkpt>
      <trkpt lat="48.40441" lon="2.6628">
        <ele>120</ele>
        <time>2021-06-03T15:08:50Z</time>
      </trkpt>
      <trkpt lat="48.40443" lon="2.66278">
        <ele>119.80000305176</ele>
        <time>2021-06-03T15:08:55Z</time>
      </trkpt>
      <trkpt lat="48.40444" lon="2.66271">
        <ele>119.19999694824</ele>
        <time>2021-06-03T15:09:00Z</time>
      </trkpt>
      <trkpt lat="48.40446" lon="2.66267">
        <ele>118.59999847412</ele>
        <time>2021-06-03T15:09:05Z</time>
      </trkpt>
      <trkpt lat="48.40446" lon="2.66265">
        <ele>118</ele>
        <time>2021-06-03T15:09:10Z</time>
      </trkpt>
      <trkpt lat="48.40447" lon="2.66265">
        <ele>117.80000305176</ele>
        <time>2021-06-03T15:09:15Z</time>
      </trkpt>
      <trkpt lat="48.40447" lon="2.66265">
        <ele>117.80000305176</ele>
        <time>2021-06-03T15:09:20Z</time>
      </trkpt>
      <trkpt lat="48.40448" lon="2.66266">
        <ele>117.80000305176</ele>
        <time>2021-06-03T15:09:25Z</time>
      </trkpt>
      <trkpt lat="48.40448" lon="2.66265">
        <ele>117.80000305176</ele>
        <time>2021-06-03T15:09:30Z</time>
      </trkpt>
      <trkpt lat="48.40449" lon="2.66257">
        <ele>117.59999847412</ele>
        <time>2021-06-03T15:09:35Z</time>
      </trkpt>
      <trkpt lat="48.4045" lon="2.66252">
        <ele>117.59999847412</ele>
        <time>2021-06-03T15:09:40Z</time>
      </trkpt>
      <trkpt lat="48.40451" lon="2.66246">
        <ele>117.59999847412</ele>
        <time>2021-06-03T15:09:45Z</time>
      </trkpt>
      <trkpt lat="48.40454" lon="2.66243">
        <ele>117.59999847412</ele>
        <time>2021-06-03T15:09:50Z</time>
      </trkpt>
      <trkpt lat="48.40457" lon="2.66239">
        <ele>117.80000305176</ele>
        <time>2021-06-03T15:09:55Z</time>
      </trkpt>
      <trkpt lat="48.40461" lon="2.66236">
        <ele>117.80000305176</ele>
        <time>2021-06-03T15:10:00Z</time>
      </trkpt>
      <trkpt lat="48.40464" lon="2.66235">
        <ele>117.59999847412</ele>
        <time>2021-06-03T15:10:05Z</time>
      </trkpt>
      <trkpt lat="48.40467" lon="2.66234">
        <ele>117.80000305176</ele>
        <time>2021-06-03T15:10:10Z</time>
      </trkpt>
      <trkpt lat="48.40471" lon="2.6623">
        <ele>118.19999694824</ele>
        <time>2021-06-03T15:10:15Z</time>
      </trkpt>
      <trkpt lat="48.40475" lon="2.66229">
        <ele>118.59999847412</ele>
        <time>2021-06-03T15:10:20Z</time>
      </trkpt>
      <trkpt lat="48.4048" lon="2.66227">
        <ele>119</ele>
        <time>2021-06-03T15:10:25Z</time>
      </trkpt>
      <trkpt lat="48.40482" lon="2.66223">
        <ele>118.19999694824</ele>
        <time>2021-06-03T15:10:30Z</time>
      </trkpt>
      <trkpt lat="48.40486" lon="2.6622">
        <ele>118.19999694824</ele>
        <time>2021-06-03T15:10:35Z</time>
      </trkpt>
      <trkpt lat="48.40491" lon="2.6622">
        <ele>118.19999694824</ele>
        <time>2021-06-03T15:10:40Z</time>
      </trkpt>
      <trkpt lat="48.40495" lon="2.66221">
        <ele>118.19999694824</ele>
        <time>2021-06-03T15:10:45Z</time>
      </trkpt>
      <trkpt lat="48.40498" lon="2.66224">
        <ele>118.19999694824</ele>
        <time>2021-06-03T15:10:50Z</time>
      </trkpt>
      <trkpt lat="48.40501" lon="2.66224">
        <ele>118.19999694824</ele>
        <time>2021-06-03T15:10:55Z</time>
      </trkpt>
      <trkpt lat="48.40503" lon="2.66226">
        <ele>118.19999694824</ele>
        <time>2021-06-03T15:11:00Z</time>
      </trkpt>
      <trkpt lat="48.40507" lon="2.66229">
        <ele>118.19999694824</ele>
        <time>2021-06-03T15:11:05Z</time>
      </trkpt>
      <trkpt lat="48.40509" lon="2.66231">
        <ele>118.19999694824</ele>
        <time>2021-06-03T15:11:10Z</time>
      </trkpt>
      <trkpt lat="48.40511" lon="2.66236">
        <ele>118.19999694824</ele>
        <time>2021-06-03T15:11:15Z</time>
      </trkpt>
      <trkpt lat="48.40515" lon="2.66241">
        <ele>118.19999694824</ele>
        <time>2021-06-03T15:11:20Z</time>
      </trkpt>
      <trkpt lat="48.40518" lon="2.66244">
        <ele>118.19999694824</ele>
        <time>2021-06-03T15:11:25Z</time>
      </trkpt>
      <trkpt lat="48.40521" lon="2.66249">
        <ele>118.19999694824</ele>
        <time>2021-06-03T15:11:30Z</time>
      </trkpt>
      <trkpt lat="48.40525" lon="2.66254">
        <ele>113</ele>
        <time>2021-06-03T15:11:35Z</time>
      </trkpt>
      <trkpt lat="48.40529" lon="2.6626">
        <ele>113</ele>
        <time>2021-06-03T15:11:40Z</time>
      </trkpt>
      <trkpt lat="48.4053" lon="2.66267">
        <ele>113</ele>
        <time>2021-06-03T15:11:45Z</time>
      </trkpt>
      <trkpt lat="48.40531" lon="2.66273">
        <ele>113.19999694824</ele>
        <time>2021-06-03T15:11:50Z</time>
      </trkpt>
      <trkpt lat="48.40531" lon="2.66279">
        <ele>113.19999694824</ele>
        <time>2021-06-03T15:11:55Z</time>
      </trkpt>
      <trkpt lat="48.40533" lon="2.66285">
        <ele>113.40000152588</ele>
        <time>2021-06-03T15:12:00Z</time>
      </trkpt>
      <trkpt lat="48.40534" lon="2.66291">
        <ele>113.40000152588</ele>
        <time>2021-06-03T15:12:05Z</time>
      </trkpt>
      <trkpt lat="48.40536" lon="2.66299">
        <ele>112.80000305176</ele>
        <time>2021-06-03T15:12:10Z</time>
      </trkpt>
      <trkpt lat="48.40536" lon="2.66307">
        <ele>112.59999847412</ele>
        <time>2021-06-03T15:12:15Z</time>
      </trkpt>
      <trkpt lat="48.40537" lon="2.66313">
        <ele>112.59999847412</ele>
        <time>2021-06-03T15:12:20Z</time>
      </trkpt>
      <trkpt lat="48.40538" lon="2.66319">
        <ele>112</ele>
        <time>2021-06-03T15:12:25Z</time>
      </trkpt>
      <trkpt lat="48.40539" lon="2.66322">
        <ele>111.19999694824</ele>
        <time>2021-06-03T15:12:30Z</time>
      </trkpt>
      <trkpt lat="48.40538" lon="2.66329">
        <ele>110.59999847412</ele>
        <time>2021-06-03T15:12:35Z</time>
      </trkpt>
      <trkpt lat="48.40539" lon="2.66335">
        <ele>109.80000305176</ele>
        <time>2021-06-03T15:12:40Z</time>
      </trkpt>
      <trkpt lat="48.40537" lon="2.6634">
        <ele>109.19999694824</ele>
        <time>2021-06-03T15:12:45Z</time>
      </trkpt>
      <trkpt lat="48.40538" lon="2.66346">
        <ele>109</ele>
        <time>2021-06-03T15:12:50Z</time>
      </trkpt>
      <trkpt lat="48.40537" lon="2.6635">
        <ele>109</ele>
        <time>2021-06-03T15:12:55Z</time>
      </trkpt>
      <trkpt lat="48.40537" lon="2.66355">
        <ele>109.80000305176</ele>
        <time>2021-06-03T15:13:00Z</time>
      </trkpt>
      <trkpt lat="48.40537" lon="2.66364">
        <ele>110.40000152588</ele>
        <time>2021-06-03T15:13:05Z</time>
      </trkpt>
      <trkpt lat="48.40536" lon="2.66372">
        <ele>110</ele>
        <time>2021-06-03T15:13:10Z</time>
      </trkpt>
      <trkpt lat="48.40535" lon="2.66376">
        <ele>109.59999847412</ele>
        <time>2021-06-03T15:13:15Z</time>
      </trkpt>
      <trkpt lat="48.40531" lon="2.66381">
        <ele>109.40000152588</ele>
        <time>2021-06-03T15:13:20Z</time>
      </trkpt>
      <trkpt lat="48.40529" lon="2.66386">
        <ele>109.40000152588</ele>
        <time>2021-06-03T15:13:25Z</time>
      </trkpt>
      <trkpt lat="48.40527" lon="2.66392">
        <ele>109.59999847412</ele>
        <time>2021-06-03T15:13:30Z</time>
      </trkpt>
      <trkpt lat="48.40526" lon="2.66397">
        <ele>109.40000152588</ele>
        <time>2021-06-03T15:13:35Z</time>
      </trkpt>
      <trkpt lat="48.40528" lon="2.66402">
        <ele>108.59999847412</ele>
        <time>2021-06-03T15:13:40Z</time>
      </trkpt>
      <trkpt lat="48.40532" lon="2.66401">
        <ele>108</ele>
        <time>2021-06-03T15:13:45Z</time>
      </trkpt>
      <trkpt lat="48.40531" lon="2.66403">
        <ele>107.40000152588</ele>
        <time>2021-06-03T15:13:50Z</time>
      </trkpt>
      <trkpt lat="48.40533" lon="2.66406">
        <ele>106.59999847412</ele>
        <time>2021-06-03T15:13:55Z</time>
      </trkpt>
      <trkpt lat="48.40532" lon="2.66411">
        <ele>105.80000305176</ele>
        <time>2021-06-03T15:14:00Z</time>
      </trkpt>
      <trkpt lat="48.4053" lon="2.66417">
        <ele>105.19999694824</ele>
        <time>2021-06-03T15:14:05Z</time>
      </trkpt>
      <trkpt lat="48.4053" lon="2.66422">
        <ele>104.19999694824</ele>
        <time>2021-06-03T15:14:10Z</time>
      </trkpt>
      <trkpt lat="48.4053" lon="2.66429">
        <ele>103.40000152588</ele>
        <time>2021-06-03T15:14:15Z</time>
      </trkpt>
      <trkpt lat="48.40529" lon="2.66435">
        <ele>103</ele>
        <time>2021-06-03T15:14:20Z</time>
      </trkpt>
      <trkpt lat="48.40528" lon="2.66442">
        <ele>102.19999694824</ele>
        <time>2021-06-03T15:14:25Z</time>
      </trkpt>
      <trkpt lat="48.40526" lon="2.66446">
        <ele>101.40000152588</ele>
        <time>2021-06-03T15:14:30Z</time>
      </trkpt>
      <trkpt lat="48.40527" lon="2.6645">
        <ele>100.59999847412</ele>
        <time>2021-06-03T15:14:35Z</time>
      </trkpt>
      <trkpt lat="48.40524" lon="2.66455">
        <ele>100</ele>
        <time>2021-06-03T15:14:40Z</time>
      </trkpt>
      <trkpt lat="48.40521" lon="2.66458">
        <ele>99.800003051758</ele>
        <time>2021-06-03T15:14:45Z</time>
      </trkpt>
      <trkpt lat="48.40518" lon="2.6646">
        <ele>99.199996948242</ele>
        <time>2021-06-03T15:14:50Z</time>
      </trkpt>
      <trkpt lat="48.40515" lon="2.66466">
        <ele>98.800003051758</ele>
        <time>2021-06-03T15:14:55Z</time>
      </trkpt>
      <trkpt lat="48.40511" lon="2.66469">
        <ele>98.599998474121</ele>
        <time>2021-06-03T15:15:00Z</time>
      </trkpt>
      <trkpt lat="48.40507" lon="2.66476">
        <ele>98.599998474121</ele>
        <time>2021-06-03T15:15:06Z</time>
      </trkpt>
      <trkpt lat="48.40503" lon="2.66479">
        <ele>98.400001525879</ele>
        <time>2021-06-03T15:15:11Z</time>
      </trkpt>
      <trkpt lat="48.405" lon="2.6648">
        <ele>98</ele>
        <time>2021-06-03T15:15:16Z</time>
      </trkpt>
      <trkpt lat="48.40498" lon="2.66484">
        <ele>97.400001525879</ele>
        <time>2021-06-03T15:15:21Z</time>
      </trkpt>
      <trkpt lat="48.40497" lon="2.66484">
        <ele>97.400001525879</ele>
        <time>2021-06-03T15:15:26Z</time>
      </trkpt>
      <trkpt lat="48.40497" lon="2.66483">
        <ele>97.400001525879</ele>
        <time>2021-06-03T15:15:31Z</time>
      </trkpt>
      <trkpt lat="48.40497" lon="2.66484">
        <ele>97.400001525879</ele>
        <time>2021-06-03T15:15:36Z</time>
      </trkpt>
      <trkpt lat="48.40495" lon="2.66487">
        <ele>97.400001525879</ele>
        <time>2021-06-03T15:15:41Z</time>
      </trkpt>
      <trkpt lat="48.40492" lon="2.66493">
        <ele>97</ele>
        <time>2021-06-03T15:15:46Z</time>
      </trkpt>
      <trkpt lat="48.4049" lon="2.66498">
        <ele>96.400001525879</ele>
        <time>2021-06-03T15:15:51Z</time>
      </trkpt>
      <trkpt lat="48.40489" lon="2.66504">
        <ele>95.800003051758</ele>
        <time>2021-06-03T15:15:56Z</time>
      </trkpt>
      <trkpt lat="48.40487" lon="2.66511">
        <ele>95.199996948242</ele>
        <time>2021-06-03T15:16:01Z</time>
      </trkpt>
      <trkpt lat="48.40485" lon="2.66516">
        <ele>94.599998474121</ele>
        <time>2021-06-03T15:16:06Z</time>
      </trkpt>
      <trkpt lat="48.40484" lon="2.66521">
        <ele>94.199996948242</ele>
        <time>2021-06-03T15:16:11Z</time>
      </trkpt>
      <trkpt lat="48.40482" lon="2.66526">
        <ele>94</ele>
        <time>2021-06-03T15:16:16Z</time>
      </trkpt>
      <trkpt lat="48.4048" lon="2.66532">
        <ele>93.800003051758</ele>
        <time>2021-06-03T15:16:21Z</time>
      </trkpt>
      <trkpt lat="48.40479" lon="2.66539">
        <ele>93.400001525879</ele>
        <time>2021-06-03T15:16:26Z</time>
      </trkpt>
      <trkpt lat="48.40477" lon="2.66547">
        <ele>93</ele>
        <time>2021-06-03T15:16:31Z</time>
      </trkpt>
      <trkpt lat="48.40476" lon="2.66553">
        <ele>92.599998474121</ele>
        <time>2021-06-03T15:16:36Z</time>
      </trkpt>
      <trkpt lat="48.40476" lon="2.66559">
        <ele>92.400001525879</ele>
        <time>2021-06-03T15:16:41Z</time>
      </trkpt>
      <trkpt lat="48.40474" lon="2.66564">
        <ele>92.400001525879</ele>
        <time>2021-06-03T15:16:46Z</time>
      </trkpt>
      <trkpt lat="48.40472" lon="2.66571">
        <ele>92.199996948242</ele>
        <time>2021-06-03T15:16:51Z</time>
      </trkpt>
      <trkpt lat="48.40471" lon="2.66578">
        <ele>92</ele>
        <time>2021-06-03T15:16:56Z</time>
      </trkpt>
      <trkpt lat="48.40471" lon="2.66584">
        <ele>91.800003051758</ele>
        <time>2021-06-03T15:17:01Z</time>
      </trkpt>
      <trkpt lat="48.40471" lon="2.66588">
        <ele>91.599998474121</ele>
        <time>2021-06-03T15:17:06Z</time>
      </trkpt>
      <trkpt lat="48.4047" lon="2.66596">
        <ele>91.599998474121</ele>
        <time>2021-06-03T15:17:11Z</time>
      </trkpt>
      <trkpt lat="48.40469" lon="2.66603">
        <ele>91.400001525879</ele>
        <time>2021-06-03T15:17:16Z</time>
      </trkpt>
      <trkpt lat="48.40469" lon="2.66608">
        <ele>91.400001525879</ele>
        <time>2021-06-03T15:17:21Z</time>
      </trkpt>
      <trkpt lat="48.4047" lon="2.66615">
        <ele>91.400001525879</ele>
        <time>2021-06-03T15:17:26Z</time>
      </trkpt>
      <trkpt lat="48.4047" lon="2.66621">
        <ele>91.400001525879</ele>
        <time>2021-06-03T15:17:31Z</time>
      </trkpt>
      <trkpt lat="48.40469" lon="2.66627">
        <ele>91.400001525879</ele>
        <time>2021-06-03T15:17:36Z</time>
      </trkpt>
      <trkpt lat="48.4047" lon="2.66634">
        <ele>91.400001525879</ele>
        <time>2021-06-03T15:17:41Z</time>
      </trkpt>
      <trkpt lat="48.4047" lon="2.6664">
        <ele>91.400001525879</ele>
        <time>2021-06-03T15:17:46Z</time>
      </trkpt>
      <trkpt lat="48.40471" lon="2.66648">
        <ele>91.400001525879</ele>
        <time>2021-06-03T15:17:51Z</time>
      </trkpt>
      <trkpt lat="48.4047" lon="2.66655">
        <ele>91.199996948242</ele>
        <time>2021-06-03T15:17:56Z</time>
      </trkpt>
      <trkpt lat="48.40471" lon="2.66663">
        <ele>91.199996948242</ele>
        <time>2021-06-03T15:18:01Z</time>
      </trkpt>
      <trkpt lat="48.40471" lon="2.66668">
        <ele>91.199996948242</ele>
        <time>2021-06-03T15:18:06Z</time>
      </trkpt>
      <trkpt lat="48.40473" lon="2.66673">
        <ele>91.199996948242</ele>
        <time>2021-06-03T15:18:11Z</time>
      </trkpt>
      <trkpt lat="48.40475" lon="2.66678">
        <ele>91.199996948242</ele>
        <time>2021-06-03T15:18:16Z</time>
      </trkpt>
      <trkpt lat="48.40476" lon="2.66681">
        <ele>91.400001525879</ele>
        <time>2021-06-03T15:18:21Z</time>
      </trkpt>
      <trkpt lat="48.40478" lon="2.66687">
        <ele>91.400001525879</ele>
        <time>2021-06-03T15:18:26Z</time>
      </trkpt>
      <trkpt lat="48.40478" lon="2.66694">
        <ele>91.199996948242</ele>
        <time>2021-06-03T15:18:31Z</time>
      </trkpt>
      <trkpt lat="48.40477" lon="2.66701">
        <ele>91</ele>
        <time>2021-06-03T15:18:36Z</time>
      </trkpt>
      <trkpt lat="48.40476" lon="2.6671">
        <ele>91</ele>
        <time>2021-06-03T15:18:41Z</time>
      </trkpt>
      <trkpt lat="48.40476" lon="2.66717">
        <ele>90.800003051758</ele>
        <time>2021-06-03T15:18:46Z</time>
      </trkpt>
      <trkpt lat="48.40477" lon="2.66727">
        <ele>90.599998474121</ele>
        <time>2021-06-03T15:18:51Z</time>
      </trkpt>
      <trkpt lat="48.40477" lon="2.66735">
        <ele>90.599998474121</ele>
        <time>2021-06-03T15:18:56Z</time>
      </trkpt>
      <trkpt lat="48.40478" lon="2.66743">
        <ele>90.400001525879</ele>
        <time>2021-06-03T15:19:01Z</time>
      </trkpt>
      <trkpt lat="48.40479" lon="2.6675">
        <ele>90.400001525879</ele>
        <time>2021-06-03T15:19:06Z</time>
      </trkpt>
      <trkpt lat="48.40478" lon="2.66757">
        <ele>90.400001525879</ele>
        <time>2021-06-03T15:19:11Z</time>
      </trkpt>
      <trkpt lat="48.40477" lon="2.66763">
        <ele>90.199996948242</ele>
        <time>2021-06-03T15:19:16Z</time>
      </trkpt>
      <trkpt lat="48.40475" lon="2.66767">
        <ele>90</ele>
        <time>2021-06-03T15:19:21Z</time>
      </trkpt>
      <trkpt lat="48.40475" lon="2.66774">
        <ele>89.800003051758</ele>
        <time>2021-06-03T15:19:26Z</time>
      </trkpt>
      <trkpt lat="48.40476" lon="2.66781">
        <ele>89.800003051758</ele>
        <time>2021-06-03T15:19:31Z</time>
      </trkpt>
      <trkpt lat="48.40477" lon="2.66788">
        <ele>89.800003051758</ele>
        <time>2021-06-03T15:19:36Z</time>
      </trkpt>
      <trkpt lat="48.40479" lon="2.66793">
        <ele>89.800003051758</ele>
        <time>2021-06-03T15:19:41Z</time>
      </trkpt>
      <trkpt lat="48.4048" lon="2.66798">
        <ele>89.800003051758</ele>
        <time>2021-06-03T15:19:46Z</time>
      </trkpt>
      <trkpt lat="48.40479" lon="2.66802">
        <ele>89.800003051758</ele>
        <time>2021-06-03T15:19:51Z</time>
      </trkpt>
      <trkpt lat="48.4048" lon="2.66807">
        <ele>90</ele>
        <time>2021-06-03T15:19:56Z</time>
      </trkpt>
      <trkpt lat="48.4048" lon="2.66812">
        <ele>89.800003051758</ele>
        <time>2021-06-03T15:20:01Z</time>
      </trkpt>
      <trkpt lat="48.40483" lon="2.66817">
        <ele>89.599998474121</ele>
        <time>2021-06-03T15:20:06Z</time>
      </trkpt>
      <trkpt lat="48.40484" lon="2.66823">
        <ele>89.599998474121</ele>
        <time>2021-06-03T15:20:11Z</time>
      </trkpt>
      <trkpt lat="48.40484" lon="2.66829">
        <ele>89.599998474121</ele>
        <time>2021-06-03T15:20:16Z</time>
      </trkpt>
      <trkpt lat="48.40484" lon="2.66834">
        <ele>89.599998474121</ele>
        <time>2021-06-03T15:20:21Z</time>
      </trkpt>
      <trkpt lat="48.40485" lon="2.66841">
        <ele>89.599998474121</ele>
        <time>2021-06-03T15:20:26Z</time>
      </trkpt>
      <trkpt lat="48.40485" lon="2.66849">
        <ele>89.400001525879</ele>
        <time>2021-06-03T15:20:31Z</time>
      </trkpt>
      <trkpt lat="48.40485" lon="2.66856">
        <ele>89.400001525879</ele>
        <time>2021-06-03T15:20:36Z</time>
      </trkpt>
      <trkpt lat="48.40487" lon="2.66864">
        <ele>89.400001525879</ele>
        <time>2021-06-03T15:20:41Z</time>
      </trkpt>
      <trkpt lat="48.40488" lon="2.66872">
        <ele>89.199996948242</ele>
        <time>2021-06-03T15:20:46Z</time>
      </trkpt>
      <trkpt lat="48.40487" lon="2.66879">
        <ele>89</ele>
        <time>2021-06-03T15:20:51Z</time>
      </trkpt>
      <trkpt lat="48.40488" lon="2.66887">
        <ele>89</ele>
        <time>2021-06-03T15:20:56Z</time>
      </trkpt>
      <trkpt lat="48.40488" lon="2.66893">
        <ele>88.800003051758</ele>
        <time>2021-06-03T15:21:01Z</time>
      </trkpt>
      <trkpt lat="48.4049" lon="2.66899">
        <ele>88.599998474121</ele>
        <time>2021-06-03T15:21:06Z</time>
      </trkpt>
      <trkpt lat="48.4049" lon="2.66906">
        <ele>88.599998474121</ele>
        <time>2021-06-03T15:21:11Z</time>
      </trkpt>
      <trkpt lat="48.4049" lon="2.66914">
        <ele>88.400001525879</ele>
        <time>2021-06-03T15:21:16Z</time>
      </trkpt>
      <trkpt lat="48.40492" lon="2.66921">
        <ele>88.400001525879</ele>
        <time>2021-06-03T15:21:21Z</time>
      </trkpt>
      <trkpt lat="48.40493" lon="2.66928">
        <ele>88.400001525879</ele>
        <time>2021-06-03T15:21:26Z</time>
      </trkpt>
      <trkpt lat="48.40494" lon="2.66935">
        <ele>88.400001525879</ele>
        <time>2021-06-03T15:21:31Z</time>
      </trkpt>
      <trkpt lat="48.40494" lon="2.66942">
        <ele>88.400001525879</ele>
        <time>2021-06-03T15:21:36Z</time>
      </trkpt>
      <trkpt lat="48.40494" lon="2.66949">
        <ele>88.199996948242</ele>
        <time>2021-06-03T15:21:41Z</time>
      </trkpt>
      <trkpt lat="48.40494" lon="2.66958">
        <ele>88.199996948242</ele>
        <time>2021-06-03T15:21:46Z</time>
      </trkpt>
      <trkpt lat="48.40493" lon="2.66964">
        <ele>88.199996948242</ele>
        <time>2021-06-03T15:21:51Z</time>
      </trkpt>
      <trkpt lat="48.40494" lon="2.6697">
        <ele>88.400001525879</ele>
        <time>2021-06-03T15:21:56Z</time>
      </trkpt>
      <trkpt lat="48.40493" lon="2.66974">
        <ele>88.400001525879</ele>
        <time>2021-06-03T15:22:01Z</time>
      </trkpt>
      <trkpt lat="48.40495" lon="2.66979">
        <ele>88.400001525879</ele>
        <time>2021-06-03T15:22:06Z</time>
      </trkpt>
      <trkpt lat="48.40496" lon="2.66986">
        <ele>88.400001525879</ele>
        <time>2021-06-03T15:22:11Z</time>
      </trkpt>
      <trkpt lat="48.40498" lon="2.66992">
        <ele>88.199996948242</ele>
        <time>2021-06-03T15:22:16Z</time>
      </trkpt>
      <trkpt lat="48.40499" lon="2.67002">
        <ele>88.199996948242</ele>
        <time>2021-06-03T15:22:21Z</time>
      </trkpt>
      <trkpt lat="48.40501" lon="2.6701">
        <ele>88.199996948242</ele>
        <time>2021-06-03T15:22:26Z</time>
      </trkpt>
      <trkpt lat="48.40499" lon="2.67019">
        <ele>88</ele>
        <time>2021-06-03T15:22:31Z</time>
      </trkpt>
      <trkpt lat="48.405" lon="2.67026">
        <ele>88</ele>
        <time>2021-06-03T15:22:36Z</time>
      </trkpt>
      <trkpt lat="48.40499" lon="2.67034">
        <ele>88</ele>
        <time>2021-06-03T15:22:41Z</time>
      </trkpt>
      <trkpt lat="48.40499" lon="2.67043">
        <ele>87.800003051758</ele>
        <time>2021-06-03T15:22:46Z</time>
      </trkpt>
      <trkpt lat="48.40499" lon="2.67052">
        <ele>87.800003051758</ele>
        <time>2021-06-03T15:22:51Z</time>
      </trkpt>
      <trkpt lat="48.40499" lon="2.6706">
        <ele>87.599998474121</ele>
        <time>2021-06-03T15:22:56Z</time>
      </trkpt>
      <trkpt lat="48.405" lon="2.67068">
        <ele>87.599998474121</ele>
        <time>2021-06-03T15:23:01Z</time>
      </trkpt>
      <trkpt lat="48.40501" lon="2.67076">
        <ele>87.599998474121</ele>
        <time>2021-06-03T15:23:06Z</time>
      </trkpt>
      <trkpt lat="48.40501" lon="2.67087">
        <ele>87.400001525879</ele>
        <time>2021-06-03T15:23:11Z</time>
      </trkpt>
      <trkpt lat="48.40503" lon="2.67093">
        <ele>87.400001525879</ele>
        <time>2021-06-03T15:23:16Z</time>
      </trkpt>
      <trkpt lat="48.40504" lon="2.67102">
        <ele>87.199996948242</ele>
        <time>2021-06-03T15:23:21Z</time>
      </trkpt>
      <trkpt lat="48.40504" lon="2.67109">
        <ele>87.199996948242</ele>
        <time>2021-06-03T15:23:26Z</time>
      </trkpt>
      <trkpt lat="48.40503" lon="2.67116">
        <ele>87.199996948242</ele>
        <time>2021-06-03T15:23:31Z</time>
      </trkpt>
      <trkpt lat="48.40503" lon="2.67122">
        <ele>87.199996948242</ele>
        <time>2021-06-03T15:23:36Z</time>
      </trkpt>
      <trkpt lat="48.40502" lon="2.6713">
        <ele>87.199996948242</ele>
        <time>2021-06-03T15:23:41Z</time>
      </trkpt>
      <trkpt lat="48.40502" lon="2.67136">
        <ele>87.199996948242</ele>
        <time>2021-06-03T15:23:46Z</time>
      </trkpt>
      <trkpt lat="48.40502" lon="2.67146">
        <ele>87.199996948242</ele>
        <time>2021-06-03T15:23:51Z</time>
      </trkpt>
      <trkpt lat="48.40501" lon="2.67154">
        <ele>87.199996948242</ele>
        <time>2021-06-03T15:23:56Z</time>
      </trkpt>
      <trkpt lat="48.405" lon="2.6716">
        <ele>87.199996948242</ele>
        <time>2021-06-03T15:24:01Z</time>
      </trkpt>
      <trkpt lat="48.40502" lon="2.67168">
        <ele>87</ele>
        <time>2021-06-03T15:24:06Z</time>
      </trkpt>
      <trkpt lat="48.40504" lon="2.67177">
        <ele>87</ele>
        <time>2021-06-03T15:24:11Z</time>
      </trkpt>
      <trkpt lat="48.40505" lon="2.67186">
        <ele>87.199996948242</ele>
        <time>2021-06-03T15:24:16Z</time>
      </trkpt>
      <trkpt lat="48.40507" lon="2.67195">
        <ele>87.199996948242</ele>
        <time>2021-06-03T15:24:21Z</time>
      </trkpt>
      <trkpt lat="48.40509" lon="2.67204">
        <ele>87.199996948242</ele>
        <time>2021-06-03T15:24:26Z</time>
      </trkpt>
      <trkpt lat="48.40509" lon="2.6721">
        <ele>87.199996948242</ele>
        <time>2021-06-03T15:24:31Z</time>
      </trkpt>
      <trkpt lat="48.40511" lon="2.67219">
        <ele>87.199996948242</ele>
        <time>2021-06-03T15:24:36Z</time>
      </trkpt>
      <trkpt lat="48.40511" lon="2.67229">
        <ele>87</ele>
        <time>2021-06-03T15:24:41Z</time>
      </trkpt>
      <trkpt lat="48.40511" lon="2.67237">
        <ele>87</ele>
        <time>2021-06-03T15:24:46Z</time>
      </trkpt>
      <trkpt lat="48.40513" lon="2.67245">
        <ele>87</ele>
        <time>2021-06-03T15:24:51Z</time>
      </trkpt>
      <trkpt lat="48.40513" lon="2.67254">
        <ele>87.199996948242</ele>
        <time>2021-06-03T15:24:56Z</time>
      </trkpt>
      <trkpt lat="48.40515" lon="2.6726">
        <ele>87.199996948242</ele>
        <time>2021-06-03T15:25:01Z</time>
      </trkpt>
      <trkpt lat="48.40517" lon="2.67268">
        <ele>87</ele>
        <time>2021-06-03T15:25:06Z</time>
      </trkpt>
      <trkpt lat="48.40518" lon="2.67276">
        <ele>87.199996948242</ele>
        <time>2021-06-03T15:25:11Z</time>
      </trkpt>
      <trkpt lat="48.40518" lon="2.67283">
        <ele>87</ele>
        <time>2021-06-03T15:25:16Z</time>
      </trkpt>
      <trkpt lat="48.40518" lon="2.6729">
        <ele>87</ele>
        <time>2021-06-03T15:25:21Z</time>
      </trkpt>
      <trkpt lat="48.40518" lon="2.67297">
        <ele>87</ele>
        <time>2021-06-03T15:25:26Z</time>
      </trkpt>
      <trkpt lat="48.40518" lon="2.67305">
        <ele>86.599998474121</ele>
        <time>2021-06-03T15:25:31Z</time>
      </trkpt>
      <trkpt lat="48.40519" lon="2.67316">
        <ele>86.800003051758</ele>
        <time>2021-06-03T15:25:36Z</time>
      </trkpt>
      <trkpt lat="48.40518" lon="2.67324">
        <ele>86.800003051758</ele>
        <time>2021-06-03T15:25:41Z</time>
      </trkpt>
      <trkpt lat="48.40519" lon="2.67333">
        <ele>86.599998474121</ele>
        <time>2021-06-03T15:25:46Z</time>
      </trkpt>
      <trkpt lat="48.40521" lon="2.67342">
        <ele>86.599998474121</ele>
        <time>2021-06-03T15:25:51Z</time>
      </trkpt>
      <trkpt lat="48.40521" lon="2.67351">
        <ele>86.599998474121</ele>
        <time>2021-06-03T15:25:56Z</time>
      </trkpt>
      <trkpt lat="48.40522" lon="2.67358">
        <ele>86.599998474121</ele>
        <time>2021-06-03T15:26:01Z</time>
      </trkpt>
      <trkpt lat="48.40523" lon="2.67365">
        <ele>86.599998474121</ele>
        <time>2021-06-03T15:26:06Z</time>
      </trkpt>
      <trkpt lat="48.40525" lon="2.67374">
        <ele>86.599998474121</ele>
        <time>2021-06-03T15:26:11Z</time>
      </trkpt>
      <trkpt lat="48.40524" lon="2.6738">
        <ele>86.599998474121</ele>
        <time>2021-06-03T15:26:16Z</time>
      </trkpt>
      <trkpt lat="48.40524" lon="2.67389">
        <ele>86.599998474121</ele>
        <time>2021-06-03T15:26:21Z</time>
      </trkpt>
      <trkpt lat="48.40524" lon="2.67396">
        <ele>86.599998474121</ele>
        <time>2021-06-03T15:26:26Z</time>
      </trkpt>
      <trkpt lat="48.40524" lon="2.67404">
        <ele>86.599998474121</ele>
        <time>2021-06-03T15:26:31Z</time>
      </trkpt>
      <trkpt lat="48.40526" lon="2.67414">
        <ele>86.599998474121</ele>
        <time>2021-06-03T15:26:36Z</time>
      </trkpt>
      <trkpt lat="48.40527" lon="2.67422">
        <ele>86.599998474121</ele>
        <time>2021-06-03T15:26:41Z</time>
      </trkpt>
      <trkpt lat="48.40527" lon="2.67429">
        <ele>86.599998474121</ele>
        <time>2021-06-03T15:26:46Z</time>
      </trkpt>
      <trkpt lat="48.40529" lon="2.67436">
        <ele>86.800003051758</ele>
        <time>2021-06-03T15:26:51Z</time>
      </trkpt>
      <trkpt lat="48.40527" lon="2.67444">
        <ele>86.800003051758</ele>
        <time>2021-06-03T15:26:56Z</time>
      </trkpt>
      <trkpt lat="48.40528" lon="2.67452">
        <ele>86.800003051758</ele>
        <time>2021-06-03T15:27:01Z</time>
      </trkpt>
      <trkpt lat="48.40529" lon="2.67458">
        <ele>86.800003051758</ele>
        <time>2021-06-03T15:27:06Z</time>
      </trkpt>
      <trkpt lat="48.40529" lon="2.67467">
        <ele>86.800003051758</ele>
        <time>2021-06-03T15:27:11Z</time>
      </trkpt>
      <trkpt lat="48.4053" lon="2.67475">
        <ele>86.800003051758</ele>
        <time>2021-06-03T15:27:16Z</time>
      </trkpt>
      <trkpt lat="48.40531" lon="2.67483">
        <ele>86.800003051758</ele>
        <time>2021-06-03T15:27:21Z</time>
      </trkpt>
      <trkpt lat="48.40532" lon="2.67491">
        <ele>87</ele>
        <time>2021-06-03T15:27:26Z</time>
      </trkpt>
      <trkpt lat="48.40532" lon="2.67498">
        <ele>87</ele>
        <time>2021-06-03T15:27:31Z</time>
      </trkpt>
      <trkpt lat="48.40533" lon="2.67505">
        <ele>87</ele>
        <time>2021-06-03T15:27:36Z</time>
      </trkpt>
      <trkpt lat="48.40533" lon="2.67511">
        <ele>87</ele>
        <time>2021-06-03T15:27:41Z</time>
      </trkpt>
      <trkpt lat="48.40535" lon="2.67519">
        <ele>87</ele>
        <time>2021-06-03T15:27:46Z</time>
      </trkpt>
      <trkpt lat="48.40536" lon="2.67525">
        <ele>87</ele>
        <time>2021-06-03T15:27:51Z</time>
      </trkpt>
      <trkpt lat="48.40536" lon="2.67533">
        <ele>87</ele>
        <time>2021-06-03T15:27:56Z</time>
      </trkpt>
      <trkpt lat="48.40537" lon="2.67542">
        <ele>87</ele>
        <time>2021-06-03T15:28:01Z</time>
      </trkpt>
      <trkpt lat="48.40537" lon="2.67549">
        <ele>87</ele>
        <time>2021-06-03T15:28:06Z</time>
      </trkpt>
      <trkpt lat="48.40537" lon="2.67557">
        <ele>87</ele>
        <time>2021-06-03T15:28:11Z</time>
      </trkpt>
      <trkpt lat="48.40537" lon="2.67566">
        <ele>87</ele>
        <time>2021-06-03T15:28:16Z</time>
      </trkpt>
      <trkpt lat="48.40538" lon="2.67573">
        <ele>87</ele>
        <time>2021-06-03T15:28:21Z</time>
      </trkpt>
      <trkpt lat="48.40539" lon="2.6758">
        <ele>87</ele>
        <time>2021-06-03T15:28:26Z</time>
      </trkpt>
      <trkpt lat="48.40539" lon="2.67587">
        <ele>87</ele>
        <time>2021-06-03T15:28:31Z</time>
      </trkpt>
      <trkpt lat="48.4054" lon="2.67596">
        <ele>87</ele>
        <time>2021-06-03T15:28:36Z</time>
      </trkpt>
      <trkpt lat="48.40539" lon="2.67603">
        <ele>87</ele>
        <time>2021-06-03T15:28:41Z</time>
      </trkpt>
      <trkpt lat="48.4054" lon="2.6761">
        <ele>87</ele>
        <time>2021-06-03T15:28:46Z</time>
      </trkpt>
      <trkpt lat="48.40537" lon="2.67617">
        <ele>87</ele>
        <time>2021-06-03T15:28:51Z</time>
      </trkpt>
      <trkpt lat="48.40537" lon="2.67624">
        <ele>87.199996948242</ele>
        <time>2021-06-03T15:28:56Z</time>
      </trkpt>
      <trkpt lat="48.40538" lon="2.67633">
        <ele>87.199996948242</ele>
        <time>2021-06-03T15:29:01Z</time>
      </trkpt>
      <trkpt lat="48.40541" lon="2.67642">
        <ele>87.199996948242</ele>
        <time>2021-06-03T15:29:06Z</time>
      </trkpt>
      <trkpt lat="48.40542" lon="2.67651">
        <ele>87.199996948242</ele>
        <time>2021-06-03T15:29:11Z</time>
      </trkpt>
      <trkpt lat="48.40542" lon="2.67659">
        <ele>87.199996948242</ele>
        <time>2021-06-03T15:29:16Z</time>
      </trkpt>
      <trkpt lat="48.40542" lon="2.67667">
        <ele>87.199996948242</ele>
        <time>2021-06-03T15:29:21Z</time>
      </trkpt>
      <trkpt lat="48.40538" lon="2.67673">
        <ele>87.400001525879</ele>
        <time>2021-06-03T15:29:26Z</time>
      </trkpt>
      <trkpt lat="48.40534" lon="2.67678">
        <ele>87.400001525879</ele>
        <time>2021-06-03T15:29:31Z</time>
      </trkpt>
      <trkpt lat="48.40531" lon="2.67684">
        <ele>87.599998474121</ele>
        <time>2021-06-03T15:29:36Z</time>
      </trkpt>
      <trkpt lat="48.40526" lon="2.67684">
        <ele>87.599998474121</ele>
        <time>2021-06-03T15:29:41Z</time>
      </trkpt>
      <trkpt lat="48.40524" lon="2.67683">
        <ele>87.599998474121</ele>
        <time>2021-06-03T15:29:46Z</time>
      </trkpt>
      <trkpt lat="48.40524" lon="2.67683">
        <ele>87.599998474121</ele>
        <time>2021-06-03T15:29:51Z</time>
      </trkpt>
      <trkpt lat="48.40523" lon="2.67682">
        <ele>87.599998474121</ele>
        <time>2021-06-03T15:29:56Z</time>
      </trkpt>
      <trkpt lat="48.40521" lon="2.67683">
        <ele>87.599998474121</ele>
        <time>2021-06-03T15:30:01Z</time>
      </trkpt>
      <trkpt lat="48.40521" lon="2.67683">
        <ele>87.599998474121</ele>
        <time>2021-06-03T15:30:06Z</time>
      </trkpt>
      <trkpt lat="48.40521" lon="2.67683">
        <ele>87.599998474121</ele>
        <time>2021-06-03T15:30:11Z</time>
      </trkpt>
      <trkpt lat="48.40522" lon="2.67684">
        <ele>87.800003051758</ele>
        <time>2021-06-03T15:30:16Z</time>
      </trkpt>
      <trkpt lat="48.40522" lon="2.67686">
        <ele>87.800003051758</ele>
        <time>2021-06-03T15:30:21Z</time>
      </trkpt>
      <trkpt lat="48.40519" lon="2.6769">
        <ele>87.800003051758</ele>
        <time>2021-06-03T15:30:26Z</time>
      </trkpt>
      <trkpt lat="48.40517" lon="2.67696">
        <ele>87.800003051758</ele>
        <time>2021-06-03T15:30:31Z</time>
      </trkpt>
      <trkpt lat="48.40513" lon="2.67701">
        <ele>88</ele>
        <time>2021-06-03T15:30:36Z</time>
      </trkpt>
      <trkpt lat="48.40508" lon="2.67706">
        <ele>87.800003051758</ele>
        <time>2021-06-03T15:30:41Z</time>
      </trkpt>
      <trkpt lat="48.40505" lon="2.67712">
        <ele>87.599998474121</ele>
        <time>2021-06-03T15:30:46Z</time>
      </trkpt>
      <trkpt lat="48.40501" lon="2.67716">
        <ele>87.400001525879</ele>
        <time>2021-06-03T15:30:51Z</time>
      </trkpt>
      <trkpt lat="48.40499" lon="2.6772">
        <ele>87.400001525879</ele>
        <time>2021-06-03T15:30:56Z</time>
      </trkpt>
      <trkpt lat="48.40498" lon="2.67727">
        <ele>87.599998474121</ele>
        <time>2021-06-03T15:31:01Z</time>
      </trkpt>
      <trkpt lat="48.40499" lon="2.67734">
        <ele>87.800003051758</ele>
        <time>2021-06-03T15:31:06Z</time>
      </trkpt>
      <trkpt lat="48.40498" lon="2.67743">
        <ele>88</ele>
        <time>2021-06-03T15:31:11Z</time>
      </trkpt>
      <trkpt lat="48.40496" lon="2.67751">
        <ele>87.800003051758</ele>
        <time>2021-06-03T15:31:16Z</time>
      </trkpt>
      <trkpt lat="48.40496" lon="2.6776">
        <ele>87.800003051758</ele>
        <time>2021-06-03T15:31:21Z</time>
      </trkpt>
      <trkpt lat="48.40496" lon="2.67769">
        <ele>87.800003051758</ele>
        <time>2021-06-03T15:31:26Z</time>
      </trkpt>
      <trkpt lat="48.40492" lon="2.67777">
        <ele>88</ele>
        <time>2021-06-03T15:31:31Z</time>
      </trkpt>
      <trkpt lat="48.40488" lon="2.67781">
        <ele>87.800003051758</ele>
        <time>2021-06-03T15:31:36Z</time>
      </trkpt>
      <trkpt lat="48.40481" lon="2.67786">
        <ele>87.800003051758</ele>
        <time>2021-06-03T15:31:41Z</time>
      </trkpt>
      <trkpt lat="48.40477" lon="2.67789">
        <ele>87.800003051758</ele>
        <time>2021-06-03T15:31:46Z</time>
      </trkpt>
      <trkpt lat="48.40472" lon="2.6779">
        <ele>87.599998474121</ele>
        <time>2021-06-03T15:31:51Z</time>
      </trkpt>
      <trkpt lat="48.40468" lon="2.6779">
        <ele>87.400001525879</ele>
        <time>2021-06-03T15:31:56Z</time>
      </trkpt>
      <trkpt lat="48.40466" lon="2.6779">
        <ele>87.599998474121</ele>
        <time>2021-06-03T15:31:59Z</time>
      </trkpt>
    </trkseg>
  </trk>
</gpx>